[[{"header":{"parameterUnit":"m.s-1","parameterCategory":1,"la1":30.6,"la2":28.766,"lo1":-90.7593,"lo2":-88.6598,"dy":0.0162,"dx":0.0183,"nx":116,"ny":114,"refTime":"2023-08-15T18:00:00:Z","depth":0,"parameterNumber":2,"parameterNumberName":"U-component_of_WINDS"},"data":[0.0,0.0,0.0,0.0,0.0,0.0,0.0,0.0,0.0,0.0,0.0,0.0,0.0,0.0,0.0,0.0,0.0,0.0,0.0,0.0,0.0,0.0,0.0,0.0,0.0,0.0,0.0,0.0,0.0,0.0,0.0,0.0,0.0,0.0,0.0,0.0,0.0,0.0,0.0,0.0,0.0,0.0,0.0,0.0,0.0,0.0,0.0,0.0,0.0,0.0,0.0,0.0,0.0,0.0,0.0,0.0,0.0,0.0,0.0,0.0,0.0,0.0,0.0,0.0,0.0,0.0,0.0,0.0,0.0,0.0,0.0,0.0,0.0,0.0,0.0,0.0,0.0,0.0,0.0,0.0,0.0,0.0,0.0,0.0,0.0,0.0,0.0,0.0,0.0,0.0,0.0,0.0,0.0,0.0,0.0,0.0,0.0,0.0,0.0,0.0,0.0,0.0,0.0,0.0,0.0,0.0,0.0,0.0,0.0,0.0,0.0,0.0,0.0,0.0,0.0,0.0,0.0,0.0,0.0,0.0,0.0,0.0,0.0,0.0,0.0,0.0,0.0,0.0,0.0,0.0,0.0,0.0,0.0,0.0,0.0,0.0,0.0,0.0,0.0,0.0,0.0,0.0,0.0,0.0,0.0,0.0,0.0,0.0,0.0,0.0,0.0,0.0,0.0,0.0,0.0,0.0,0.0,0.0,0.0,0.0,0.0,0.0,0.0,0.0,0.0,0.0,0.0,0.0,0.0,0.0,0.0,0.0,0.0,0.0,0.0,0.0,0.0,0.0,0.0,0.0,0.0,0.0,0.0,0.0,0.0,0.0,0.0,0.0,0.0,0.0,0.0,0.0,0.0,0.0,0.0,0.0,0.0,0.0,0.0,0.0,0.0,0.0,0.0,0.0,0.0,0.0,0.0,0.0,0.0,0.0,0.0,0.0,0.0,0.0,0.0,0.0,0.0,0.0,0.0,0.0,0.0,0.0,0.0,0.0,0.0,0.0,0.0,0.0,0.0,0.0,0.0,0.0,0.0,0.0,0.0,0.0,0.0,0.0,0.0,0.0,0.0,0.0,0.0,0.0,0.0,0.0,0.0,0.0,0.0,0.0,0.0,0.0,0.0,0.0,0.0,0.0,0.0,0.0,0.0,0.0,0.0,0.0,0.0,0.0,0.0,0.0,0.0,0.0,0.0,0.0,0.0,0.0,0.0,0.0,0.0,0.0,0.0,0.0,0.0,0.0,0.0,0.0,0.0,0.0,0.0,0.0,0.0,0.0,0.0,0.0,0.0,0.0,0.0,0.0,0.0,0.0,0.0,0.0,0.0,0.0,0.0,0.0,0.0,0.0,0.0,0.0,0.0,0.0,0.0,0.0,0.0,0.0,0.0,0.0,0.0,0.0,0.0,0.0,0.0,0.0,0.0,0.0,0.0,0.0,0.0,0.0,0.0,0.0,0.0,0.0,0.0,0.0,0.0,0.0,0.0,0.0,0.0,0.0,0.0,0.0,0.0,0.0,0.0,0.0,0.0,0.0,0.0,0.0,0.0,0.0,0.0,0.0,0.0,0.0,0.0,0.0,0.0,0.0,0.0,0.0,0.0,0.0,0.0,0.0,0.0,0.0,0.0,0.0,0.0,0.0,0.0,0.0,0.0,0.0,0.0,0.0,0.0,0.0,0.0,0.0,0.0,0.0,0.0,0.0,0.0,0.0,0.0,0.0,0.0,0.0,0.0,0.0,0.0,0.0,0.0,0.0,0.0,0.0,0.0,0.0,0.0,0.0,0.0,0.0,0.0,0.0,0.0,0.0,0.0,0.0,0.0,0.0,0.0,0.0,0.0,0.0,0.0,0.0,0.0,0.0,0.0,0.0,0.0,0.0,0.0,0.0,0.0,0.0,0.0,0.0,0.0,0.0,0.0,0.0,0.0,0.0,0.0,0.0,0.0,0.0,0.0,0.0,0.0,0.0,0.0,0.0,0.0,0.0,0.0,0.0,0.0,0.0,0.0,0.0,0.0,0.0,0.0,0.0,0.0,0.0,0.0,0.0,0.0,0.0,0.0,0.0,0.0,0.0,0.0,0.0,0.0,0.0,0.0,0.0,0.0,0.0,0.0,0.0,0.0,0.0,0.0,0.0,0.0,0.0,0.0,0.0,0.0,0.0,0.0,0.0,0.0,0.0,0.0,0.0,0.0,0.0,0.0,0.0,0.0,0.0,0.0,0.0,0.0,0.0,0.0,0.0,0.0,0.0,0.0,0.0,0.0,0.0,0.0,0.0,0.0,0.0,0.0,0.0,0.0,0.0,0.0,0.0,0.0,0.0,0.0,0.0,0.0,0.0,0.0,0.0,0.0,0.0,0.0,0.0,0.0,0.0,0.0,0.0,0.0,0.0,0.0,0.0,0.0,0.0,0.0,0.0,0.0,0.0,0.0,0.0,0.0,0.0,0.0,0.0,0.0,0.0,0.0,0.0,0.0,0.0,0.0,0.0,0.0,0.0,0.0,0.0,0.0,0.0,0.0,0.0,0.0,0.0,0.0,0.0,0.0,0.0,0.0,0.0,0.0,0.0,0.0,0.0,0.0,0.0,0.0,0.0,0.0,0.0,0.0,0.0,0.0,0.0,0.0,0.0,0.0,0.0,0.0,0.0,0.0,0.0,0.0,0.0,0.0,0.0,0.0,0.0,0.0,0.0,0.0,0.0,0.0,0.0,0.0,0.0,0.0,0.0,0.0,0.0,0.0,0.0,0.0,0.0,0.0,0.0,0.0,0.0,0.0,0.0,0.0,0.0,0.0,0.0,0.0,0.0,0.0,0.0,0.0,0.0,0.0,0.0,0.0,0.0,0.0,0.0,0.0,0.0,0.0,0.0,0.0,0.0,0.0,0.0,0.0,0.0,0.0,0.0,0.0,0.0,0.0,0.0,0.0,0.0,0.0,0.0,0.0,0.0,0.0,0.0,0.0,0.0,0.0,0.0,0.0,0.0,0.0,0.0,0.0,0.0,0.0,0.0,0.0,0.0,0.0,0.0,0.0,0.0,0.0,0.0,0.0,0.0,0.0,0.0,0.0,0.0,0.0,0.0,0.0,0.0,0.0,0.0,0.0,0.0,0.0,0.0,0.0,0.0,0.0,0.0,0.0,0.0,0.0,0.0,0.0,0.0,0.0,0.0,0.0,0.0,0.0,0.0,0.0,0.0,0.0,0.0,0.0,0.0,0.0,0.0,0.0,0.0,0.0,0.0,0.0,0.0,0.0,0.0,0.0,0.0,0.0,0.0,0.0,0.0,0.0,0.0,0.0,0.0,0.0,0.0,0.0,0.0,0.0,0.0,0.0,0.0,0.0,0.0,0.0,0.0,0.0,0.0,0.0,0.0,0.0,0.0,0.0,0.0,0.0,0.0,0.0,0.0,0.0,0.0,0.0,0.0,0.0,0.0,0.0,0.0,0.0,0.0,0.0,0.0,0.0,0.0,0.0,0.0,0.0,0.0,0.0,0.0,0.0,0.0,0.0,0.0,0.0,0.0,0.0,0.0,0.0,0.0,0.0,0.0,0.0,0.0,0.0,0.0,0.0,0.0,0.0,0.0,0.0,0.0,0.0,0.0,0.0,0.0,0.0,0.0,0.0,0.0,0.0,0.0,0.0,0.0,0.0,0.0,0.0,0.0,0.0,0.0,0.0,0.0,0.0,0.0,0.0,0.0,0.0,0.0,0.0,0.0,0.0,0.0,0.0,0.0,0.0,0.0,0.0,0.0,0.0,0.0,0.0,0.0,0.0,0.0,0.0,0.0,0.0,0.0,0.0,0.0,0.0,0.0,0.0,0.0,0.0,0.0,0.0,0.0,0.0,0.0,0.0,0.0,0.0,0.0,0.0,0.0,0.0,0.0,0.0,0.0,0.0,0.0,0.0,0.0,0.0,0.0,0.0,0.0,0.0,0.0,0.0,0.0,0.0,0.0,0.0,0.0,0.0,0.0,0.0,0.0,0.0,0.0,0.0,0.0,0.0,0.0,0.0,0.0,0.0,0.0,0.0,0.0,0.0,0.0,0.0,0.0,0.0,0.0,0.0,0.0,0.0,0.0,0.0,0.0,0.0,0.0,0.0,0.0,0.0,0.0,0.0,0.0,0.0,0.0,0.0,0.0,0.0,0.0,0.0,0.0,0.0,0.0,0.0,0.0,0.0,0.0,0.0,0.0,0.0,0.0,0.0,0.0,0.0,0.0,0.0,0.0,0.0,0.0,0.0,0.0,0.0,0.0,0.0,0.0,0.0,0.0,0.0,0.0,0.0,0.0,0.0,0.0,0.0,0.0,0.0,0.0,0.0,0.0,0.0,0.0,0.0,0.0,0.0,0.0,0.0,0.0,0.0,0.0,0.0,0.0,0.0,0.0,0.0,0.0,0.0,0.0,0.0,0.0,0.0,0.0,0.0,0.0,0.0,0.0,0.0,0.0,0.0,0.0,0.0,0.0,0.0,0.0,0.0,0.0,0.0,0.0,0.0,0.0,0.0,0.0,0.0,0.0,0.0,0.0,0.0,0.0,0.0,0.0,0.0,0.0,0.0,0.0,0.0,0.0,0.0,0.0,0.0,0.0,0.0,0.0,0.0,0.0,0.0,0.0,0.0,0.0,0.0,0.0,0.0,0.0,0.0,0.0,0.0,0.0,0.0,0.0,0.0,0.0,0.0,0.0,0.0,0.0,0.0,0.0,0.0,0.0,0.0,0.0,0.0,0.0,0.0,0.0,0.0,0.0,0.0,0.0,0.0,0.0,0.0,0.0,0.0,0.0,0.0,0.0,0.0,0.0,0.0,0.0,0.0,0.0,0.0,0.0,0.0,0.0,0.0,0.0,0.0,0.0,0.0,0.0,0.0,0.0,0.0,0.0,0.0,0.0,0.0,0.0,0.0,0.0,0.0,0.0,0.0,0.0,0.0,0.0,0.0,0.0,0.0,0.0,0.0,0.0,0.0,0.0,0.0,0.0,0.0,0.0,0.0,0.0,0.0,0.0,0.0,0.0,0.0,0.0,0.0,0.0,0.0,0.0,0.0,0.0,0.0,0.0,0.0,0.0,0.0,0.0,0.0,0.0,0.0,0.0,0.0,0.0,0.0,0.0,0.0,0.0,0.0,0.0,0.0,0.0,0.0,0.0,0.0,0.0,0.0,0.0,0.0,0.0,0.0,0.0,0.0,0.0,0.0,0.0,0.0,0.0,0.0,0.0,0.0,0.0,0.0,0.0,0.0,0.0,0.0,0.0,0.0,0.0,0.0,0.0,0.0,0.0,0.0,0.0,0.0,0.0,0.0,0.0,0.0,0.0,0.0,0.0,0.0,0.0,0.0,0.0,0.0,0.0,0.0,0.0,0.0,0.0,0.0,0.0,0.0,0.0,0.0,0.0,0.0,0.0,0.0,0.0,0.0,0.0,0.0,0.0,0.0,0.0,0.0,0.0,0.0,0.0,0.0,0.0,0.0,0.0,0.0,0.0,0.0,0.0,0.0,0.0,0.0,0.0,0.0,0.0,0.0,0.0,0.0,0.0,0.0,0.0,0.0,0.0,0.0,0.0,0.0,0.0,0.0,0.0,0.0,0.0,0.0,0.0,0.0,0.0,0.0,0.0,0.0,0.0,0.0,0.0,0.0,0.0,0.0,0.0,0.0,0.0,0.0,0.0,0.0,0.0,0.0,0.0,0.0,0.0,0.0,0.0,0.0,0.0,0.0,0.0,0.0,0.0,0.0,0.0,0.0,0.0,0.0,0.0,0.0,0.0,0.0,0.0,0.0,0.0,0.0,0.0,0.0,0.0,0.0,0.0,0.0,0.0,0.0,0.0,0.0,0.0,0.0,0.0,0.0,0.0,0.0,0.0,0.0,0.0,0.0,0.0,0.0,0.0,0.0,0.0,0.0,0.0,0.0,0.0,0.0,0.0,0.0,0.0,0.0,0.0,0.0,0.0,0.0,0.0,0.0,0.0,0.0,0.0,0.0,0.0,0.0,0.0,0.0,0.0,0.0,0.0,0.0,0.0,0.0,0.0,0.0,0.0,0.0,0.0,0.0,0.0,0.0,0.0,0.0,0.0,0.0,0.0,0.0,0.0,0.0,0.0,1.2564,0.0,0.0,0.0,0.0,0.0,0.0,0.0,0.0,0.0,0.0,0.0,0.0,0.0,0.0,0.0,0.0,0.0,0.0,0.0,0.0,0.0,0.0,0.0,0.0,0.0,0.0,0.0,0.0,0.0,0.0,0.0,0.0,0.0,0.0,0.0,0.0,0.0,0.0,0.0,0.0,0.0,0.0,0.0,0.0,0.0,0.0,0.0,0.0,0.0,0.0,0.0,0.0,0.0,0.0,0.0,0.0,0.0,0.0,0.0,0.0,0.0,0.0,0.0,0.0,0.0,0.0,0.0,0.0,0.0,0.0,0.0,0.0,0.0,0.0,0.0,0.0,0.0,0.0,0.0,0.0,0.0,0.0,0.0,0.0,0.0,0.0,0.0,0.0,0.0,0.0,0.0,0.0,0.0,0.0,0.0,0.0,0.0,0.0,0.0,0.0,0.0,0.0,0.0,0.0,0.0,0.0,0.0,0.0,0.0,0.0,0.0,0.0,0.0,0.0,0.0,0.0,1.2541,0.0,0.0,0.0,0.0,0.0,0.0,0.0,0.0,0.0,0.0,0.0,0.0,0.0,0.0,0.0,0.0,0.0,0.0,0.0,0.0,0.0,0.0,0.0,0.0,0.0,0.0,0.0,0.0,0.0,0.0,0.0,0.0,0.0,0.0,0.0,0.0,0.0,0.0,0.0,0.0,0.0,0.0,0.0,0.0,0.0,0.0,0.0,0.0,0.0,0.0,0.0,0.0,0.0,0.0,0.0,0.0,0.0,0.0,0.0,0.0,0.0,0.0,0.0,0.0,0.0,0.0,0.0,0.0,0.0,0.0,0.0,0.0,0.0,0.0,0.0,0.0,0.0,0.0,0.0,0.0,0.0,0.0,0.0,0.0,0.0,0.0,0.0,0.0,0.0,0.0,0.0,0.0,0.0,0.0,0.0,0.0,0.0,0.0,0.0,0.0,0.0,0.0,0.0,0.0,0.0,0.0,0.0,0.0,0.8511,1.0534,1.1439,1.2577,1.4132,1.5766,1.3686,1.3299,1.4015,1.2858,0.0,0.0,0.0,0.0,0.0,0.0,0.0,0.0,0.0,0.0,0.0,0.0,0.0,0.0,0.0,0.0,0.0,0.0,0.0,0.0,0.0,0.0,0.0,0.0,0.0,0.0,0.0,0.0,0.0,0.0,0.0,0.0,0.0,0.0,0.0,0.0,0.0,0.0,1.7322,1.8887,1.8959,1.7765,1.6814,0.0,0.0,0.0,0.0,0.0,0.0,0.0,0.0,0.0,0.0,0.0,0.0,0.0,0.0,0.0,0.0,0.0,0.0,0.0,0.0,0.0,0.0,0.0,0.0,0.0,0.0,0.0,0.0,0.0,0.0,0.0,0.0,0.0,0.0,0.0,0.0,0.0,0.0,0.0,0.0,0.0,0.0,0.0,1.4016,1.284,0.0,0.0,0.0,0.0,0.0,0.0,0.0,0.0,0.0,0.0,0.0,0.0,0.0,-0.0692,0.049,0.084,0.1694,0.304,0.4997,0.7677,1.0975,1.1103,1.1963,1.3442,1.4394,0.0,1.6084,1.5414,0.0,0.0,0.0,0.0,0.0,0.0,0.0,0.0,0.0,0.0,0.0,0.0,0.0,0.0,0.0,0.0,0.0,0.0,0.0,0.0,0.0,0.0,0.0,0.0,0.0,0.0,0.0,0.0,0.0,0.0,0.0,0.0,0.0,0.0,0.0,0.0,1.7841,1.8559,1.8592,2.0017,2.0167,1.9196,1.8927,1.8215,1.7105,1.6183,0.0,0.0,0.0,0.0,0.0,0.0,0.0,0.0,0.0,0.0,0.0,0.0,0.0,0.0,0.0,0.0,0.0,0.0,0.0,0.0,0.0,0.0,0.0,0.0,0.0,0.0,0.0,0.0,0.0,0.0,0.0,0.0,0.0,0.0,0.0,0.0,0.0,0.0,0.0,1.3237,1.2934,1.1302,1.3109,1.3474,0.0,0.0,0.0,0.0,0.0,0.0,0.0,0.0,0.0,-0.4004,-0.466,-0.5029,-0.5256,-0.3277,-0.1351,0.0499,0.3246,0.5557,0.735,0.9475,1.1408,1.3216,1.3575,1.4788,1.6369,1.5286,1.4078,1.2788,0.0,0.0,0.0,0.0,1.1715,1.2287,0.0,0.0,0.0,0.0,0.0,0.0,0.0,0.0,0.0,0.0,0.0,0.0,0.0,0.0,0.0,1.512,0.0,0.0,0.0,0.0,0.0,0.0,0.0,0.0,0.0,0.0,0.0,0.0,1.9043,1.9465,1.9805,2.0903,2.1098,2.051,2.076,1.9783,1.7899,1.7322,1.669,0.0,0.0,0.0,0.0,0.0,0.0,0.0,0.0,0.0,0.0,0.0,0.0,0.0,0.0,0.0,0.0,0.0,0.0,0.0,0.0,0.0,0.0,0.0,0.0,0.0,0.0,0.0,0.0,0.0,0.0,0.0,0.0,0.0,0.0,0.0,0.0,0.0,0.0,1.2373,1.2949,1.0785,1.3059,1.2858,0.0,0.0,0.0,0.0,0.0,0.0,-0.3695,-0.5234,-0.7662,-1.1137,-1.0045,-0.9682,-1.0248,-0.7639,-0.4876,-0.1991,0.0735,0.2887,0.4537,0.735,0.9811,1.1874,1.2196,1.3393,1.5142,1.4554,1.4095,1.3643,1.2724,1.2249,1.2146,1.2661,1.2987,1.347,0.0,0.0,0.0,0.0,0.0,0.0,0.0,0.0,0.0,0.0,0.0,0.0,0.0,0.0,1.7785,1.8669,1.8688,1.8354,0.0,0.0,0.0,0.0,0.0,0.0,0.0,0.0,0.0,1.9243,2.0023,2.0554,2.083,2.1582,2.2027,2.2167,2.1998,2.1714,2.1118,1.7642,1.7244,1.8625,0.0,0.0,0.0,0.0,0.0,0.0,0.0,0.0,0.0,0.0,0.0,0.0,0.0,0.0,0.0,0.0,0.0,0.0,0.0,0.0,0.0,0.0,0.0,0.0,0.0,0.0,0.0,0.0,0.0,0.0,0.0,0.0,0.0,0.0,0.0,0.0,0.0,0.0,0.0,1.3657,1.2809,0.0,0.0,0.0,0.0,-0.4268,-0.589,-0.7123,-0.8308,-1.3685,-1.7492,-1.9167,-1.7071,-1.4953,-1.2903,-1.2355,-0.9461,-0.4303,-0.4014,-0.1024,0.4254,0.4584,0.5797,0.7765,1.0386,1.1688,1.2098,1.3946,1.445,1.3987,1.2892,1.2088,1.1551,1.1576,1.2194,1.3253,0.0,0.0,0.0,0.0,0.0,0.0,0.0,0.0,0.0,0.0,0.0,0.0,0.0,1.7424,1.8905,2.0279,2.0777,2.0459,1.9258,0.0,0.0,0.0,0.0,0.0,0.0,0.0,1.9868,2.0655,2.0989,2.0943,2.0594,2.1549,2.1546,2.0723,2.1237,2.1233,2.0722,1.9379,1.8799,1.867,1.71,1.561,0.0,0.0,0.0,0.0,0.0,0.0,0.0,0.0,0.0,0.0,0.0,0.0,0.0,0.0,0.0,0.0,0.0,0.0,0.0,0.0,0.0,0.0,0.0,0.0,0.0,0.0,0.0,0.0,0.0,0.0,0.0,0.0,0.0,0.0,0.0,0.0,0.0,0.8501,0.9013,0.0,-0.1534,-0.4916,-0.8118,-1.1795,-1.2145,-1.2976,-1.4642,-1.6725,-1.8462,-1.9774,-1.8234,-1.638,-1.4258,-1.2493,-0.9795,-0.6309,-0.5045,-0.2369,0.1489,0.1544,0.2514,0.4147,0.6149,0.8416,1.0797,1.1795,1.2885,1.3885,1.3485,1.3418,1.3543,1.396,1.4787,1.5761,0.0,0.0,0.0,0.0,0.0,0.0,0.0,0.0,0.0,0.0,0.0,1.5274,1.7756,1.9192,2.0646,2.2273,2.2306,2.1582,2.0023,0.0,0.0,0.0,0.0,0.0,0.0,2.0712,2.1018,2.1228,2.1544,2.1321,2.0565,2.1177,2.0964,2.0157,2.0563,2.0543,2.0161,1.9933,1.9754,1.9586,1.8925,1.7968,1.6824,0.0,0.0,0.0,0.0,0.0,0.0,0.0,0.0,0.0,0.0,0.0,0.0,0.0,0.0,0.0,0.0,0.0,0.0,0.0,0.0,0.0,0.0,0.0,0.0,0.0,0.0,0.0,0.0,0.0,0.0,0.0,0.0,0.0,0.0,0.0,0.216,0.2546,0.3382,0.1563,-0.4469,-0.9475,-1.3594,-1.6655,-1.6591,-1.7495,-2.0001,-1.98,-2.0259,-2.1569,-1.9838,-1.7972,-1.6108,-1.3714,-1.1036,-0.8152,-0.6313,-0.4048,-0.1502,-0.1001,0.0055,0.1531,0.3222,0.5624,0.8345,0.9577,1.0989,1.2503,1.3188,1.3841,1.4437,1.5274,1.6139,1.6902,0.0,0.0,0.0,0.0,0.0,0.0,0.0,0.0,0.0,0.0,1.4582,1.6705,2.0557,2.1862,2.3082,2.4639,2.3145,2.1399,1.9691,1.9623,0.0,0.0,0.0,0.0,1.8728,2.1243,2.1875,2.0411,2.1526,2.1627,2.0729,2.0388,2.0332,2.055,1.9885,1.9625,1.9588,1.9011,1.9825,2.1352,1.9594,2.0196,2.168,0.0,0.0,0.0,0.0,0.0,0.0,0.0,0.0,0.0,0.0,0.0,0.0,0.0,0.0,0.0,0.0,0.0,0.0,0.0,0.0,0.0,0.0,0.0,0.0,0.0,0.0,0.0,0.0,0.0,0.0,0.0,0.0,0.0,-0.2326,0.2111,0.3039,-0.3681,-0.4097,-0.4702,-0.7059,-1.1316,-1.52,-1.8396,-1.8908,-2.0519,-2.3889,-2.3125,-2.3375,-2.5084,-2.2277,-2.0055,-1.8509,-1.6373,-1.3493,-0.9924,-0.8166,-0.6298,-0.4428,-0.2959,-0.1503,-0.0056,0.1931,0.3452,0.4685,0.7406,0.8971,0.9834,1.203,1.3228,1.3946,1.5027,1.5823,1.6464,0.0,0.0,0.0,0.0,0.0,0.0,0.0,0.0,0.0,0.0,1.4782,1.7085,1.9968,2.1176,2.243,2.4078,2.055,1.7225,1.4873,0.0,0.0,0.0,0.0,0.0,0.5687,1.1986,1.3565,1.0029,1.7544,1.9799,1.7079,1.76,1.7296,1.625,1.5735,1.5839,1.6302,1.6373,1.6583,1.7202,1.9577,2.1008,2.1586,0.0,0.0,0.0,0.0,0.0,0.0,0.0,0.0,0.0,0.0,0.0,0.0,0.0,0.0,0.0,0.0,0.0,0.0,0.0,0.0,0.0,0.0,0.0,0.0,0.0,0.0,0.0,0.0,0.0,0.0,0.0,0.0,-0.2457,-0.8635,-0.6839,-0.6815,-1.219,-1.2813,-1.3518,-1.5242,-1.5989,-1.7368,-1.9738,-2.0346,-2.1226,-2.2737,-2.3036,-2.3173,-2.3107,-2.2443,-2.0936,-1.8509,-1.5961,-1.3501,-1.1032,-0.8419,-0.6234,-0.4472,-0.4036,-0.3671,-0.313,-0.0388,0.1764,0.3452,0.5011,0.6637,0.8436,1.1006,1.2725,1.3678,1.4036,1.4891,1.5971,0.0,0.0,0.0,0.0,0.0,0.0,0.0,0.0,0.0,0.0,1.4871,1.7023,1.9415,2.0113,2.0539,2.0829,1.6503,1.2544,0.9643,0.0,0.0,0.0,0.0,-0.0625,-0.3628,0.2881,0.5369,0.3424,1.038,1.2523,1.0144,1.2648,1.231,0.9704,1.0306,1.0018,0.9007,0.8098,0.7288,0.6844,0.8373,1.1216,1.4521,1.4185,1.3924,1.4251,1.7976,1.6061,1.1907,1.2703,0.0,0.0,0.0,0.0,0.0,0.0,0.0,0.0,0.0,0.0,0.0,0.0,0.0,0.0,0.0,0.0,0.0,0.0,0.0,0.0,0.0,0.0,0.0,0.0,-0.5033,-0.6809,-1.2845,-1.0954,-1.0844,-1.6095,-1.7241,-1.8271,-1.9932,-1.9976,-2.076,-2.2633,-2.284,-2.3267,-2.4313,-2.397,-2.3681,-2.3516,-2.2475,-2.1015,-1.9129,-1.6006,-1.3488,-1.1705,-0.8639,-0.6467,-0.5102,-0.4741,-0.4577,-0.4373,-0.1781,0.0277,0.1821,0.3733,0.5209,0.0,0.0,0.0,0.0,0.0,1.5037,1.6003,0.0,0.0,0.0,0.0,0.0,0.0,0.0,0.0,0.0,0.0,0.0,1.6317,1.8091,1.7999,1.7156,1.5565,1.0956,0.6577,0.0,0.0,0.0,-0.7203,-0.487,-0.5932,-1.1153,-0.5906,-0.2799,-0.22,0.1121,0.2169,0.1079,0.5148,0.4932,0.1076,0.2661,0.1781,-0.1022,-0.3416,-0.5216,-0.6629,-0.8848,-0.4402,0.3457,0.2628,0.295,0.4975,1.3641,1.1591,0.5124,0.7952,0.0,0.0,0.0,0.0,0.0,0.0,0.0,0.0,0.0,0.0,0.0,0.0,0.0,0.0,0.0,0.0,0.0,0.0,0.0,0.0,0.0,0.0,0.0,0.0,-1.0478,-1.2278,-1.5189,-1.2364,-1.1933,-1.7258,-1.9058,-2.0508,-2.2185,-2.3167,-2.4329,-2.5834,-2.5424,-2.5665,-2.6974,0.0,0.0,0.0,0.0,-2.0682,-1.9643,-1.6186,-1.3683,-1.2135,-0.9017,-0.7082,-0.62,-0.5304,-0.4761,-0.4468,-0.2643,-0.1289,-0.0056,0.2892,0.433,0.4969,0.8306,1.0015,1.0971,1.3976,1.5533,1.6022,0.0,0.0,0.0,0.0,0.0,0.0,0.0,0.0,0.0,1.0732,1.2761,1.3751,1.2764,1.1673,1.0367,0.8806,0.253,-0.403,0.0,0.0,-1.5918,-1.779,-1.6524,-1.7777,-2.2074,-1.3697,-1.1393,-1.5737,-0.8029,-0.5665,-0.8374,-0.7945,-0.8672,-1.0321,-1.1445,-1.171,-1.1408,-1.2803,-1.3857,-1.5003,-1.9296,-1.4497,-0.4624,-0.4024,-0.2817,-0.1198,0.058,0.064,-0.0118,0.02,-0.1488,-0.4267,-0.7649,0.0,0.0,0.0,0.0,0.0,0.0,0.0,0.0,0.0,0.0,0.0,0.0,0.0,0.0,0.0,0.0,0.0,0.0,0.0,0.0,-0.985,-1.1951,-1.3952,-1.4849,-1.6533,-1.8166,-1.938,-2.1674,-2.334,-2.3743,-2.4524,-2.5015,-2.5026,-2.4963,-2.5014,-2.5277,-2.5053,-2.4412,-2.3206,-2.2787,-2.1061,-1.7735,-1.6354,-1.4615,-1.2572,0.0,0.0,-0.7744,-0.6371,-0.5389,-0.4773,-0.4351,-0.3325,-0.1787,0.0749,0.3232,0.5529,0.7976,0.9327,1.0167,1.2445,1.3752,1.4354,0.0,0.0,0.0,0.0,0.0,0.0,0.0,0.0,0.0,0.0,0.8268,0.8556,0.6335,0.5402,0.4077,0.189,-0.4768,0.0,0.0,-1.8262,-2.0119,-2.0956,-2.0834,-2.1763,-2.3969,-1.9872,-1.8474,-2.0052,-1.5857,-1.4494,-1.5773,-1.4385,-1.5441,-1.8473,-1.7971,-1.8935,-2.102,-2.2605,-2.434,-2.6355,-2.9731,-2.7865,-2.2791,-2.0774,-1.672,-1.2293,-1.3794,-1.0871,-0.692,-1.0658,-1.1058,-1.0582,-1.3731,-1.2455,-0.9756,0.0,0.0,0.0,0.0,0.0,0.0,0.0,0.0,0.0,0.0,0.0,0.0,0.0,0.0,-0.9631,0.0,0.0,-1.3497,-1.3348,-1.4983,-1.6718,-1.8154,-2.0279,-2.1669,-2.1696,-2.4303,-2.6009,-2.5746,-2.6544,-2.7038,-2.6905,-2.5871,-2.5575,-2.6443,-2.5052,-2.386,-2.3043,-2.151,-1.9845,-1.7861,-1.5692,-1.3873,-1.2227,-1.0018,-0.8445,-0.7423,-0.6217,-0.5428,-0.4918,-0.4931,-0.4515,-0.3532,-0.006,0.284,0.532,0.6781,0.8112,0.9386,1.1098,1.2415,1.3358,0.0,0.0,0.0,0.0,0.0,0.0,0.0,0.0,0.0,0.0,0.3241,0.281,-0.0542,-0.0966,-0.2351,0.0,0.0,0.0,0.0,-1.9543,-2.1006,-2.1054,-2.179,-2.2389,-2.2726,-2.3506,-2.3165,-2.1695,-2.2293,-2.2614,-2.2641,-2.0108,-2.1369,-2.5662,-2.3599,-2.5277,-2.9727,-3.1673,-3.3829,-3.6066,-3.7635,-3.8376,-3.8272,-3.5614,-2.9927,-2.3615,-2.5373,-2.0611,-1.4377,-2.0031,-1.9579,-1.6931,-1.8408,-1.6729,-1.414,-1.3331,-1.1851,0.0,0.0,0.0,0.0,0.0,0.0,0.0,0.0,0.0,-1.0112,-1.0848,-1.2314,-1.3639,-1.4224,-1.6055,-1.7576,-1.7755,-1.8901,-2.043,-2.2142,-2.3549,-2.4339,-2.4339,-2.6716,-2.8045,-2.7402,-2.8265,-2.8812,-2.8532,-2.6974,-2.6583,-2.7773,-2.5081,-2.3364,-2.3229,-2.0205,-1.844,-1.8076,-1.5062,-1.2921,-1.1683,-0.9867,-0.8274,-0.6814,-0.5862,-0.5321,-0.5087,-0.5106,-0.5003,-0.4402,-0.0673,0.2204,0.4366,0.5449,0.6774,0.835,0.9807,1.1276,1.2539,0.0,0.0,0.0,0.0,0.0,0.0,0.0,0.0,0.0,0.0,0.0,0.0,0.0,0.0,0.0,0.0,0.0,0.0,-1.7423,-1.9251,-2.0391,-2.0563,-2.1409,-2.2079,-2.25,-2.2245,-2.3262,-2.5656,-2.644,-2.7968,-3.0189,-3.0601,-3.1743,-3.3506,-3.4438,-3.5559,-3.6867,-3.8578,-3.9015,-3.8607,-3.9051,-3.8326,-3.682,-3.5522,-3.3269,-3.0532,-2.847,-2.5203,-2.1935,-2.2472,-2.1385,-1.9809,-2.003,-1.8858,-1.711,-1.5753,0.0,-1.1832,-1.0822,-0.9751,-0.8835,-0.8429,-0.9435,-1.0865,0.0,0.0,-1.4206,-1.6071,-1.6108,-1.6373,-1.8326,-2.0248,-2.1514,-2.1713,-2.3898,-2.5265,-2.4462,-2.6181,-2.7564,-2.7564,-2.8574,-2.875,-2.7402,-2.873,-2.8879,-2.6956,-2.7232,-2.7259,-2.6693,-2.5042,-2.3711,-2.3001,-2.0339,-1.8146,-1.6455,-1.511,-1.3411,-1.1254,-1.068,-0.9363,-0.7394,-0.6187,-0.5681,-0.5688,-0.5494,-0.4505,-0.304,-0.1915,0.0122,0.2686,0.4518,0.5656,0.6547,0.8497,1.0156,1.1513,0.0,0.0,0.0,0.0,0.0,0.0,0.0,0.0,0.0,0.0,0.0,0.0,0.0,0.0,0.0,0.0,0.0,0.0,-1.6022,-1.8208,-1.9591,-1.9684,-2.0034,-2.0486,-2.103,-2.0838,-2.1742,-2.3762,-2.5854,-2.7848,-2.9679,-3.114,-3.2652,-3.4134,-3.4724,-3.598,-3.7704,-3.8251,-3.8517,-3.8556,-3.8027,-3.7002,-3.556,-3.3608,-3.1731,-2.996,-2.8599,-2.6025,0.0,0.0,-2.1989,-2.0948,-2.1006,-2.0246,-1.9047,-1.7526,-1.617,0.0,-1.3248,-1.1992,0.0,0.0,-1.2688,-1.3975,-1.5213,-1.6238,-1.7353,-1.8718,-2.0042,-2.1168,-2.2259,-2.3679,-2.4859,0.0,-2.6575,-2.7542,-2.8204,-2.8847,-2.9163,-2.8935,-2.923,-2.895,-2.7843,-2.9051,-2.9129,-2.7335,-2.7484,-2.7537,-2.7229,-2.5558,-2.4248,-2.3295,-2.0246,-1.8019,-1.6619,-1.4743,-1.2627,-1.0444,-1.0162,-0.8933,-0.676,-0.6159,-0.5822,-0.5793,-0.5671,-0.5227,-0.4406,-0.3121,-0.1753,-0.0269,0.2119,0.3677,0.5064,0.7704,0.9319,1.0309,0.0,0.0,0.0,0.0,0.0,0.0,0.0,0.0,0.0,0.0,0.0,0.0,0.0,0.0,0.0,0.0,0.0,0.0,0.0,-1.707,-1.8336,-1.8375,-1.8545,-1.8911,-1.9512,-1.9653,-2.055,-2.2144,-2.4702,-2.671,-2.8132,-2.9615,-3.121,-3.2739,-3.3175,-3.4548,-3.6468,-3.6839,-3.7051,-3.7096,-3.6172,-3.5108,-3.377,-3.1169,-2.9583,-2.8682,-2.7735,-2.5525,0.0,0.0,-2.199,-2.123,-2.1194,-2.0663,-1.9835,-1.8663,-1.7938,-1.7056,-1.5266,0.0,0.0,-1.5251,-1.6459,-1.7657,-1.86,-1.986,-2.1045,-2.186,-2.3606,-2.5011,-2.5289,-2.6347,-2.753,-2.8431,-2.8818,-2.953,-3.1216,-3.0735,-2.9993,-2.9561,-2.9029,-2.8339,-2.7477,-2.8701,-2.8998,-2.7456,-2.7681,-2.7827,-2.7585,-2.6045,-2.4763,-2.3716,-2.0365,-1.802,-1.7,-1.4649,-1.2494,-1.0518,-0.9892,-0.858,-0.6776,-0.6311,-0.601,-0.5864,-0.5864,-0.5771,-0.5666,-0.4411,-0.3391,-0.2374,0.0071,0.2028,0.3866,0.663,0.8315,0.9382,0.0,0.0,0.0,0.0,0.0,0.0,0.0,0.0,0.0,0.0,0.0,0.0,0.0,0.0,0.0,0.0,0.0,0.0,0.0,-1.5898,-1.6523,-1.6584,-1.7144,-1.771,-1.8216,-1.8806,-2.0307,-2.2671,-2.3931,-2.5505,-2.7368,-2.7907,-2.8888,-3.0268,-3.1898,-3.3062,-3.3926,-3.5892,-3.5789,-3.4284,-3.3787,-3.2722,-3.1123,-2.8376,-2.793,-2.8489,-2.6135,0.0,0.0,0.0,-2.1489,-2.0755,-2.0445,-1.9842,0.0,-1.8967,-1.8561,-1.7872,0.0,0.0,-1.863,-1.9027,-2.0561,-2.2255,-2.3246,-2.4563,-2.5708,-2.6233,-2.6588,-2.6924,-2.7144,-2.8138,-2.9235,-3.0184,-3.098,-3.1707,-3.2439,-3.1433,-3.0283,-2.9591,-2.7881,-2.6479,0.0,-2.7385,-2.8004,-2.6627,-2.7777,-2.8144,-2.7326,-2.6323,-2.5339,-2.4307,-2.0722,-1.8267,-1.7317,-1.5123,-1.34,-1.2029,-1.0106,-0.8845,-0.8119,-0.6861,-0.6169,-0.6023,-0.6023,-0.5939,-0.5803,-0.5888,-0.4778,-0.288,-0.1083,0.0937,0.3015,0.5018,0.7069,0.8986,0.0,0.0,0.0,0.0,0.0,0.0,0.0,0.0,0.0,0.0,0.0,0.0,0.0,0.0,0.0,0.0,0.0,0.0,0.0,-1.4747,-1.5676,-1.6417,-1.6665,-1.725,-1.8191,-1.876,-1.9994,-2.1962,-2.3116,-2.461,-2.6314,-2.6906,-2.7709,-2.869,-2.977,-3.0689,-3.1429,-3.2279,-3.2639,-3.2456,-3.0902,-2.9988,-2.9408,-2.7285,-2.6332,-2.6029,0.0,0.0,0.0,0.0,0.0,-1.9832,-1.9591,-1.972,-1.9923,-1.9584,-1.8865,-1.8355,0.0,0.0,-2.1058,-2.2391,-2.3483,-2.4446,-2.5333,-2.6473,-2.7298,-2.7056,-2.7442,-2.7759,-2.7911,-2.8,-2.8678,-3.0439,-3.1417,-3.2397,-3.3667,-3.3441,-3.2392,-3.0168,-2.9326,0.0,0.0,0.0,0.0,-2.5967,-2.7501,-2.817,-2.7352,-2.6971,-2.6057,-2.4329,-2.2067,-2.0072,-1.847,-1.6281,-1.4566,-1.3349,-1.0335,-0.8247,-0.7186,-0.6708,-0.6373,-0.6318,-0.6224,-0.6156,-0.6108,-0.6187,-0.5799,-0.517,-0.4579,-0.2822,-0.0147,0.4434,0.6468,0.717,0.0,0.0,0.0,0.0,0.0,0.0,0.0,0.0,0.0,0.0,0.0,0.0,0.0,0.0,0.0,0.0,0.0,0.0,0.0,0.0,-1.5492,-1.6371,-1.6478,-1.7226,-1.8823,-1.9186,-2.0346,-2.2265,-2.2876,-2.3882,-2.5208,-2.524,-2.5587,-2.6197,-2.7139,-2.7813,-2.8304,-2.8901,-2.9644,-3.0241,-2.8559,-2.8154,-2.8364,-2.6588,-2.575,0.0,0.0,0.0,0.0,0.0,0.0,-1.9508,-1.9236,-1.9611,-2.0049,-1.9575,-1.9661,-2.0202,-2.1787,-2.2955,-2.4172,-2.5725,-2.6476,-2.6988,-2.7566,-2.8044,-2.8179,-2.7463,-2.7895,-2.8153,-2.7417,-2.7485,-2.8182,-2.9954,-3.0382,-3.138,-3.3796,-3.3499,-3.2411,-3.0625,-2.9975,-2.8685,0.0,0.0,0.0,-2.5992,-2.7626,-2.8292,-2.7654,-2.7758,-2.7005,-2.5194,-2.3533,-2.168,-1.9552,-1.7365,-1.5083,-1.2655,-0.9994,-0.8074,-0.6698,-0.6607,-0.6559,-0.6549,-0.6464,-0.6393,-0.6335,-0.6335,-0.6335,-0.6329,-0.6345,-0.4675,-0.1711,0.4157,0.5983,0.5685,0.0,0.0,0.0,0.0,0.0,0.0,0.0,0.0,0.0,0.0,0.0,0.0,0.0,0.0,0.0,0.0,0.0,0.0,0.0,0.0,0.0,-1.6347,-1.6429,-1.7567,-1.9847,-2.0004,-2.1155,-2.3366,-2.3077,-2.332,-2.4003,-2.3106,-2.2798,-2.3032,-2.4254,-2.4815,-2.4892,-2.6078,-2.7053,-2.7714,-2.6833,-2.7071,-2.779,-2.608,0.0,0.0,0.0,0.0,0.0,0.0,0.0,0.0,0.0,-1.9505,-1.9625,-1.917,-2.0998,-2.3364,-2.3991,-2.5737,-2.762,-2.8699,-2.939,-2.9779,-2.9716,-2.9239,-2.8486,-2.7452,-2.7833,-2.7804,0.0,0.0,-2.7682,-2.8928,-2.839,-2.9116,-3.2946,-3.1913,-3.0822,0.0,0.0,0.0,0.0,0.0,0.0,-2.6659,0.0,-2.8699,-2.8185,-2.8637,-2.8212,-2.6649,-2.5113,-2.308,-2.0575,-1.8311,-1.4878,-1.0307,-0.9343,-0.8131,-0.6736,-0.6672,-0.6666,-0.6639,-0.6652,-0.6562,-0.6485,-0.6485,-0.6485,-0.6488,-0.6357,-0.4777,-0.192,0.3863,0.5301,0.4794,0.0,0.0,0.0,0.0,0.0,0.0,0.0,0.0,0.0,0.0,0.0,0.0,0.0,0.0,0.0,0.0,0.0,0.0,0.0,0.0,0.0,0.0,0.0,0.0,0.0,0.0,0.0,0.0,0.0,-2.225,-2.276,-2.2735,-2.2738,-2.2832,-2.4254,-2.4861,-2.4937,-2.61,-2.7053,-2.7622,0.0,-2.5372,-2.6024,0.0,0.0,0.0,0.0,0.0,0.0,0.0,0.0,0.0,0.0,-2.0308,-2.1147,-2.1809,-2.3122,-2.4695,-2.6076,-2.7457,-2.8687,-2.939,-2.9679,-2.9578,-2.8725,-2.7783,-2.6905,-2.6284,-2.5432,-2.4952,0.0,0.0,0.0,-2.8777,-2.9901,0.0,-3.3215,-3.3918,0.0,0.0,0.0,-3.124,-2.9,-2.9287,0.0,0.0,-2.8461,-2.8875,-2.8725,-2.885,-2.8385,-2.7287,-2.6422,-2.491,-2.2718,-1.8665,-1.4243,-0.9456,-0.9298,-0.8465,-0.7042,-0.7121,-0.6514,-0.5352,-0.6401,-0.679,-0.6644,-0.6579,-0.6582,-0.6585,-0.6357,-0.5874,-0.4713,-0.0084,0.2519,0.4176,0.0,0.0,0.0,0.0,0.0,0.0,0.0,0.0,0.0,0.0,0.0,0.0,0.0,0.0,0.0,0.0,0.0,0.0,0.0,0.0,0.0,0.0,0.0,0.0,0.0,0.0,0.0,0.0,0.0,0.0,0.0,-2.1428,-2.1253,-2.1429,-2.2589,-2.3185,-2.335,-2.4005,0.0,0.0,0.0,0.0,0.0,0.0,0.0,0.0,0.0,0.0,0.0,0.0,0.0,-2.0709,-2.1116,-2.2014,-2.3096,-2.3928,0.0,-2.6465,-2.7394,-2.8461,-2.939,-2.9716,-2.9603,-2.9051,-2.7695,-2.654,-2.5405,-2.4164,-2.3648,0.0,0.0,0.0,0.0,0.0,0.0,0.0,-3.2243,-3.2954,-3.3092,0.0,-3.2582,0.0,-2.9775,-2.9912,-2.9766,0.0,-2.9139,-2.9202,-2.8938,-2.9164,-2.8948,-2.8142,-2.7824,-2.5993,-2.2645,-1.8657,-1.4754,-1.091,-0.993,-0.9003,-0.8114,-0.6435,-0.5842,-0.6048,0.0,-0.6967,-0.6909,-0.6823,-0.6132,-0.5016,-0.4981,-0.5629,-0.6087,-0.1668,0.1569,0.3976,0.0,0.0,0.0,0.0,0.0,0.0,0.0,0.0,0.0,0.0,0.0,0.0,0.0,0.0,0.0,0.0,0.0,0.0,0.0,0.0,0.0,0.0,0.0,0.0,0.0,0.0,0.0,0.0,0.0,0.0,0.0,0.0,0.0,0.0,0.0,0.0,0.0,0.0,0.0,0.0,0.0,0.0,0.0,0.0,0.0,0.0,0.0,0.0,0.0,0.0,-2.0505,-2.1655,-2.2831,-2.4083,-2.5259,-2.5774,-2.7017,-2.8235,-2.831,-2.9051,-2.9792,-2.9792,-2.9302,-2.836,-2.664,-2.5272,-2.3799,-2.1693,0.0,-2.2817,-2.3044,0.0,-2.4238,-2.6683,0.0,-2.6515,-3.0989,-3.0848,-3.0857,-3.2612,-3.196,-3.1044,-3.0075,-3.0011,-2.9934,-2.9792,-2.9792,-2.9578,-2.9063,-2.9515,-2.9566,-2.9063,-2.8723,-2.6352,-2.168,-1.8575,-1.5715,-1.3253,-1.1075,-0.9931,-0.9461,-0.5992,-0.5723,-0.7907,-0.7419,0.0,-0.7138,-0.6758,-0.5492,-0.3614,-0.2939,-0.4081,-0.5686,-0.1481,0.1279,0.3329,0.0,0.0,0.0,0.0,0.0,0.0,0.0,0.0,0.0,0.0,-0.9282,-0.9913,0.0,0.0,0.0,0.0,0.0,0.0,0.0,0.0,0.0,0.0,0.0,0.0,0.0,0.0,0.0,0.0,0.0,0.0,0.0,0.0,0.0,0.0,0.0,0.0,0.0,0.0,0.0,0.0,0.0,0.0,0.0,0.0,0.0,0.0,0.0,0.0,0.0,0.0,-2.0854,-2.235,-2.3509,-2.5212,-2.6967,-2.7507,-2.8197,-2.8888,-2.9365,-2.9641,-2.9792,-2.9792,-2.9013,-2.7695,-2.5586,-2.3527,0.0,0.0,0.0,-2.0272,-2.1714,-2.2843,0.0,-2.6218,0.0,0.0,0.0,0.0,-3.1555,0.0,0.0,0.0,0.0,0.0,0.0,0.0,0.0,-2.9741,-2.9641,-2.9741,-2.9741,-2.9641,-2.7909,-2.548,-2.2546,-1.9125,-1.6077,-1.343,-1.2135,-1.1087,-1.0112,-0.9324,-0.9243,-0.9723,-0.8335,0.0,-0.7336,-0.5165,-0.527,-0.6426,-0.2175,-0.0853,-0.1136,-0.0279,0.0277,0.0092,0.0,0.0,0.0,0.0,0.0,0.0,0.0,-0.5694,-0.6109,-0.7766,-0.8689,-0.9478,-1.0205,-1.0283,0.0,0.0,0.0,0.0,0.0,0.0,0.0,0.0,0.0,0.0,0.0,0.0,0.0,0.0,0.0,0.0,0.0,0.0,0.0,0.0,0.0,0.0,0.0,0.0,0.0,0.0,0.0,0.0,0.0,0.0,0.0,0.0,0.0,0.0,0.0,0.0,-2.0105,-2.1409,-2.3676,-2.5335,-2.6578,-2.7419,-2.8059,-2.8624,-2.9189,-2.9566,-2.9716,-2.9415,-2.8285,-2.659,-2.4092,0.0,0.0,0.0,0.0,-1.9086,-2.046,0.0,0.0,0.0,0.0,0.0,0.0,0.0,0.0,0.0,0.0,0.0,0.0,0.0,0.0,0.0,0.0,-2.9792,-2.9792,-2.9792,-2.9792,-2.9792,-2.7637,-2.5605,-2.3713,-2.0846,-1.8482,-1.6586,-1.4798,-1.357,-1.3059,-1.2109,-1.1063,-1.0082,-0.9409,0.0,-0.7726,-0.6359,-0.5784,-0.5516,-0.3608,-0.253,-0.2022,-0.1888,-0.1861,-0.2205,0.0,0.0,0.0,0.0,0.0,0.0,0.0,-0.5171,-0.5373,-0.7228,-0.8043,-0.888,-1.0021,-1.0322,-1.0381,0.0,0.0,0.0,0.0,0.0,0.0,0.0,0.0,0.0,0.0,0.0,0.0,0.0,0.0,0.0,0.0,0.0,0.0,0.0,0.0,0.0,0.0,0.0,0.0,0.0,0.0,0.0,0.0,0.0,0.0,0.0,0.0,0.0,0.0,0.0,-1.8734,-1.9542,-2.2346,-2.4053,-2.5249,-2.637,-2.7167,-2.7815,-2.8288,-2.9099,-2.9654,-2.9076,-2.7507,-2.5435,-2.2899,-2.0828,0.0,0.0,-1.7169,-1.8248,-1.8956,0.0,0.0,0.0,0.0,0.0,0.0,0.0,0.0,0.0,0.0,0.0,0.0,0.0,0.0,0.0,0.0,0.0,-2.9792,-2.9792,-2.9792,-2.9792,-2.7879,-2.6322,-2.5373,-2.2882,-2.1176,-2.0189,-1.768,-1.6476,-1.6476,-1.4592,-1.2861,-1.1142,-1.055,0.0,0.0,-0.7969,-0.6686,-0.4927,-0.5698,-0.5468,-0.4785,-0.4498,-0.441,-0.4318,0.0,0.0,0.0,0.0,0.0,0.0,0.0,-0.484,-0.5054,-0.683,-0.7065,-0.7698,-0.9397,-1.0333,-1.0703,0.0,0.0,0.0,0.0,0.0,0.0,0.0,0.0,0.0,0.0,0.0,0.0,0.0,0.0,0.0,0.0,0.0,0.0,0.0,0.0,0.0,0.0,0.0,0.0,0.0,0.0,0.0,0.0,0.0,0.0,0.0,0.0,0.0,0.0,0.0,0.0,-1.6859,-1.7872,-2.0491,-2.332,-2.429,0.0,0.0,-2.6866,-2.8396,-2.9654,-2.9076,-2.6929,-2.4506,-2.2723,0.0,0.0,-1.5484,-1.6202,-1.7143,-1.6859,-1.8491,0.0,0.0,0.0,0.0,0.0,0.0,0.0,0.0,0.0,0.0,0.0,0.0,0.0,0.0,0.0,0.0,-2.9792,-2.9792,-2.9792,-2.9792,-2.8609,-2.7924,-2.782,-2.4513,-2.2814,-2.264,-2.0262,-1.9115,-1.9115,-1.6584,-1.5354,-1.4962,-1.1516,0.0,0.0,-0.8531,-0.7849,-0.765,-0.7772,-0.7595,-0.7262,-0.7219,-0.7073,-0.6743,0.0,0.0,0.0,0.0,0.0,0.0,-0.4947,-0.4601,-0.4678,-0.5828,-0.6592,-0.7472,-0.8596,-0.9571,-1.0186,0.0,0.0,0.0,0.0,0.0,0.0,0.0,0.0,0.0,0.0,0.0,0.0,0.0,0.0,0.0,0.0,0.0,0.0,0.0,0.0,0.0,0.0,0.0,0.0,0.0,0.0,0.0,0.0,0.0,0.0,0.0,0.0,0.0,0.0,0.0,0.0,0.0,-1.5398,-1.6213,0.0,0.0,-2.2567,-2.457,-2.5672,-2.7545,-2.9063,-2.816,-2.6113,-2.3803,-2.1782,0.0,0.0,-1.4802,-1.49,-1.524,-1.5026,-1.6839,-1.8977,0.0,0.0,0.0,0.0,0.0,0.0,0.0,0.0,0.0,0.0,0.0,0.0,0.0,0.0,0.0,-2.9792,-2.9792,-2.9792,-2.9792,-2.8688,-2.8096,-2.8096,-2.6086,-2.4735,-2.4063,-2.2387,-2.1257,-2.0486,-1.8003,-1.6504,-1.5536,-1.3369,0.0,0.0,-0.9422,-0.8741,-0.7952,-0.7959,-0.7868,-0.7721,-0.7675,-0.7429,-0.7275,0.0,0.0,0.0,0.0,0.0,-0.4688,-0.492,-0.4381,-0.4282,-0.528,-0.5989,-0.683,-0.7916,-0.8812,-0.9551,-1.0059,0.0,0.0,0.0,0.0,0.0,0.0,0.0,0.0,0.0,0.0,0.0,0.0,0.0,0.0,0.0,0.0,0.0,0.0,0.0,0.0,0.0,0.0,0.0,0.0,0.0,0.0,0.0,0.0,0.0,0.0,0.0,0.0,0.0,0.0,0.0,0.0,0.0,0.0,0.0,0.0,-1.9529,-2.2032,-2.3494,-2.58,-2.7617,-2.6759,-2.4895,-2.2711,0.0,0.0,-1.5555,-1.3946,-1.3687,-1.3754,-1.3748,-1.549,-1.7557,0.0,0.0,-2.1629,0.0,0.0,0.0,0.0,0.0,0.0,0.0,0.0,0.0,0.0,0.0,0.0,-2.9792,-2.9792,-2.9792,-2.9792,-2.9028,-2.8597,-2.8597,-2.7209,-2.6141,-2.5294,-2.373,-2.261,-2.1756,-1.9314,-1.7732,-1.6757,-1.4715,0.0,0.0,-1.0194,-0.9217,-0.8035,-0.7991,-0.7882,-0.7733,-0.7587,-0.7434,-0.7282,0.0,0.0,0.0,0.0,0.0,0.0,0.0,-0.4164,-0.3876,-0.5491,-0.5202,-0.553,-0.7414,-0.827,-0.8955,-0.9566,0.0,0.0,0.0,0.0,0.0,0.0,0.0,0.0,0.0,0.0,-1.2476,-1.3019,-1.3997,0.0,0.0,0.0,0.0,0.0,0.0,0.0,0.0,0.0,0.0,0.0,0.0,0.0,0.0,0.0,0.0,0.0,0.0,0.0,0.0,0.0,0.0,0.0,0.0,0.0,0.0,0.0,-1.6449,-1.8703,-1.9984,-2.2744,-2.5187,-2.4912,-2.3163,-2.1079,0.0,0.0,-1.4462,-1.2768,-1.2729,-1.3046,-1.3182,-1.4484,-1.6306,-1.8738,-1.9557,0.0,0.0,0.0,0.0,0.0,0.0,0.0,0.0,0.0,0.0,0.0,0.0,0.0,-2.9792,-2.9792,-2.9792,-2.9792,-2.9792,-2.9792,-2.9792,-2.7637,-2.6472,-2.6483,-2.4221,-2.3047,-2.296,-2.0584,-1.9488,0.0,0.0,0.0,0.0,-1.0485,-0.9217,-0.8024,-0.7872,-0.7726,-0.7584,-0.7431,-0.7275,-0.7122,0.0,0.0,0.0,0.0,0.0,0.0,0.0,-0.4639,-0.4663,-0.4801,-0.5754,-0.6739,-0.7564,-0.8451,-0.914,-0.9484,0.0,0.0,0.0,0.0,0.0,0.0,0.0,0.0,0.0,0.0,-1.1861,-1.2027,-1.2729,-1.3233,-1.3544,-1.3589,0.0,0.0,0.0,0.0,0.0,0.0,0.0,0.0,0.0,0.0,0.0,0.0,0.0,0.0,0.0,0.0,0.0,0.0,0.0,0.0,0.0,0.0,0.0,-1.0324,0.0,0.0,-1.7698,-1.9818,-2.1557,-2.14,-2.0024,-1.8342,-1.7049,0.0,-1.2931,-1.204,-1.1632,-1.1554,-1.2024,-1.3099,-1.4707,-1.7056,-1.8233,0.0,0.0,0.0,0.0,0.0,0.0,0.0,0.0,0.0,0.0,0.0,0.0,0.0,-2.9792,-2.9792,-2.9792,-2.9792,-2.9792,-2.9443,-2.8688,-2.7936,-2.686,-2.5294,-2.4628,-2.3424,-2.1845,-2.0215,-1.9047,0.0,0.0,0.0,0.0,-1.2807,-1.1843,-1.056,-0.9598,-0.9037,-0.8769,-0.7788,-0.7807,-0.8253,0.0,0.0,0.0,0.0,0.0,0.0,0.0,-0.5298,-0.5303,-0.5202,-0.6161,-0.6981,-0.7422,-0.8269,-0.8918,-0.9218,0.0,0.0,0.0,0.0,0.0,0.0,0.0,0.0,0.0,-1.0973,-1.1203,-1.1085,-1.1807,-1.2213,-1.2346,-1.2565,-1.2998,-1.3532,-1.3822,0.0,0.0,0.0,0.0,0.0,0.0,0.0,-1.4282,0.0,0.0,0.0,0.0,0.0,0.0,0.0,0.0,0.0,0.0,0.0,0.0,0.0,-0.9943,0.0,0.0,-1.6706,-1.7966,-1.827,-1.7405,0.0,0.0,0.0,-1.1939,-1.1425,-1.0718,-1.0485,-1.1456,-1.2203,-1.3421,-1.567,-1.6944,0.0,0.0,0.0,0.0,0.0,0.0,0.0,0.0,0.0,0.0,0.0,0.0,0.0,-2.9792,-2.9792,-2.9792,-2.9792,-2.9365,-2.8858,-2.8096,-2.7267,-2.6191,-2.4787,-2.4372,-2.3153,-2.1293,-2.0034,-1.8864,0.0,0.0,0.0,0.0,-1.3878,-1.2813,-1.1049,-1.0171,-0.969,-0.9317,-0.8417,-0.8649,-0.9352,0.0,0.0,0.0,0.0,0.0,0.0,0.0,0.0,-0.5953,-0.6487,-0.645,-0.6607,-0.7132,-0.7889,-0.8481,-0.8816,0.0,0.0,0.0,0.0,0.0,0.0,0.0,0.0,0.0,-1.0353,-1.0485,-1.0213,-1.1121,-1.1397,-1.1091,-1.1552,-1.2165,-1.2958,-1.306,-1.3691,-1.4659,-1.4735,-1.4706,-1.4569,-1.3925,-1.3979,0.0,0.0,0.0,0.0,0.0,0.0,0.0,0.0,0.0,0.0,0.0,0.0,0.0,0.0,0.0,0.0,0.0,0.0,0.0,0.0,0.0,0.0,0.0,0.0,0.0,-1.0794,-1.0037,-0.9904,-1.1453,-1.1781,-1.2477,-1.4563,0.0,0.0,0.0,0.0,0.0,0.0,0.0,0.0,0.0,0.0,0.0,0.0,0.0,0.0,-2.9792,-2.9792,-2.9792,-2.9792,-2.8688,-2.8084,-2.8004,-2.5859,-2.4787,-2.4702,-2.3637,-2.2403,-2.1114,-2.0034,-1.8772,0.0,0.0,0.0,0.0,-1.407,-1.2603,-1.0347,-1.0149,-0.9862,-0.9481,-0.9293,-0.9689,-1.0252,0.0,0.0,0.0,0.0,0.0,0.0,0.0,0.0,0.0,0.0,-0.7799,-0.8246,-0.7982,-0.8515,-0.901,0.0,0.0,0.0,0.0,0.0,0.0,0.0,0.0,0.0,0.0,-0.9634,-0.9883,-1.0284,-1.0156,-1.0409,-1.1036,-1.1184,-1.1358,-1.1535,-1.2612,-1.3533,-1.4304,-1.4402,-1.386,-1.2933,-1.2692,-1.2198,0.0,0.0,0.0,0.0,-1.1209,-1.0768,0.0,0.0,0.0,0.0,0.0,0.0,0.0,0.0,-0.6065,-0.6415,-0.7926,0.0,-1.061,-1.1528,-1.1319,0.0,0.0,0.0,0.0,0.0,0.0,0.0,0.0,0.0,0.0,0.0,0.0,0.0,0.0,0.0,0.0,0.0,0.0,0.0,0.0,0.0,0.0,0.0,0.0,-2.9792,-2.9792,-2.9792,-2.9792,-2.9792,-2.8688,-2.7695,-2.6883,-2.5462,-2.4372,-2.3464,-2.3222,-2.1952,-1.9943,-1.9588,-1.8303,0.0,0.0,0.0,-1.5343,-1.5343,-1.4829,-1.4042,-1.2842,-1.2224,-1.1882,-1.068,-1.0771,-1.1492,0.0,0.0,0.0,0.0,0.0,0.0,0.0,0.0,0.0,0.0,0.0,0.0,0.0,0.0,0.0,0.0,0.0,0.0,0.0,0.0,0.0,0.0,0.0,0.0,-0.9408,-0.9442,-0.9509,-0.9678,-0.982,-1.0027,-1.0372,-1.0636,-1.0814,-1.1035,-1.1902,-1.249,-1.2815,-1.2574,-1.2062,-1.1409,-1.1018,0.0,0.0,0.0,0.0,0.0,-0.9818,-0.9426,0.0,-0.8804,-0.8037,-0.7178,0.0,0.0,0.0,0.0,-0.5888,-0.5734,-0.6651,-0.7605,-0.8549,-0.9561,-0.9482,-0.9266,0.0,0.0,0.0,0.0,0.0,0.0,0.0,0.0,0.0,0.0,0.0,0.0,0.0,0.0,0.0,0.0,0.0,0.0,0.0,0.0,0.0,0.0,0.0,-2.8882,-2.7753,-2.8126,-2.8126,-2.7663,-2.6817,-2.6389,-2.6483,-2.5378,-2.4211,-2.3135,-2.3135,-2.1863,-1.9497,-1.9497,-1.8118,0.0,0.0,0.0,-1.5832,-1.5832,-1.5269,-1.4427,-1.3626,-1.3056,-1.2616,-1.1772,-1.202,-1.2669,0.0,0.0,0.0,0.0,0.0,0.0,0.0,0.0,0.0,0.0,0.0,0.0,0.0,0.0,0.0,0.0,0.0,0.0,0.0,0.0,0.0,0.0,0.0,-0.9351,-0.9407,-0.9401,-0.9271,-0.9014,-0.9681,-0.9914,-0.9699,-1.0039,-1.051,-1.1073,-1.1212,-1.1242,-1.1149,-1.0557,-1.0258,-1.0108,-0.9365,0.0,0.0,0.0,0.0,0.0,0.0,0.0,0.0,-0.768,-0.7305,-0.6846,-0.6805,0.0,0.0,0.0,0.0,0.0,-0.6483,-0.7025,-0.7579,-0.8555,-0.8725,-0.8776,-0.9389,0.0,0.0,0.0,0.0,0.0,0.0,0.0,0.0,0.0,0.0,0.0,0.0,0.0,0.0,0.0,0.0,0.0,0.0,0.0,0.0,0.0,0.0,-2.7898,-2.5504,-2.6148,-2.6224,-2.547,-2.469,-2.4973,-2.6113,-2.5094,-2.4049,-2.3135,-2.3135,-2.1863,-1.9497,-1.9497,-1.8118,-1.5832,0.0,0.0,-1.5832,-1.5832,-1.4974,-1.3671,-1.3635,-1.3326,-1.2903,-1.2861,-1.3234,-1.3987,0.0,0.0,0.0,0.0,0.0,0.0,0.0,0.0,0.0,0.0,0.0,0.0,0.0,0.0,0.0,0.0,0.0,0.0,0.0,0.0,0.0,0.0,-0.9015,-0.9074,-0.9473,-0.9163,-0.9147,-0.9505,-0.9278,-0.9544,-1.0176,-0.9873,-1.0303,-1.133,-1.1131,-1.1105,-1.1149,-1.0557,-1.0021,-0.9437,-0.8368,0.0,0.0,0.0,0.0,0.0,0.0,0.0,0.0,-0.6624,-0.6406,-0.6248,-0.5863,0.0,0.0,0.0,0.0,0.0,-0.6182,-0.6657,-0.7211,-0.7826,-0.8133,-0.8436,-0.896,0.0,0.0,0.0,0.0,0.0,0.0,0.0,0.0,0.0,0.0,0.0,0.0,0.0,0.0,0.0,0.0,0.0,0.0,0.0,0.0,0.0,0.0,-2.8124,-2.6474,-2.6514,-2.6514,-2.6375,-2.5538,-2.4886,-2.4551,-2.378,-2.3299,-2.3135,-2.3135,-2.1863,-1.9497,-1.9497,-1.8118,-1.5832,0.0,-1.5832,-1.5832,-1.5832,-1.5564,-1.5088,-1.4845,-1.4543,-1.4222,-1.3979,-1.4407,-1.5128,0.0,0.0,0.0,0.0,0.0,0.0,0.0,0.0,0.0,0.0,0.0,0.0,0.0,0.0,0.0,0.0,0.0,0.0,0.0,0.0,0.0,-0.9264,-0.8968,-0.9024,-0.9485,-0.9151,-0.9173,-0.9592,-0.9678,-1.0042,-1.0677,-1.0623,-1.0844,-1.1323,-1.0912,-1.0739,-1.0728,-1.0097,-0.953,-0.8981,0.0,0.0,0.0,0.0,0.0,0.0,0.0,0.0,0.0,0.0,-0.6431,-0.642,-0.633,0.0,0.0,0.0,0.0,0.0,-0.6712,-0.7037,-0.7393,-0.8193,-0.8549,-0.8745,-0.8894,0.0,0.0,0.0,0.0,0.0,0.0,0.0,0.0,0.0,0.0,0.0,0.0,0.0,0.0,0.0,0.0,0.0,0.0,0.0,0.0,0.0,0.0,0.0,-2.3449,-2.3873,-2.3873,-2.334,-2.3165,-2.2863,-2.2595,-2.2488,-2.2685,-2.3135,-2.3135,-2.2227,-2.0486,-1.9761,-1.8488,-1.6756,0.0,-1.5738,-1.5591,-1.5591,-1.5331,-1.491,-1.4776,-1.4543,-1.4354,-1.4783,-1.582,-1.6974,0.0,0.0,0.0,0.0,0.0,0.0,0.0,0.0,0.0,0.0,0.0,0.0,0.0,0.0,0.0,0.0,0.0,0.0,0.0,0.0,-0.954,-0.9334,-0.9072,-0.9164,-0.9622,-0.9411,-0.9492,-0.9923,-1.0411,-1.074,-1.0988,-1.1263,-1.1323,-1.1219,-1.0862,-1.0625,-1.0483,-0.9868,-0.9357,-0.8871,0.0,0.0,0.0,0.0,0.0,0.0,0.0,0.0,0.0,0.0,0.0,0.0,0.0,0.0,0.0,-0.7897,-0.758,-0.713,-0.7577,-0.7756,-0.7999,-0.8766,0.0,-0.934,-0.9374,0.0,0.0,0.0,0.0,0.0,0.0,0.0,0.0,0.0,0.0,0.0,0.0,0.0,0.0,0.0,0.0,0.0,0.0,0.0,0.0,0.0,0.0,0.0,-2.1031,-2.1593,-2.1669,-2.0934,-2.0968,-2.1123,-2.123,-2.1562,-2.2158,-2.2988,-2.2891,-2.2311,-2.1284,-1.9855,-1.8664,-1.7472,-1.6206,-1.5504,-1.5297,-1.5364,-1.509,-1.4623,-1.4872,-1.4898,-1.4985,-1.6034,-1.7254,-1.8362,0.0,0.0,0.0,0.0,0.0,0.0,0.0,0.0,0.0,0.0,0.0,0.0,0.0,0.0,0.0,0.0,0.0,0.0,0.0,0.0,-0.9138,-0.9124,-0.9276,-0.9579,-1.0046,-1.0144,-1.0417,-1.0891,-1.142,-1.142,-1.0908,-1.1165,-1.1194,-1.1013,-1.1183,-1.1099,-1.0849,-1.0394,-0.9906,-0.9289,-0.8479,0.0,0.0,0.0,0.0,0.0,0.0,0.0,0.0,0.0,0.0,0.0,0.0,0.0,-0.7946,-0.8472,-0.8618,-0.8553,-0.8594,-0.8798,-0.9009,-0.9076,-0.9572,0.0,-1.0707,-1.1129,0.0,-1.097,0.0,0.0,0.0,0.0,0.0,0.0,0.0,0.0,0.0,0.0,0.0,0.0,0.0,0.0,0.0,0.0,0.0,0.0,0.0,0.0,-2.1983,-2.1952,-2.1952,-2.1886,-2.1108,-2.081,-2.123,-2.126,-2.1709,-2.2549,-2.2168,-2.176,-2.1266,-1.9321,-1.8057,-1.7183,-1.5666,-1.5017,-1.5017,-1.5284,-1.5211,-1.5013,-1.6044,-1.6684,-1.7172,-1.831,-1.8547,-1.8439,0.0,0.0,0.0,0.0,0.0,0.0,0.0,0.0,0.0,0.0,0.0,0.0,0.0,0.0,0.0,0.0,0.0,0.0,0.0,0.0,-0.973,-0.9311,-0.9542,-0.9812,-1.0015,-1.0222,-1.0676,-1.1505,-1.1993,-1.2037,-1.164,-1.1708,-1.1642,-1.1401,-1.096,-1.0688,-1.0556,-1.0197,-0.9803,-0.9343,-0.881,-0.8227,0.0,0.0,0.0,0.0,0.0,0.0,0.0,0.0,-0.6431,-0.7037,-0.7564,-0.8246,-0.8918,-0.9119,-0.9199,-0.9199,-0.9199,-0.9471,-0.9717,-0.9717,-1.0575,0.0,0.0,-1.1979,-1.2784,-1.2077,0.0,0.0,0.0,0.0,0.0,0.0,0.0,0.0,0.0,0.0,0.0,0.0,0.0,0.0,0.0,0.0,0.0,0.0,0.0,0.0,-2.1165,-2.1155,-2.1155,-2.1155,-2.0789,-2.0644,-2.082,-2.082,-2.1123,-2.1719,-2.1826,-2.1427,-2.0553,-1.9058,-1.7874,-1.6854,-1.5528,-1.4863,-1.4696,-1.4803,-1.5101,-1.5575,-1.6576,-1.7573,-1.839,-1.8877,-1.934,-1.9763,0.0,0.0,0.0,0.0,0.0,0.0,0.0,0.0,0.0,0.0,0.0,0.0,0.0,0.0,0.0,0.0,0.0,0.0,-1.0026,-1.0184,-1.0042,-0.9581,-0.9767,-0.9985,-1.0204,-1.0367,-1.0932,-1.1955,-1.2533,-1.2529,-1.1959,-1.1922,-1.1723,-1.1415,-1.0818,-1.0508,-1.0371,-1.016,-0.9816,-0.9396,-0.92,-0.8701,0.0,0.0,0.0,0.0,0.0,0.0,0.0,0.0,-0.6861,-0.7718,-0.8043,-0.8756,-0.9518,-0.9716,-0.9755,-0.9755,-0.9755,-0.996,-1.0233,-1.0561,0.0,0.0,-1.199,-1.3158,-1.4137,-1.355,0.0,0.0,0.0,0.0,0.0,0.0,0.0,0.0,0.0,0.0,0.0,0.0,0.0,0.0,0.0,0.0,0.0,0.0,0.0,0.0,0.0,-2.0566,-2.0566,-2.0566,-2.0566,-2.0566,-2.0566,-2.0566,-2.0723,-2.1025,-2.1328,-2.1265,-2.0717,-1.9283,-1.805,-1.7125,-1.5828,-1.5071,-1.4884,-1.4981,-1.5723,-1.6908,-1.7538,-1.855,-1.952,-1.952,-2.0001,-2.0547,0.0,0.0,0.0,0.0,0.0,0.0,0.0,0.0,0.0,0.0,0.0,0.0,0.0,0.0,0.0,0.0,0.0,0.0,-1.0396,-1.0097,-0.9905,-0.9905,-0.9905,-1.0157,-1.0681,-1.0721,-1.1249,-1.2316,-1.308,-1.2868,-1.1691,-1.1691,-1.1401,-1.0897,-1.0897,-1.0691,-1.0396,-1.0396,-0.9995,-0.9422,-0.9764,-0.9437,-0.8761,0.0,0.0,0.0,0.0,0.0,0.0,0.0,-0.7093,-0.8273,-0.86,-0.9079,-0.9597,-1.0118,-1.0283,-1.0322,-1.0322,-1.0322,-1.0586,0.0,0.0,0.0,-1.4136,-1.4952,-1.5407,0.0,0.0,0.0,0.0,0.0,0.0,0.0,0.0,0.0,0.0,0.0,0.0,0.0,0.0,0.0,0.0,0.0,0.0,0.0,0.0,0.0,0.0,-2.0557,-2.0557,-2.0557,-2.0557,-2.0557,-2.0557,-2.0557,-2.0557,-2.0557,-2.0557,-2.1025,-2.1846,-1.9901,-1.86,-1.7937,-1.642,-1.5696,-1.5726,-1.6047,-1.7435,-1.9325,-1.911,-1.9678,-2.0566,-2.0557,-2.0557,-2.0411,0.0,0.0,0.0,0.0,0.0,0.0,0.0,0.0,0.0,0.0,0.0,0.0,0.0,0.0,0.0,0.0,0.0,0.0,-0.9675,-0.9816,-0.9905,-0.9905,-1.0135,-1.0339,-1.0482,-1.1354,-1.1912,-1.2084,-1.2555,-1.2403,-1.1691,-1.1468,-1.1068,-1.0532,-1.0059,-0.9777,-0.9673,-0.9398,-0.9158,-0.8981,-0.9089,-0.8844,-0.8449,0.0,0.0,0.0,0.0,0.0,0.0,0.0,0.0,0.0,-0.8492,-0.9136,-1.0079,-1.0244,-1.0534,-1.0791,-1.0791,-1.153,0.0,0.0,0.0,0.0,0.0,-1.5945,0.0,0.0,0.0,0.0,0.0,0.0,0.0,0.0,0.0,0.0,0.0,0.0,0.0,0.0,0.0,0.0,0.0,0.0,0.0,0.0,0.0,0.0,0.0,-1.9824,-1.9668,-1.9668,-1.9668,-1.9668,-1.9668,-1.9961,-2.0107,-2.0107,-2.0107,-2.0004,-1.9802,-1.9234,-1.8451,-1.7491,-1.7057,-1.6846,-1.6854,-1.7775,-1.8556,-1.9199,-1.9891,-2.0323,-2.0527,-2.0225,-2.0107,-2.0049,0.0,0.0,0.0,0.0,0.0,0.0,0.0,0.0,0.0,0.0,0.0,0.0,0.0,0.0,0.0,0.0,0.0,0.0,0.0,-0.9919,-1.0084,-1.0084,-1.0409,-1.0605,-1.0605,-1.1456,-1.1848,-1.1722,-1.2313,-1.226,-1.1521,-1.122,-1.0855,-1.0371,-0.9699,-0.9408,-0.9381,-0.8981,-0.8734,-0.8606,-0.8734,-0.8606,-0.8301,0.0,0.0,0.0,0.0,0.0,0.0,0.0,0.0,0.0,-0.8654,0.0,-1.039,-1.0784,-1.0935,-1.113,-1.1772,0.0,0.0,0.0,0.0,0.0,0.0,0.0,0.0,0.0,0.0,0.0,0.0,0.0,0.0,0.0,0.0,0.0,0.0,0.0,0.0,0.0,0.0,0.0,0.0,0.0,0.0,0.0,0.0,0.0,0.0,-2.0123,-1.9847,-1.9847,-1.9495,-1.9287,-1.9287,-1.9541,-1.9746,-1.9912,-1.9746,-1.9581,-1.9357,-1.9357,-1.8713,-1.7686,-1.792,-1.7989,-1.8069,-1.9195,-1.9599,-1.9678,-2.0323,-2.0566,-2.0508,-2.0078,-1.9912,-1.9749,0.0,0.0,0.0,0.0,0.0,0.0,0.0,0.0,0.0,0.0,0.0,0.0,0.0,0.0,0.0,0.0,0.0,0.0,0.0,0.0,-1.0494,-1.0494,-1.0821,-1.1001,-1.0977,-1.1242,-1.1341,-1.1265,-1.219,-1.2176,-1.1265,-1.0954,-1.0605,-1.0272,-0.9595,-0.9289,-0.9262,-0.8871,-0.8523,-0.8262,-0.8578,-0.8544,-0.8338,-0.8714,0.0,0.0,0.0,0.0,0.0,0.0,0.0,0.0,-0.8949,-0.9507,-1.0546,-1.1444,-1.1492,-1.1529,-1.3008,0.0,0.0,0.0,0.0,0.0,0.0,0.0,0.0,0.0,0.0,0.0,0.0,0.0,0.0,0.0,0.0,0.0,0.0,0.0,0.0,0.0,0.0,0.0,0.0,0.0,0.0,0.0,0.0,0.0,0.0,-2.1048,-2.0618,-2.0618,-1.9716,-1.9315,-1.9315,-1.9281,-1.9424,-1.9795,-1.9414,-1.9424,-1.9795,-1.9883,-1.9393,-1.8511,-1.8925,-1.9088,-1.9195,-2.0081,-2.0498,-2.0634,-2.0518,-2.0508,-2.0449,-2.0019,-1.9834,-1.9529,0.0,0.0,0.0,0.0,0.0,0.0,0.0,0.0,0.0,0.0,0.0,0.0,0.0,0.0,0.0,0.0,0.0,0.0,0.0,0.0,-1.1093,-1.1093,-1.1571,-1.1743,-1.1527,-1.1846,-1.1666,-1.0991,-1.1416,-1.1393,-1.0977,-1.032,-0.9894,-0.9569,-0.8855,-0.8533,-0.8505,-0.8109,-0.7889,-0.7841,-0.7918,-0.8099,-0.8397,-0.8487,-0.8644,0.0,0.0,0.0,0.0,0.0,0.0,0.0,-0.8736,-0.9566,-1.0888,-1.1096,-1.1959,-1.2887,0.0,-1.4168,0.0,0.0,0.0,0.0,0.0,0.0,0.0,0.0,0.0,0.0,0.0,0.0,0.0,0.0,0.0,0.0,0.0,0.0,0.0,0.0,0.0,0.0,0.0,0.0,0.0,0.0,0.0,0.0,-2.1308,-2.0842,-2.0577,-2.0577,-1.9727,-1.9266,-1.9266,-1.8944,-1.8818,0.0,-1.8818,-1.8828,-1.8936,-1.9609,-1.9946,-2.0091,-1.9841,-1.9937,-2.0187,-1.9759,-1.9961,-2.0527,-2.0185,-2.0059,-2.0,-1.958,-1.9209,-1.8767,0.0,0.0,0.0,0.0,0.0,0.0,0.0,0.0,0.0,0.0,0.0,0.0,0.0,0.0,0.0,0.0,0.0,0.0,0.0,0.0,-1.186,-1.1927,-1.2193,-1.2254,-1.2133,-1.2174,-1.1903,-1.1281,-1.1173,-1.0855,-1.0358,-0.997,-0.9546,-0.9101,-0.8533,-0.829,-0.8262,-0.787,-0.7663,-0.7621,-0.7915,-0.8134,-0.8361,-0.8795,-0.8984,-0.9062,-0.9473,0.0,0.0,0.0,0.0,0.0,0.0,0.0,-1.0888,-1.1826,-1.2508,-1.3215,0.0,0.0,0.0,0.0,0.0,0.0,0.0,0.0,0.0,0.0,0.0,0.0,0.0,0.0,0.0,0.0,0.0,0.0,0.0,0.0,0.0,0.0,0.0,0.0,0.0,0.0,0.0,0.0,0.0,-2.1481,-2.1741,-2.1121,-2.0911,-2.1227,-2.0398,-1.9694,-1.9299,-1.908,-1.8834,-1.8562,-1.8428,-1.8437,-1.8652,-1.9102,-1.9541,-1.9941,-1.9717,-1.9746,-1.9922,-1.9473,-1.9551,-1.9932,-1.9697,-1.9609,-1.9561,-1.9141,-1.8828,-1.8574,0.0,0.0,0.0,0.0,0.0,0.0,0.0,0.0,0.0,0.0,0.0,0.0,0.0,0.0,0.0,0.0,0.0,0.0,0.0,0.0,0.0,-1.2783,-1.2595,-1.2456,-1.2434,-1.2124,-1.1769,-1.1393,-1.0926,-1.0333,0.0,-0.9638,-0.9331,-0.88,-0.8453,-0.8371,-0.8385,-0.7969,-0.7763,-0.781,-0.8219,-0.8398,-0.8538,-0.9312,-0.9489,-0.9402,-0.9979,-0.9515,-0.8654,-0.8898,0.0,0.0,0.0,0.0,-1.0946,-1.2539,-1.2914,-1.3276,0.0,0.0,0.0,0.0,0.0,0.0,0.0,0.0,0.0,0.0,0.0,0.0,0.0,0.0,0.0,0.0,0.0,0.0,0.0,0.0,0.0,0.0,0.0,0.0,0.0,0.0,0.0,0.0,0.0,-2.2272,-2.2171,-2.1494,-2.1332,-2.1849,-2.1054,-2.0231,-1.9253,-1.9207,-1.8916,-1.8418,-1.8066,-1.8086,-1.8418,-1.8418,-1.874,-1.9287,-1.9209,-1.9219,-1.9277,-1.9131,-1.915,-1.9277,-1.9209,-1.918,-1.9131,-1.8769,-1.8594,-1.8477,0.0,0.0,0.0,0.0,0.0,0.0,0.0,0.0,0.0,0.0,0.0,0.0,0.0,0.0,0.0,0.0,0.0,0.0,-1.2285,0.0,0.0,-1.3458,-1.2589,-1.1974,-1.1733,-1.1189,-1.0661,-1.0142,-1.0009,0.0,0.0,0.0,0.0,-0.8868,-0.852,-0.8582,-0.8861,-0.8348,-0.8385,-0.8781,-0.8397,-0.8707,-0.9442,-0.9537,-1.0073,-1.065,-0.9952,-0.9612,-0.9475,-0.9036,-0.8891,0.0,0.0,0.0,-1.1579,-1.1822,-1.285,-1.4046,0.0,0.0,0.0,0.0,0.0,0.0,0.0,0.0,0.0,0.0,0.0,0.0,0.0,0.0,0.0,0.0,0.0,0.0,0.0,0.0,0.0,0.0,0.0,0.0,0.0,0.0,0.0,0.0,-2.1638,-2.2108,-2.1619,-2.1481,-2.145,-2.1524,-2.1187,-2.0349,-1.9132,-1.8869,-1.8291,-1.7549,-1.749,-1.75,-1.7549,-1.7549,-1.8184,-1.9268,-1.8887,-1.8936,-1.9228,-1.8486,-1.8623,-1.9248,-1.8867,-1.8721,-1.8711,-1.8592,-1.8408,-1.8086,0.0,0.0,0.0,0.0,0.0,0.0,0.0,0.0,0.0,0.0,0.0,0.0,0.0,0.0,0.0,-1.2104,-1.2768,-1.3239,-1.3399,-1.3619,-1.3523,-1.3011,-1.2472,-1.1806,-1.1059,-1.0817,-1.0357,-0.9635,0.0,0.0,0.0,-0.8853,-0.8763,0.0,0.0,0.0,-0.897,-0.8765,-0.8749,-0.8883,-0.8955,-0.9372,-0.9932,-0.9926,-1.0345,-1.0845,-1.014,-0.9743,-0.9613,-0.9667,-0.9299,-0.9083,-1.0367,0.0,0.0,0.0,0.0,0.0,0.0,0.0,0.0,0.0,0.0,0.0,0.0,0.0,0.0,0.0,0.0,0.0,0.0,0.0,0.0,0.0,0.0,0.0,0.0,0.0,0.0,0.0,0.0,0.0,0.0,0.0,0.0,0.0,-2.0889,-2.128,-2.1041,-2.1029,-2.1167,-2.1481,-2.1354,-2.0767,-1.9703,-1.9553,-1.8888,-1.762,-1.7204,-1.7021,-1.7031,-1.7275,-1.7822,-1.8564,-1.8369,-1.8398,-1.8545,-1.8164,-1.8232,-1.8555,-1.8359,-1.8281,-1.8281,-1.8281,-1.8164,-1.8008,0.0,0.0,0.0,0.0,0.0,0.0,0.0,0.0,0.0,0.0,0.0,0.0,0.0,0.0,0.0,0.0,-1.3637,-1.4105,-1.4356,-1.4241,-1.37,-1.267,-1.2356,-1.1638,-1.0479,-1.0391,-0.9996,0.0,0.0,0.0,-0.8901,-0.8921,-0.8832,0.0,-0.9023,-0.9228,0.0,0.0,-0.8981,-0.9041,-0.9589,-0.9967,-1.0276,-1.0678,-1.1204,-1.1584,-1.0629,-1.0384,-1.051,-1.0437,-0.985,-0.9448,-1.12,-1.1482,0.0,0.0,0.0,0.0,0.0,0.0,0.0,0.0,0.0,0.0,0.0,0.0,0.0,0.0,0.0,0.0,0.0,0.0,0.0,0.0,0.0,0.0,0.0,0.0,0.0,0.0,0.0,0.0,0.0,0.0,0.0,0.0,-2.0426,-2.0655,-2.0504,-2.0451,-2.0639,-2.1054,-2.1204,-2.0736,-1.9539,-1.9321,-1.85,-1.7215,-1.6743,-1.6621,-1.6738,-1.6953,-1.7402,-1.8008,-1.8008,-1.8008,-1.8008,-1.8008,-1.8008,-1.8008,-1.8008,-1.8008,-1.8008,-1.8008,-1.8008,-1.8008,0.0,0.0,0.0,0.0,0.0,0.0,0.0,0.0,0.0,0.0,0.0,0.0,-1.2685,-1.3008,-1.3286,-1.3613,-1.421,-1.4652,-1.485,-1.4561,-1.3947,-1.302,-1.2301,0.0,-1.0055,-0.9612,-0.9221,0.0,0.0,0.0,-0.8911,-0.8968,-0.918,-0.9534,-0.9554,-0.9824,-1.0147,0.0,0.0,-0.9585,-1.0153,-1.0382,-1.0534,-1.1925,-1.3075,-1.3659,-1.1532,-1.1854,-1.3024,-1.1265,-1.0416,-1.03,-1.1305,-1.1583,-1.167,0.0,0.0,0.0,0.0,0.0,0.0,0.0,0.0,0.0,0.0,0.0,0.0,0.0,0.0,0.0,0.0,0.0,0.0,0.0,0.0,0.0,0.0,0.0,0.0,0.0,0.0,0.0,0.0,0.0,0.0,0.0,-2.0706,-2.0426,-1.9874,-1.9849,-1.9861,-1.9886,-2.0426,-1.977,-1.7767,-1.6808,-1.6059,-1.5537,-1.5958,-1.6318,-1.6719,-1.6318,-1.6816,-1.8008,-1.8008,-1.8008,-1.8008,-1.8008,-1.8008,-1.8008,-1.8008,-1.8008,-1.8008,-1.8008,-1.8008,-1.8008,0.0,0.0,0.0,0.0,0.0,0.0,0.0,0.0,0.0,0.0,0.0,0.0,0.0,-1.34,-1.3832,-1.4119,-1.4534,-1.4822,-1.4904,-1.4785,-1.3987,-1.236,-1.2168,-1.1154,-0.9145,-0.9234,-0.8847,0.0,0.0,-0.787,-0.7762,-0.8075,-0.858,-0.9235,-0.9809,-1.0137,-1.0273,-0.9916,0.0,0.0,0.0,0.0,0.0,0.0,0.0,0.0,0.0,0.0,0.0,-1.2507,-1.1931,-1.1618,-1.2386,-1.2404,-1.2342,-1.3425,0.0,0.0,0.0,0.0,0.0,0.0,0.0,0.0,0.0,0.0,0.0,0.0,0.0,0.0,0.0,0.0,0.0,0.0,0.0,0.0,0.0,0.0,0.0,0.0,0.0,0.0,0.0,0.0,0.0,0.0,0.0,-2.0024,-1.9811,-1.9798,-1.9798,-1.9798,-1.9999,-1.9515,-1.834,-1.7027,-1.6257,-1.6093,-1.5801,-1.5869,-1.6309,-1.6436,-1.6894,-1.7627,-1.7891,-1.8008,-1.8008,-1.8008,-1.8008,-1.8008,-1.8008,-1.8008,-1.8008,-1.8008,-1.8008,-1.8008,0.0,0.0,0.0,0.0,0.0,0.0,0.0,0.0,0.0,0.0,0.0,0.0,0.0,0.0,-1.4404,-1.4644,-1.4873,-1.4992,-1.4992,-1.4947,-1.412,-1.2405,-1.2356,-1.1385,-0.9274,-0.9284,-0.8776,0.0,0.0,0.0,0.0,-0.7434,-0.802,-0.8812,-0.9422,-1.001,0.0,0.0,0.0,-1.0237,0.0,0.0,-1.1501,0.0,0.0,0.0,0.0,0.0,0.0,0.0,-1.3513,-1.3111,-1.3408,0.0,0.0,0.0,0.0,0.0,0.0,0.0,0.0,0.0,0.0,0.0,0.0,0.0,0.0,0.0,0.0,0.0,0.0,0.0,0.0,0.0,0.0,0.0,0.0,0.0,0.0,0.0,0.0,0.0,0.0,0.0,0.0,0.0,0.0,0.0,-1.9798,-1.9798,-1.9798,-1.9798,-1.9579,-1.9097,-1.8328,-1.7079,-1.6379,-1.6151,-1.5633,-1.5723,-1.6289,-1.6445,-1.6904,-1.7598,-1.7744,-1.7881,-1.8008,-1.8008,-1.8008,-1.8008,-1.8008,-1.793,-1.7812,-1.7959,-1.792,-1.7822,0.0,0.0,0.0,0.0,0.0,0.0,0.0,0.0,0.0,-1.3013,0.0,0.0,0.0,0.0,0.0,-1.5183,-1.5195,-1.5189,-1.5189,-1.5008,-1.4382,-1.3249,-1.2882,-1.2015,-1.0515,-0.971,-0.8939,0.0,0.0,0.0,0.0,0.0,-0.7541,-0.8348,-0.8392,-0.9352,-1.0908,0.0,-0.9657,-0.9914,0.0,-1.1928,-1.0914,0.0,0.0,0.0,-1.4662,-1.543,0.0,-1.5613,0.0,0.0,0.0,0.0,0.0,0.0,0.0,0.0,0.0,0.0,0.0,0.0,0.0,0.0,0.0,0.0,0.0,0.0,0.0,0.0,0.0,0.0,0.0,0.0,0.0,0.0,0.0,0.0,0.0,0.0,0.0,0.0,0.0,0.0,0.0,0.0,-1.9773,-1.9786,-1.9798,-1.9798,-1.9798,-1.9798,-1.9097,-1.834,-1.7633,-1.6866,-1.6151,-1.541,-1.541,-1.5879,-1.6719,-1.6279,-1.6787,-1.7988,-1.7578,-1.7637,-1.8008,-1.8008,-1.8008,-1.8008,-1.8008,-1.7764,-1.7451,-1.7861,-1.7754,-1.7461,0.0,0.0,0.0,0.0,0.0,0.0,0.0,0.0,0.0,0.0,0.0,0.0,-1.4513,-1.4849,-1.5113,-1.5251,-1.5185,-1.5151,-1.5189,-1.5008,-1.4289,-1.2957,-1.2772,-1.1923,-1.0248,-0.9614,-0.8939,0.0,0.0,0.0,0.0,0.0,0.0,0.0,-0.8103,-0.9192,-1.0453,-0.9862,0.0,0.0,-1.2341,-1.3143,0.0,0.0,0.0,0.0,0.0,-1.6958,-1.7441,0.0,-1.5978,-1.4872,0.0,0.0,0.0,0.0,0.0,0.0,-1.577,0.0,0.0,0.0,0.0,0.0,0.0,0.0,0.0,0.0,0.0,0.0,0.0,0.0,0.0,0.0,0.0,0.0,0.0,0.0,0.0,0.0,0.0,0.0,0.0,0.0,0.0,0.0,-1.9246,-1.9409,-1.9786,-1.9798,-1.9798,-1.9798,-1.9097,-1.834,-1.7633,-1.6866,-1.6151,-1.541,-1.541,-1.5879,-1.6728,-1.6602,-1.708,-1.8008,-1.7881,-1.79,-1.8008,-1.8008,-1.8008,-1.8008,-1.8008,-1.7939,-1.7852,-1.7969,-1.7939,-1.7852,0.0,0.0,0.0,0.0,0.0,0.0,0.0,0.0,0.0,0.0,0.0,0.0,-1.483,-1.5023,-1.5218,-1.5295,-1.5225,-1.5207,-1.5245,-1.5082,-1.4472,-1.3351,-1.2839,-1.1879,-1.0367,-0.9692,-0.8892,0.0,0.0,0.0,0.0,0.0,0.0,0.0,0.0,0.0,0.0,0.0,0.0,0.0,-1.2587,0.0,0.0,-1.5824,-1.6704,0.0,0.0,0.0,-1.7985,-1.7987,-1.6733,0.0,0.0,0.0,0.0,0.0,0.0,0.0,0.0,0.0,0.0,0.0,0.0,0.0,-1.6036,-1.5924,0.0,0.0,0.0,0.0,0.0,0.0,0.0,0.0,0.0,0.0,0.0,0.0,0.0,0.0,0.0,0.0,0.0,-1.7865,-1.8191,-1.892,-1.8983,-1.9246,-1.9773,-1.9798,-1.9798,-1.9798,-1.9359,-1.8661,-1.7633,-1.7191,-1.6415,-1.541,-1.541,-1.5781,-1.6465,-1.665,-1.7109,-1.7764,-1.7939,-1.8008,-1.8008,-1.8008,-1.8008,-1.8008,-1.8008,-1.79,-1.7773,-1.7949,-1.79,-1.7773,0.0,0.0,0.0,0.0,0.0,0.0,0.0,0.0,0.0,0.0,-1.5647,-1.5654,-1.5181,-1.5245,-1.5346,-1.546,-1.5357,-1.5335,-1.5426,-1.5226,-1.4745,-1.3981,-1.2938,-1.1869,-1.074,-0.9805,0.0,0.0,0.0,0.0,0.0,0.0,0.0,0.0,0.0,0.0,0.0,0.0,0.0,-1.1267,-1.2686,-1.3492,0.0,0.0,-1.6719,0.0,-1.7927,-1.8287,-1.831,-1.8658,-1.7341,0.0,0.0,0.0,0.0,0.0,-1.6113,0.0,0.0,0.0,0.0,0.0,0.0,0.0,-1.5529,-1.5595,-1.5756,0.0,0.0,0.0,0.0,0.0,0.0,0.0,0.0,0.0,0.0,0.0,0.0,0.0,0.0,0.0,-1.7237,-1.7287,-1.7752,-1.8857,-1.8995,-1.9309,-1.9773,-1.9798,-1.9798,-1.9798,-1.9798,-1.9097,-1.7633,-1.7578,-1.6856,-1.541,-1.5459,-1.5713,-1.6152,-1.6602,-1.7041,-1.7471,-1.7852,-1.8008,-1.8008,-1.8008,-1.8008,-1.8008,-1.7959,-1.7744,-1.749,-1.7822,-1.7734,-1.751,-1.1118,0.0,0.0,0.0,0.0,0.0,0.0,0.0,0.0,0.0,-1.5587,-1.5345,-1.5338,-1.5362,-1.5659,-1.6368,-1.5743,-1.5576,-1.6223,-1.547,-1.4586,-1.3653,-1.2817,-1.1917,-1.0879,-0.9584,-0.8816,0.0,0.0,0.0,0.0,0.0,0.0,0.0,0.0,0.0,0.0,0.0,0.0,-1.217,-1.2801,0.0,-1.6034,-1.7169,-1.8223,-1.9087,-1.9328,-1.9373,-1.9239,-1.8268,-1.7637,-1.7099,0.0,0.0,0.0,0.0,0.0,0.0,0.0,0.0,0.0,0.0,0.0,0.0,-1.4875,-1.4967,-1.5191,0.0,0.0,0.0,0.0,0.0,0.0,0.0,0.0,0.0,0.0,0.0,0.0,0.0,0.0,0.0,-1.6672,-1.6685,-1.7149,-1.8279,-1.9158,-1.9698,-1.9798,-1.9798,-1.9798,-1.9798,-1.9798,-1.9097,-1.7633,-1.7578,-1.6856,-1.542,-1.5762,-1.6172,-1.6621,-1.7061,-1.749,-1.7891,-1.7978,-1.8008,-1.8008,-1.8008,-1.8008,-1.7978,-1.7637,-1.7666,-1.7852,-1.7598,-1.7666,-1.79,-1.0784,0.0,0.0,0.0,0.0,0.0,0.0,0.0,0.0,0.0,0.0,-1.5945,0.0,-1.601,-1.6358,-1.7228,-1.6461,-1.6117,-1.6526,-1.5615,-1.4528,-1.3352,-1.2719,-1.1675,-1.0133,-0.9439,-0.8816,0.0,0.0,0.0,0.0,0.0,0.0,0.0,0.0,0.0,0.0,0.0,-1.0788,-1.2084,-1.3087,0.0,-1.7004,-1.8027,-1.8929,-1.969,-1.969,-1.969,-1.9585,-1.8927,-1.8419,0.0,0.0,-1.7319,-1.7273,0.0,-1.68,-1.6891,0.0,0.0,0.0,-1.4968,0.0,0.0,0.0,-1.465,-1.4991,0.0,0.0,0.0,0.0,0.0,0.0,0.0,0.0,0.0,0.0,0.0,0.0,0.0,0.0,0.0,-1.6522,-1.6522,-1.6986,-1.8116,-1.8957,-1.9522,-1.9786,-1.9798,-1.9798,-1.9798,-1.9423,-1.8715,-1.7633,-1.7257,-1.6472,-1.541,-1.5635,-1.5859,-1.6094,-1.6758,-1.7168,-1.7393,-1.7822,-1.8008,-1.7988,-1.7783,-1.7822,-1.7969,-1.7549,-1.7637,-1.7959,-1.7539,-1.7646,-1.8008,-1.0492,0.0,0.0,0.0,0.0,0.0,0.0,0.0,0.0,0.0,0.0,0.0,0.0,0.0,0.0,0.0,-1.773,-1.7142,0.0,0.0,-1.4841,-1.3436,-1.2706,-1.151,-0.9773,-0.9452,-0.8755,0.0,0.0,0.0,0.0,0.0,0.0,0.0,0.0,0.0,0.0,0.0,0.0,-1.2347,0.0,-1.5449,-1.7269,-1.8294,-1.9111,-1.969,-1.969,-1.969,-1.9711,-1.9782,-1.9333,-1.8796,-1.8921,-1.8594,0.0,0.0,0.0,0.0,0.0,0.0,0.0,0.0,0.0,-1.4441,0.0,0.0,0.0,0.0,0.0,0.0,0.0,0.0,0.0,0.0,0.0,0.0,0.0,0.0,0.0,0.0,0.0,0.0,0.0,-1.6559,-1.7061,-1.7978,-1.8656,-1.9208,-1.9623,-1.9748,-1.9798,-1.9798,-1.9097,-1.834,-1.7633,-1.6866,-1.6151,-1.541,-1.5498,-1.5537,-1.5566,-1.6455,-1.6855,-1.6894,-1.7588,-1.7939,-1.7978,-1.7559,-1.7627,-1.7949,-1.7363,-1.749,-1.7949,-1.7441,-1.7578,-1.8008,-1.0686,-1.1021,0.0,0.0,0.0,0.0,0.0,0.0,0.0,0.0,0.0,0.0,0.0,0.0,0.0,0.0,0.0,0.0,-1.8408,0.0,0.0,-1.4416,-1.2927,-1.1851,-1.1274,-0.9669,-0.8442,-0.7619,0.0,0.0,0.0,0.0,0.0,0.0,-0.846,0.0,0.0,0.0,-1.2306,0.0,-1.5147,-1.5881,0.0,-1.7529,-1.8604,-1.969,-1.969,-1.969,-1.9747,0.0,-2.0187,-2.0055,0.0,-2.0439,-2.0695,0.0,0.0,0.0,0.0,0.0,0.0,0.0,-1.4752,0.0,0.0,0.0,0.0,-1.4815,0.0,0.0,0.0,0.0,0.0,0.0,0.0,0.0,0.0,0.0,0.0,0.0,0.0,0.0,0.0,-1.6697,-1.7338,-1.7463,-1.8442,-1.9008,-1.912,-1.9547,-1.9798,-1.9798,-1.9097,-1.834,-1.7633,-1.6866,-1.6151,-1.542,-1.5801,-1.5986,-1.6016,-1.6904,-1.7314,-1.7314,-1.7412,-1.7666,-1.7978,-1.7559,-1.7627,-1.7891,-1.668,-1.6953,-1.791,-1.7109,-1.7324,-1.8008,-1.0756,-1.1096,0.0,0.0,0.0,0.0,0.0,0.0,0.0,0.0,0.0,0.0,0.0,0.0,0.0,0.0,0.0,-1.9176,0.0,0.0,0.0,0.0,-1.2341,0.0,-1.0248,-0.9517,-0.8781,-0.7997,-0.8027,0.0,0.0,0.0,0.0,0.0,-0.9296,0.0,-1.1388,0.0,0.0,0.0,0.0,0.0,0.0,-1.8347,-1.9211,-1.969,-1.969,-1.969,-1.9747,0.0,-2.0483,0.0,0.0,0.0,0.0,0.0,0.0,0.0,0.0,0.0,0.0,0.0,0.0,0.0,-1.5291,0.0,-1.5345,0.0,0.0,0.0,0.0,0.0,0.0,0.0,-1.4394,0.0,0.0,0.0,0.0,0.0,0.0,0.0,0.0,0.0,0.0,0.0,-1.7815,-1.8355,-1.8945,-1.9233,-1.9497,-1.9798,-1.9097,-1.834,-1.7633,-1.6866,-1.6151,-1.541,-1.5596,-1.582,-1.6135,-1.6507,-1.6758,-1.7002,-1.7002,-1.7246,-1.7607,-1.7187,-1.7402,-1.791,-1.6855,-1.709,-1.7939,-1.7334,-1.749,-1.8008,-1.1001,0.0,0.0,0.0,0.0,0.0,0.0,0.0,0.0,0.0,0.0,0.0,-1.8299,-1.8881,0.0,0.0,-2.097,-2.0076,0.0,0.0,-1.5844,0.0,0.0,0.0,0.0,-0.9863,-0.9142,-0.8399,0.0,0.0,0.0,0.0,0.0,0.0,0.0,-1.1233,-1.2361,0.0,0.0,-1.5215,-1.6877,-1.7728,-1.8096,-1.9265,-1.969,-1.969,-1.969,-1.9782,-1.9945,-2.0364,-2.0781,0.0,-2.1323,0.0,0.0,0.0,0.0,0.0,-1.8393,0.0,0.0,0.0,0.0,0.0,0.0,0.0,0.0,0.0,0.0,0.0,0.0,0.0,0.0,0.0,0.0,0.0,0.0,0.0,0.0,0.0,0.0,0.0,0.0,0.0,0.0,-1.6886,-1.7053,-1.7576,-1.8482,-1.8697,-1.8983,-1.9572,-1.9024,-1.834,-1.7633,-1.6866,-1.6151,-1.541,-1.5527,-1.5752,-1.6125,-1.6191,-1.6494,-1.6904,-1.6787,-1.7041,-1.7519,-1.709,-1.7344,-1.7949,-1.7324,-1.7461,-1.7959,-1.7539,-1.7646,-1.8008,-1.1589,-1.252,0.0,0.0,0.0,0.0,0.0,0.0,0.0,0.0,0.0,0.0,0.0,0.0,0.0,0.0,0.0,-2.2758,-2.0845,0.0,-1.8183,0.0,0.0,-1.2599,0.0,0.0,0.0,0.0,0.0,0.0,0.0,0.0,0.0,0.0,0.0,-1.1631,-1.2729,-1.5133,-1.6847,-1.8013,-1.8455,-1.9284,-2.015,0.0,-1.969,-1.969,-1.969,0.0,0.0,-2.0829,-2.1244,0.0,0.0,0.0,0.0,0.0,0.0,0.0,0.0,0.0,0.0,-1.5558,0.0,0.0,0.0,0.0,-1.566,0.0,0.0,0.0,0.0,0.0,0.0,0.0,0.0,0.0,0.0,0.0,0.0,0.0,0.0,0.0,0.0,0.0,0.0,-1.5743,-1.6171,-1.6733,-1.7426,-1.7873,-1.8384,-1.9008,-1.879,-1.834,-1.7633,-1.6866,-1.6151,-1.542,-1.584,-1.6115,-1.6135,-1.6514,-1.6953,-1.7334,-1.6914,-1.7207,-1.7959,-1.7539,-1.7617,-1.8008,-1.7978,-1.7988,-1.7959,-1.7539,-1.7646,-1.8008,0.0,0.0,0.0,0.0,0.0,0.0,0.0,-1.4756,0.0,0.0,0.0,0.0,0.0,-2.1959,-2.2356,0.0,0.0,-2.2003,-2.069,-1.9241,0.0,0.0,0.0,-1.3424,0.0,0.0,0.0,0.0,0.0,0.0,0.0,0.0,0.0,0.0,0.0,-1.2716,0.0,0.0,0.0,0.0,0.0,-2.0051,-2.0698,0.0,0.0,-1.9711,-2.0,-2.0177,0.0,-2.1134,-2.1491,-2.1688,-2.2135,-2.2425,-2.2538,-2.2306,-2.1794,0.0,0.0,0.0,-1.934,-1.7863,0.0,0.0,0.0,0.0,0.0,0.0,0.0,0.0,0.0,0.0,0.0,0.0,0.0,0.0,0.0,0.0,0.0,0.0,0.0,0.0,0.0,0.0,0.0,-1.5693,-1.5818,-1.63,-1.7363,-1.752,-1.8019,-1.897,-1.9267,-1.8821,-1.7633,-1.7357,-1.6631,-1.542,-1.5859,-1.6221,-1.6514,-1.667,-1.6973,-1.7363,-1.6924,-1.7061,-1.7578,-1.7441,-1.7627,-1.8008,-1.8008,-1.8008,-1.7988,-1.7852,-1.7891,-1.8008,-1.3303,0.0,0.0,0.0,0.0,0.0,0.0,0.0,0.0,0.0,-1.8964,0.0,-2.2591,0.0,-2.2529,0.0,-2.2615,-2.1961,-2.0825,-1.9664,0.0,-1.7951,-1.5947,0.0,0.0,0.0,0.0,0.0,0.0,-0.9718,0.0,0.0,0.0,0.0,0.0,0.0,0.0,0.0,-1.8519,0.0,0.0,-2.0685,0.0,0.0,-2.0139,-2.0208,0.0,-2.0649,-2.083,-2.1413,-2.1718,-2.1899,-2.2209,-2.2425,-2.2604,-2.293,-2.2533,-2.2066,-2.2267,-2.1721,0.0,-1.939,-1.9375,0.0,-1.7757,0.0,0.0,0.0,0.0,0.0,0.0,0.0,0.0,0.0,0.0,0.0,0.0,-1.3035,0.0,0.0,0.0,0.0,0.0,0.0,-1.5187,-1.5369,-1.5136,-1.5419,0.0,0.0,-1.7397,-1.8363,-1.9321,-1.9097,-1.7633,-1.7757,-1.7113,-1.5654,-1.625,-1.6689,-1.6963,-1.7262,-1.7437,-1.7578,-1.7451,-1.763,-1.8051,-1.773,-1.7955,-1.8462,-1.8144,-1.8008,-1.8008,-1.8008,-1.8008,-1.8008,0.0,0.0,0.0,0.0,-1.3752,0.0,0.0,0.0,-1.7055,0.0,-2.0274,-2.1275,-2.2978,-2.3784,-2.3601,-2.2187,-2.2729,-2.2601,-2.1288,-2.0475,0.0,0.0,-1.8003,-1.7183,-1.7777,0.0,0.0,0.0,0.0,0.0,0.0,0.0,0.0,0.0,-1.2604,0.0,-1.5506,-1.7563,-1.92,-2.0416,-2.0894,-2.1275,-2.1582,-2.1181,-2.1023,-2.1055,-2.1023,-2.1275,-2.1582,-2.1628,-2.1928,-2.231,-2.231,-2.2344,-2.2529,-2.3373,-2.3331,-2.2968,-2.2534,-2.2102,-2.147,-2.0124,0.0,0.0,0.0,0.0,-1.951,0.0,0.0,0.0,0.0,0.0,0.0,0.0,0.0,0.0,0.0,0.0,0.0,0.0,0.0,0.0,0.0,-1.4097,-1.4323,-1.4743,-1.4218,0.0,0.0,0.0,-1.6616,-1.723,-1.8869,-1.9044,-1.7578,-1.8047,-1.7552,-1.6135,-1.6943,-1.7429,-1.7514,-1.8263,-1.8434,-1.8182,-1.8513,-1.8954,-1.9299,-1.8462,-1.8596,-1.9243,-1.8395,-1.8008,-1.8008,-1.8008,-1.8008,-1.8008,-1.3343,-1.3268,-1.3221,0.0,-1.3772,-1.4194,0.0,0.0,0.0,0.0,-2.1814,-2.3188,-2.5156,-2.454,-2.3711,-2.311,-2.2654,0.0,0.0,0.0,0.0,-2.0703,-1.9199,-1.8535,-1.8946,-1.6291,0.0,-1.489,0.0,0.0,-1.2316,0.0,0.0,0.0,0.0,0.0,-1.6471,-1.8361,-1.9941,-2.129,-2.1781,-2.202,0.0,0.0,-2.1675,-2.1915,-2.1568,-2.1521,-2.1658,-2.2003,-2.2209,-2.231,-2.231,-2.2682,-2.3026,-2.2573,-2.309,-2.3644,-2.2827,-2.2866,-2.2802,-2.15,-2.1186,-2.0872,0.0,0.0,0.0,0.0,0.0,0.0,0.0,0.0,0.0,0.0,0.0,0.0,0.0,0.0,0.0,-1.2572,0.0,0.0,-1.3433,-1.4186,-1.4584,-1.4215,-1.4121,0.0,0.0,0.0,0.0,-1.6466,-1.8128,-1.8274,-1.681,-1.7434,-1.722,-1.6135,-1.6631,-1.7372,-1.8307,-1.8843,-1.9445,-1.9944,-2.0072,-2.0147,-2.0268,-2.0009,-1.9694,-1.9309,-1.9044,-1.8596,-1.8008,-1.8008,-1.8008,-1.8008,-1.3721,0.0,0.0,-1.4187,0.0,0.0,-1.592,0.0,0.0,-2.1625,-2.2389,0.0,-2.4778,-2.4725,-2.4126,-2.296,-2.3164,0.0,-2.1691,0.0,0.0,-2.1291,-2.0819,-2.0318,-1.9805,-1.8036,0.0,-1.6097,0.0,0.0,-1.3539,0.0,0.0,0.0,0.0,-1.5329,0.0,-1.9138,-2.0795,-2.1928,-2.218,0.0,0.0,-2.2003,-2.2077,-2.2282,-2.2003,-2.1899,-2.1957,-2.2209,-2.231,-2.231,-2.231,-2.2598,-2.2853,-2.2442,-2.2744,-2.3158,-2.3062,-2.31,-2.3026,-2.2308,-2.2338,-2.2113,-2.0498,-2.0587,-2.0917,0.0,-2.0146,-1.9549,0.0,0.0,0.0,0.0,0.0,0.0,0.0,0.0,0.0,0.0,-1.2797,0.0,-1.3173,-1.4001,-1.4356,-1.4038,-1.375,0.0,0.0,0.0,0.0,-1.5988,-1.7739,-1.8167,-1.6978,-1.7776,-1.7547,-1.6357,-1.7356,-1.823,-1.8921,-1.9943,-2.0339,-2.0266,-2.0882,-2.1037,-2.0779,-2.0628,-2.0333,-1.9814,-1.9044,-1.8462,-1.8008,-1.8008,-1.8008,-1.8008,0.0,0.0,0.0,0.0,0.0,0.0,0.0,-1.837,0.0,-2.2478,0.0,-2.2741,-2.3389,-2.4504,-2.439,-2.235,0.0,-2.3986,-2.1913,-2.3427,-2.367,-2.1974,-2.2533,-2.2118,-2.0556,-1.9889,-1.8772,0.0,0.0,0.0,0.0,0.0,0.0,0.0,0.0,0.0,0.0,-1.9894,-2.1493,-2.231,-2.231,-2.231,-2.2282,-2.2237,-2.2254,-2.2282,-2.2237,-2.2254,-2.231,-2.231,-2.231,-2.231,-2.231,-2.231,-2.2327,-2.2432,-2.2248,-2.2163,-2.294,-2.293,-2.2739,-2.2787,-2.3206,-2.3161,-2.147,-2.1979,-2.2637,-2.2069,-2.15,-2.1317,0.0,0.0,0.0,0.0,0.0,0.0,0.0,0.0,0.0,0.0,0.0,0.0,-1.3173,-1.3703,-1.3971,0.0,0.0,0.0,0.0,0.0,0.0,-1.5504,-1.7577,-1.8325,-1.7557,0.0,-1.8301,-1.7123,-1.8513,-1.9367,-1.9694,-2.1239,-2.1245,-2.02,-2.1478,-2.1738,-2.1272,-2.0917,-2.0655,-2.0268,-1.8664,-1.8076,-1.8134,-1.8134,-1.8269,-1.8337,0.0,0.0,0.0,0.0,0.0,-2.0757,-2.1734,-2.3151,-2.3969,-2.358,-2.4137,-2.4507,-2.4303,-2.3972,-2.3427,-2.258,-2.3469,0.0,0.0,0.0,0.0,-2.3489,-2.3605,-2.3112,-2.1821,-2.0823,-1.9408,0.0,0.0,0.0,0.0,0.0,0.0,0.0,0.0,0.0,-1.9496,-2.0559,0.0,-2.231,-2.231,-2.231,-2.2254,-2.1869,-2.1957,-2.2254,-2.1853,-2.1957,-2.231,-2.231,-2.231,-2.231,-2.231,-2.231,-2.2168,-2.15,-2.1616,-2.1982,-2.201,-2.2329,-2.2802,-2.331,-2.352,-2.3505,-2.3176,-2.3266,-2.34,-2.3295,-2.3176,-2.2614,-2.0944,0.0,0.0,0.0,0.0,0.0,0.0,0.0,0.0,0.0,0.0,-1.4124,0.0,0.0,0.0,0.0,0.0,0.0,0.0,0.0,0.0,0.0,-1.7093,0.0,0.0,0.0,-1.9132,-1.9346,-1.8892,-1.9681,-2.1428,-2.1753,-2.2139,-2.2541,-2.2774,-2.2822,-2.2687,-2.1966,-2.0846,-1.9431,-1.8395,-1.8462,-1.9044,-1.9044,-1.9562,-2.014,0.0,0.0,0.0,0.0,0.0,0.0,0.0,-2.6145,0.0,-2.4687,-2.3984,-2.3557,-2.3388,-2.3714,-2.3522,-2.2411,-2.4166,-2.4861,-2.3735,-2.4709,-2.5196,-2.4795,-2.4762,0.0,-2.3063,-2.2377,-2.1055,-1.9155,0.0,0.0,0.0,0.0,0.0,0.0,0.0,-1.8,0.0,0.0,0.0,-2.231,-2.231,-2.231,-2.2282,-2.2032,-2.2106,-2.2282,-2.2032,-2.2106,-2.231,-2.231,-2.231,-2.231,-2.231,-2.2135,-2.1794,-2.1181,-2.1067,-2.1139,-2.1167,-2.1665,-2.2233,-2.2532,-2.3116,-2.352,-2.3191,-2.337,-2.3595,-2.3595,-2.3595,-2.3001,-2.0988,-1.9387,0.0,0.0,0.0,0.0,0.0,0.0,0.0,0.0,0.0,0.0,0.0,0.0,0.0,0.0,0.0,0.0,0.0,0.0,0.0,0.0,0.0,0.0,0.0,0.0,0.0,-1.8931,-1.9861,-2.0871,-2.1877,-2.2322,-2.2602,-2.2723,-2.2952,-2.2915,-2.2605,-2.1634,-2.0462,-1.9243,-1.8854,-1.8921,-1.9365,-1.9824,-2.0268,-2.056,0.0,-1.7249,0.0,0.0,-2.3254,0.0,-2.5888,-2.7687,-2.8117,-2.5732,-2.4006,-2.3004,-2.3004,-2.4036,-2.4176,-2.2697,-2.5112,-2.6116,-2.4693,-2.5912,-2.6437,-2.5862,-2.5845,-2.5279,-2.4149,-2.3875,-2.2748,0.0,0.0,0.0,0.0,0.0,0.0,0.0,0.0,0.0,0.0,0.0,-2.2086,-2.2547,-2.2699,-2.2784,-2.275,-2.2598,-2.2547,-2.2513,-2.2361,-2.231,-2.231,-2.231,-2.231,-2.231,-2.231,-2.1974,-2.1521,-2.1118,-2.076,-2.0582,-2.0835,-2.1395,-2.1934,-2.2069,-2.2862,-2.3475,-2.2981,-2.3251,-2.3595,-2.3595,-2.3595,-2.3061,-2.1278,-2.045,0.0,0.0,0.0,0.0,0.0,0.0,0.0,0.0,0.0,0.0,0.0,0.0,0.0,0.0,0.0,0.0,0.0,0.0,0.0,0.0,0.0,-1.7468,-1.7129,0.0,-1.991,-1.9144,-2.0981,-2.2002,-2.2199,-2.2823,-2.2899,-2.251,-2.2949,-2.2767,-2.2157,-2.1253,-2.0333,-1.9562,-1.9562,-1.9694,-1.9944,-2.0655,-2.0974,-2.1175,0.0,0.0,0.0,0.0,0.0,0.0,-2.6143,-2.7428,-2.8085,-2.6723,-2.5827,-2.5304,-2.5304,-2.5423,-2.5245,-2.459,-2.5848,-2.6437,-2.5862,-2.6368,-2.6657,-2.659,-2.659,-2.6068,-2.491,-2.4878,-2.373,0.0,0.0,-1.8825,0.0,0.0,0.0,0.0,0.0,0.0,0.0,-2.2285,-2.2865,-2.3359,-2.4002,-2.4272,-2.4205,-2.3545,-2.3291,-2.3207,-2.2547,-2.231,-2.231,-2.231,-2.231,-2.231,-2.231,-2.1974,-2.1521,-2.1118,-2.1106,-2.1255,-2.1512,-2.2084,-2.2727,-2.3281,-2.3505,-2.3595,-2.3535,-2.355,-2.3595,-2.3595,-2.3595,-2.3026,-2.1063,-2.2088,-2.2372,0.0,0.0,0.0,0.0,0.0,0.0,0.0,0.0,0.0,0.0,-1.504,0.0,0.0,0.0,0.0,0.0,0.0,0.0,-1.438,0.0,-1.8244,-1.9274,-2.0358,-2.1488,-2.2602,-2.2151,-2.2249,-2.3005,-2.3078,-2.3053,-2.3002,-2.3053,-2.2665,-2.1942,-2.1791,-2.1239,-2.0462,-2.0462,-2.0974,-2.169,-2.1753,-2.2249,-2.2958,0.0,0.0,0.0,0.0,0.0,0.0,0.0,-2.7474,-2.7518,-2.6775,-2.6065,-2.5609,-2.5609,-2.5609,-2.5379,-2.4857,-2.5949,-2.6505,-2.6049,-2.6436,-2.6691,-2.6691,-2.6691,-2.6489,-2.6051,-2.5581,-2.4779,0.0,0.0,0.0,0.0,0.0,0.0,0.0,0.0,-2.1622,-2.2507,-2.3407,-2.3897,-2.41,-2.4388,-2.4506,-2.4472,-2.4154,-2.3782,-2.3359,-2.3071,-2.2682,-2.231,-2.231,-2.231,-2.231,-2.231,-2.1811,-2.1294,-2.1535,-2.1292,-2.1039,-2.1539,-2.2173,-2.2783,-2.2981,-2.3325,-2.3595,-2.3595,-2.3595,-2.3595,-2.3595,-2.3595,-2.3355,-2.2592,-2.2458,-2.236,-2.2108,0.0,0.0,0.0,0.0,0.0,0.0,0.0,0.0,0.0,0.0,0.0,0.0,0.0,0.0,0.0,0.0,0.0,-1.4969,0.0,-1.8923,-1.8963,-2.0861,-2.1856,-2.1957,-2.242,-2.2823,-2.3078,-2.3078,-2.3078,-2.3078,-2.3078,-2.2628,-2.1877,-2.1877,-2.1365,-2.0655,-2.1175,-2.1616,-2.1975,-2.2823,-2.3331,-2.374,-2.5459,0.0,-2.515,0.0,-2.6642,-2.6458,-2.7619,-2.7417,-2.7029,-2.6741,-2.6251,-2.593,-2.593,-2.593,-2.5782,-2.5394,-2.6168,-2.6556,-2.6227,-2.6521,-2.6691,-2.6691,-2.6691,0.0,-2.6691,-2.6184,-2.5715,-2.5289,-2.3047,0.0,0.0,0.0,0.0,0.0,-2.2409,-2.32,-2.3758,-2.4483,-2.4814,-2.4831,-2.5082,-2.5167,-2.5101,-2.4898,-2.4492,-2.4019,-2.3799,-2.3376,-2.2919,-2.2699,-2.2784,-2.2919,-2.2699,-2.2153,-2.1711,-2.2173,-2.1817,-2.1395,-2.1859,-2.2458,-2.2951,-2.2951,-2.3266,-2.3595,-2.3595,-2.3595,-2.3595,-2.3595,-2.3595,-2.3595,-2.3595,-2.2862,-2.2547,-2.3445,0.0,0.0,0.0,0.0,0.0,0.0,-1.956,-1.901,-1.769,0.0,0.0,0.0,0.0,0.0,0.0,0.0,0.0,0.0,0.0,0.0,0.0,-2.1219,-2.2151,-2.1752,-2.2698,-2.3078,-2.3078,-2.3078,-2.3078,-2.3078,-2.3078,-2.2763,-2.2261,-2.2261,-2.1877,-2.1416,-2.2002,-2.2357,-2.2613,-2.3654,-2.4104,-2.4318,-2.6742,-2.7177,-2.764,-2.878,-2.8626,-2.8238,-2.7878,-2.7196,-2.6691,-2.6691,-2.6691,-2.6674,-2.6674,-2.6674,-2.6674,-2.6691,-2.6691,-2.6691,-2.6691,-2.6691,-2.6691,0.0,0.0,-2.6691,-2.6691,-2.6691,-2.647,-2.5997,0.0,0.0,-2.3144,0.0,-2.1892,-2.3178,-2.2996,-2.3892,-2.5575,-2.5592,-2.5592,-2.5659,-2.637,-2.6657,-2.659,-2.5862,-2.5592,-2.549,-2.4729,-2.4489,-2.4371,-2.363,-2.3866,-2.4371,-2.3613,-2.3242,-2.3087,-2.3087,-2.2909,-2.2694,-2.2709,-2.3116,-2.3595,-2.3595,-2.3595,-2.3595,-2.3595,-2.3595,-2.3595,-2.3595,-2.3595,-2.3595,-2.3595,-2.3595,-2.358,-2.3595,0.0,0.0,0.0,0.0,0.0,0.0,-1.8452,-1.8086,-1.7996,0.0,0.0,0.0,0.0,0.0,0.0,0.0,0.0,-1.7266,-1.8358,0.0,-2.0665,-2.1769,-2.2585,-2.3065,-2.3065,-2.3078,-2.3078,-2.3078,-2.3078,-2.3078,-2.3078,-2.3065,-2.3078,-2.3078,-2.3078,-2.3078,-2.3065,-2.3428,-2.3991,-2.3991,-2.4343,-2.4883,-2.8949,-2.8571,-2.8151,-2.8508,-2.8066,-2.7623,-2.7487,-2.7012,-2.6691,-2.6691,-2.6691,-2.6691,-2.6691,-2.6691,-2.6691,0.0,-2.7165,-2.7469,0.0,-2.7469,-2.7689,-2.823,-2.7249,-2.6945,-2.7452,-2.6962,-2.6624,-2.647,0.0,0.0,0.0,-2.3895,-2.4463,-2.548,-2.5771,-2.6381,-2.718,-2.718,-2.7,-2.6788,-2.7012,-2.6922,-2.6674,-2.6437,-2.6048,-2.5575,-2.5338,-2.4915,-2.4472,-2.4235,-2.4628,-2.5203,-2.4983,-2.4083,-2.3199,-2.3658,-2.3258,-2.2813,-2.3191,-2.3445,-2.3595,-2.3595,-2.3595,-2.3595,-2.3595,-2.3595,-2.3595,-2.3595,-2.3595,-2.3595,-2.3595,-2.3595,-2.3595,-2.3595,-2.3421,0.0,0.0,0.0,0.0,0.0,-2.1686,-2.1485,0.0,-2.0462,0.0,0.0,0.0,0.0,0.0,0.0,0.0,0.0,-2.0073,0.0,-2.123,-2.2322,-2.2902,-2.3078,-2.3078,-2.3078,-2.3078,-2.3078,-2.3078,-2.3078,-2.3078,-2.3078,-2.3078,-2.3078,-2.3078,-2.3115,-2.3565,-2.3841,-2.4092,-2.482,-2.5197,-2.5372,-2.9391,-2.9029,-2.8535,-2.8263,-2.7823,-2.7478,-2.7316,-2.6962,-2.6691,-2.6691,-2.6691,-2.6691,-2.6691,-2.6691,0.0,-2.7097,-2.7283,-2.7533,-2.7891,-2.7621,-2.7805,-2.8611,-2.7741,-2.7545,-2.8247,-2.7503,0.0,-2.7114,-2.6117,-2.5443,-2.5097,-2.57,-2.6267,-2.6751,-2.7296,-2.7648,-2.7897,-2.7897,-2.7754,-2.75,-2.7348,-2.7147,-2.6906,-2.6758,-2.6404,-2.6015,-2.6015,-2.571,-2.527,-2.5,-2.5406,-2.5964,-2.5693,-2.4827,-2.3967,-2.4377,-2.3825,-2.3101,-2.349,-2.3595,-2.3595,-2.3595,-2.3595,-2.3595,-2.3595,-2.3595,-2.3595,-2.3595,-2.3595,-2.3595,-2.3595,-2.3595,-2.3595,-2.3595,-2.3595,-2.3595,-2.3595,0.0,0.0,0.0,0.0,0.0,0.0,-2.1383,-2.1135,0.0,0.0,0.0,0.0,0.0,0.0,-1.9145,-2.1204,0.0,-2.1794,-2.2686,-2.3078,-2.3078,-2.3078,-2.3078,-2.3078,-2.3078,-2.3078,-2.3078,-2.3078,-2.3078,-2.3078,-2.3078,-2.3078,-2.3128,-2.3766,-2.4117,-2.4418,-2.5272,-2.5737,-2.5925,-2.8376,-2.8665,-2.8691,0.0,-2.789,0.0,-2.7362,-2.6962,-2.6691,-2.6691,-2.6691,-2.6691,-2.6691,-2.6691,-2.7012,-2.7789,0.0,0.0,0.0,-2.7416,-2.7383,-2.8227,-2.8112,-2.8351,-2.8975,-2.8163,-2.7705,-2.7705,-2.708,-2.6708,-2.6589,-2.7098,-2.7299,-2.7204,-2.7712,-2.7954,-2.7982,-2.7982,-2.7954,-2.7897,-2.75,-2.7317,-2.7272,-2.6841,-2.6691,-2.6691,-2.6691,-2.6691,-2.659,-2.5913,-2.6133,-2.6573,-2.5896,-2.5452,-2.5221,-2.5221,-2.443,-2.3595,-2.3595,-2.3595,-2.3595,-2.3595,-2.3595,-2.3595,-2.3595,-2.3595,-2.3595,-2.3595,-2.364,-2.367,-2.367,-2.367,-2.367,-2.367,-2.3625,-2.3595,-2.3595,0.0,0.0,0.0,0.0,0.0,0.0,-2.0894,-2.0893,0.0,0.0,0.0,0.0,0.0,-2.0075,-2.0706,-2.1732,-2.2309,-2.2309,-2.2862,-2.3078,-2.3078,-2.3078,-2.3078,-2.3078,-2.3115,-2.3115,-2.3078,-2.3115,-2.3115,-2.3078,-2.3078,-2.3078,-2.3128,-2.3816,-2.4368,-2.4895,-2.5448,-2.6,-2.6533,0.0,0.0,-2.81,-2.793,-2.79,-2.7757,-2.7367,-2.6962,-2.6691,-2.6691,-2.6691,-2.6691,-2.6691,-2.6691,-2.7232,-2.8586,-2.7994,-2.7712,-2.8086,-2.7931,-2.8408,-2.9733,-2.8106,-2.7765,-2.8958,-2.7655,-2.6962,-2.6962,-2.7215,-2.725,-2.7112,-2.7676,-2.7979,-2.8085,-2.8228,-2.8464,-2.8743,-2.8743,-2.8558,-2.8264,-2.7908,-2.756,-2.7272,-2.6841,-2.6691,-2.6691,-2.6691,-2.6691,-2.6674,-2.6488,-2.6556,-2.6657,-2.6488,-2.5884,-2.5221,-2.5221,-2.443,-2.3595,-2.3595,-2.3595,-2.3595,-2.3595,-2.3595,-2.3595,-2.3595,-2.3595,-2.3595,-2.3595,-2.4029,-2.4343,-2.4343,-2.4343,-2.4343,-2.4343,-2.3939,-2.3595,-2.3595,-2.3595,0.0,0.0,-2.3146,-2.3103,-2.2946,-2.2903,-2.2556,0.0,0.0,0.0,0.0,-1.9876,-2.0075,-2.0706,-2.1732,-2.2309,-2.2309,-2.2862,-2.3078,-2.3078,-2.3078,-2.3078,-2.309,-2.359,-2.3552,-2.3103,-2.3602,-2.354,-2.3078,-2.3078,-2.3078,-2.3178,-2.4243,-2.4707,-2.4946,-2.59,-2.6408,-2.6533,-2.7902,-2.8132,-2.8187,-2.8357,-2.8269,-2.7987,-2.7637,-2.7233,-2.6911,-2.6708,-2.6691,-2.6691,-2.6691,-2.6691,-2.7165,-2.8349,-2.7794,-2.7739,-2.8656,-2.8053,-2.8183,-2.9355,-2.8134,-2.8027,-2.9194,-2.8083,-2.7411,-2.7241,-2.7362,-2.7552,-2.7805,-2.8111,-2.8378,-2.8682,-2.8682,-2.8815,-2.8994,-2.8994,-2.8863,-2.8633,-2.8281,-2.7908,-2.753,-2.7115,-2.6873,-2.6691,-2.6691,-2.6691,-2.6691,-2.6691,-2.6911,-2.7199,-2.7199,-2.6673,-2.6065,-2.6065,-2.5068,-2.3921,-2.3681,-2.3964,-2.4266,-2.4032,-2.3794,-2.3595,-2.3595,-2.3595,-2.3595,-2.3595,-2.4148,-2.4492,-2.4223,-2.4418,-2.4477,-2.4208,-2.361,-2.3266,-2.3565,-2.3355,0.0,-2.3565,-2.3595,-2.3595,-2.3595,-2.3595,-2.3229,-2.2352,-2.1908,0.0,-2.082,-2.0682,-2.0772,-2.1071,-2.187,-2.2435,-2.2686,-2.2927,-2.3078,-2.3078,-2.3078,-2.3215,-2.3527,-2.3577,-2.3577,-2.3527,-2.359,-2.3596,-2.359,-2.3245,-2.3305,-2.368,-2.423,-2.4594,-2.4921,-2.5762,-2.6239,-2.6533,-2.7623,-2.8152,-2.8489,-2.8769,-2.8544,-2.8193,-2.776,-2.7451,-2.7063,-2.6657,-2.6657,-2.6674,-2.659,-2.6775,-2.7165,-2.7909,-2.7433,-2.7729,-2.9118,-2.7944,-2.7546,-2.8259,-2.8103,-2.8431,-2.9315,-2.8655,-2.8194,-2.7897,-2.7619,-2.7805,-2.8394,-2.8446,-2.8682,-2.8994,-2.8994,-2.9067,-2.9159,-2.9049,-2.9067,-2.9135,-2.8619,-2.8237,-2.7926,-2.747,-2.7083,-2.6774,-2.6725,-2.6691,-2.6708,-2.6826,-2.7283,-2.7806,-2.796,-2.7587,-2.7102,-2.7102,-2.5938,-2.4511,-2.3879,-2.4307,-2.4855,-2.4389,-2.3964,-2.3595,-2.3595,-2.3595,-2.3595,-2.3595,-2.4148,-2.4448,-2.3864,-2.4238,-2.4388,-2.3849,-2.3236,-2.2996,-2.3535,0.0,-2.3041,-2.3684,-2.367,-2.364,-2.3744,-2.3655,-2.3377,-2.2875,-2.274,-2.2452,-2.1899,-2.1744,-2.1695,-2.169,-2.2109,-2.2543,-2.3065,-2.3078,-2.3078,-2.3078,-2.3078,-2.3389,-2.3853,-2.3452,-2.3489,-2.3853,-2.3561,-2.3726,-2.4234,-2.3708,-2.3767,-2.4287,-2.4182,-2.4457,-2.4883,-2.541,-2.5963,-2.6533,-2.7604,-2.8152,-2.8338,-2.8114,-2.8017,-2.7743,-2.6992,-2.6811,-2.664,-2.6169,-2.6438,-2.6539,-2.6152,-2.7029,-2.7947,-2.8728,-2.8373,-2.8207,-2.8462,-2.7673,-2.7546,-2.8259,-2.7844,-2.7894,-2.8555,-2.8167,-2.7964,-2.7897,-2.8112,-2.8298,-2.842,-2.8749,-2.8929,-2.8994,-2.8994,-2.936,-2.9971,-2.9287,-2.9402,-2.9929,-2.8837,-2.8368,-2.8264,-2.7542,-2.7272,-2.7147,-2.6808,-2.6691,-2.6793,-2.7435,-2.7688,-2.7943,-2.8602,-2.8042,-2.7102,-2.7102,-2.6463,-2.554,-2.4536,-2.4074,-2.3837,-2.3752,-2.3681,-2.3595,-2.3595,-2.3595,-2.3595,-2.3595,-2.4148,-2.4552,-2.4448,-2.4507,-2.4552,-2.4448,-2.3894,-2.349,-2.3595,0.0,-2.3714,-2.4388,-2.3954,-2.3819,-2.4418,-2.3939,-2.3551,-2.3465,-2.2965,-2.2649,-2.2543,-2.1993,-2.1945,-2.2423,-2.2406,-2.2639,-2.3125,-2.3078,-2.3078,-2.3078,-2.3078,-2.3175,-2.3215,-2.3678,-2.364,-2.3288,-2.4322,-2.4623,-2.435,-2.4838,-2.4724,-2.4345,-2.4747,-2.4857,-2.4883,-2.541,-2.5963,-2.6533,-2.7672,-2.8152,-2.8356,-2.8187,-2.8352,-2.8163,-2.7173,-2.7211,-2.7005,-2.6134,-2.6425,-2.6524,-2.605,-2.6708,-2.7504,-2.8313,-2.8265,-2.8436,-2.9062,-2.8275,-2.7975,-2.8434,-2.8176,-2.8105,-2.8393,-2.8253,-2.8281,-2.8482,-2.842,-2.8515,-2.8725,-2.8929,-2.8994,-2.8994,-2.8994,-2.9195,-2.9567,-2.9622,-2.9622,-2.9557,-2.9644,-2.9314,-2.8706,-2.8533,-2.8111,-2.7605,-2.7843,-2.7655,-2.7418,-2.8197,-2.8721,-2.911,-2.9482,-2.8912,-2.8142,-2.8142,-2.6721,-2.5144,-2.5259,-2.4471,-2.3681,-2.3964,-2.3794,-2.3595,-2.3595,-2.3595,-2.3595,-2.3595,-2.4148,-2.4462,-2.4148,-2.4373,-2.4462,-2.4133,-2.3535,0.0,0.0,-2.331,-2.334,-2.3999,-2.3789,-2.3729,-2.4044,-2.3789,-2.3595,-2.3595,-2.3334,-2.3187,-2.3187,-2.2891,-2.2847,-2.3076,-2.2627,-2.2506,-2.2686,-2.2686,-2.2836,-2.3078,-2.3078,-2.3391,-2.4029,-2.369,-2.3866,-2.4418,-2.4619,-2.4949,-2.5354,-2.5368,-2.5453,-2.5481,-2.5306,-2.5574,-2.6096,-2.636,-2.7022,-2.7855,-2.7588,-2.8116,-2.8356,-2.8169,-2.8464,-2.841,-2.7313,-2.7406,-2.7217,-2.6133,-2.6412,-2.6534,-2.6049,-2.6657,-2.7317,-2.7887,-2.8383,-2.8996,-2.9827,-2.9097,-2.8673,-2.8771,-2.8527,-2.8441,-2.8558,-2.8703,-2.8864,-2.8994,-2.8864,-2.8864,-2.8994,-2.8994,-2.8994,-2.8994,-2.8994,-2.9085,-2.9305,-2.9953,-2.9953,-2.963,-3.0459,-3.0234,-2.9426,-2.9495,-2.8939,-2.8286,-2.8791,-2.8602,-2.8213,-2.8975,-2.9634,-3.0142,-3.0311,-2.9854,-2.9211,-2.9025,-2.6891,-2.4784,-2.5788,-2.4948,-2.3921,-2.4361,-2.4043,-2.3595,-2.3595,-2.3595,-2.3595,-2.3595,-2.4029,-2.4267,-2.3857,-2.4189,-2.4384,-2.3885,0.0,0.0,0.0,-2.3325,-2.331,-2.3789,-2.3969,-2.3999,-2.3849,-2.3834,-2.3774,-2.361,-2.3595,-2.3595,-2.3595,-2.3595,-2.357,-2.3569,-2.3111,-2.2782,-2.2515,-2.2667,-2.2946,-2.3365,-2.3365,-2.4007,-2.5126,-2.4099,-2.4484,-2.5936,-2.5348,-2.5597,-2.651,-2.6399,-2.6517,-2.6673,-2.6117,-2.6523,-2.7387,-2.7248,-2.7967,-2.9002,-2.725,-2.7911,-2.8187,-2.7492,-2.7701,-2.7698,-2.6855,-2.6766,-2.6605,-2.6068,-2.6412,-2.6534,-2.6049,-2.7351,-2.8288,-2.8356,-2.9505,-3.0212,-3.0084,-2.9811,-2.9575,-2.9283,-2.8696,-2.8582,-2.8952,-2.9685,-2.9727,-2.8994,-2.9727,-2.9709,-2.8994,-2.8994,-2.8994,-2.8994,-2.8994,-2.942,-3.0118,-3.0173,-3.0595,-3.1194,-3.0912,-3.0764,-3.0578,-2.9802,-2.9453,-2.9334,-2.9068,-2.8941,-2.9008,-2.977,-3.0074,-3.0226,-3.0903,-3.0615,-2.9888,-2.9194,-2.7189,-2.5288,-2.6014,-2.5366,-2.4552,-2.4597,-2.4073,-2.3595,-2.3595,-2.3595,-2.3595,-2.3595,-2.364,-2.3812,-2.4241,-2.4395,-2.441,-2.4364,0.0,0.0,-2.3666,-2.4118,-2.4462,-2.4507,-2.5091,-2.5226,-2.4567,-2.4507,-2.4283,-2.3655,-2.3595,-2.3595,-2.3595,-2.3595,-2.3629,-2.3663,-2.404,-2.392,-2.3227,-2.3835,-2.4195,-2.4234,-2.4234,-2.4958,-2.6293,-2.5575,-2.5947,-2.7179,-2.7216,-2.7293,-2.7489,-2.8783,-2.8542,-2.7443,-2.7374,-2.7683,-2.8028,-2.74,-2.7967,-2.9002,-2.7216,-2.7532,-2.7621,-2.7332,-2.763,-2.7617,-2.6822,-2.6914,-2.6809,-2.6101,-2.6424,-2.6515,-2.6067,-2.747,-2.8473,-2.8469,-2.9575,-3.0374,-3.0592,-2.9971,-2.9452,-2.9128,-2.8905,-2.9071,-2.9732,-3.0044,-3.0063,-2.9751,-3.0063,-2.9787,-2.8994,-2.9512,-2.9494,-2.9012,-2.9531,-2.9916,-3.0228,-3.0723,-3.1109,-3.1426,-3.1721,-3.1555,-3.1071,-3.0714,-3.0284,-2.9924,-3.0251,-3.0057,-2.9786,-3.0531,-3.048,-3.0243,-3.097,-3.0378,-2.9225,-2.8139,-2.7185,-2.6381,-2.5853,-2.4836,-2.4088,-2.4477,-2.4118,-2.3595,-2.3595,-2.3595,-2.3681,-2.4032,-2.3837,-2.3879,-2.4752,-2.4617,-2.4511,-2.4816,0.0,-2.4307,-2.4116,-2.4021,-2.4148,-2.4537,-2.4477,-2.4597,-2.5181,-2.4477,-2.4059,-2.4223,-2.3834,-2.3789,-2.4223,-2.4238,-2.4209,-2.4279,-2.4834,-2.481,-2.4069,-2.4313,-2.4626,-2.4964,-2.4882,-2.5338,-2.6252,-2.5982,-2.6557,-2.7765,-2.7983,-2.8295,-2.8712,-2.9765,-2.969,-2.8838,-2.926,-2.953,-2.958,-2.9333,-2.9813,-3.0524,-2.7385,-2.7538,-2.7526,-2.7156,-2.7457,-2.7487,-2.6809,-2.6928,-2.6911,-2.6286,-2.6505,-2.6573,-2.6253,-2.7691,-2.8596,-2.8329,-2.971,-3.0448,-3.0145,-2.9522,-2.9101,-2.9015,-2.9009,-2.936,-3.0173,-3.021,-3.021,-3.021,-3.0448,-3.0044,-2.9012,-2.9824,-2.9916,-2.9402,-2.9953,-3.0338,-3.0632,-3.1439,-3.177,-3.1829,-3.2304,-3.2166,-3.1643,-3.1319,-3.0886,-3.0514,-3.1021,-3.0869,-3.0531,-3.1021,-3.0869,-3.0531,-3.1038,-3.0212,-2.8891,-2.8089,-2.7444,-2.6871,-2.6241,-2.5046,-2.4029,-2.4462,-2.4118,-2.3595,-2.3595,-2.3595,-2.3724,-2.4074,-2.3991,-2.4116,-2.5012,-2.5028,-2.4989,-2.5182,-2.4894,-2.4552,-2.4199,-2.4018,-2.4029,-2.4283,-2.4268,-2.4418,-2.4926,-2.4522,-2.4343,-2.4567,-2.4388,-2.4433,-2.4911,-2.4881,-2.5031,-2.5241,-2.5674,-2.5761,-2.5479,-2.523,-2.5348,-2.5742,-2.5835,-2.6348,-2.7301,-2.7248,-2.7875,-2.9086,-2.9045,-2.9415,-3.0095,-3.0884,-3.0948,-3.0569,-3.1041,-3.1201,-3.1112,-3.09,-3.1095,-3.1482,-2.781,-2.8117,-2.8031,-2.6911,-2.7046,-2.7182,-2.6775,-2.6691,-2.6691,-2.6691,-2.6691,-2.6691,-2.6691,-2.8117,-2.8781,-2.7995,-3.0044,-3.0553,-2.8516,-2.8393,-2.8561,-2.8981,-2.8986,-2.936,-3.0173,-3.021,-3.021,-3.021,-3.1017,-3.0595,-2.9012,-2.9843,-3.021,-3.021,-3.021,-3.065,-3.1458,-3.2265,-3.2614,-3.259,-3.2536,-3.2484,-3.2417,-3.1524,-3.119,-3.119,-3.119,-3.119,-3.119,-3.119,-3.119,-3.119,-3.119,-3.0279,-2.9214,-2.9376,-2.7973,-2.6595,-2.7384,-2.6123,-2.4597,-2.4597,-2.4118,-2.3595,-2.361,-2.3595,-2.3595,-2.3595,-2.4032,-2.4592,-2.5105,-2.5652,-2.5815,-2.5297,-2.5221,-2.4831,-2.3767,-2.4193,-2.4373,-2.3684,-2.4792,-2.5076,-2.3759,-2.4837,-2.5345,-2.4642,-2.5255,-2.5615,-2.5615,-2.5615,-2.5914,-2.6572,-2.6587,-2.6901,-2.761,-2.6893,-2.6525,-2.6525,-2.7212,-2.8247,-2.9579,-2.9594,-3.0298,-3.1437,-3.0806,-3.0934,-3.1641,-3.2307,-3.2594,-3.2608,-3.2592,-3.2582,-3.2509,-3.1827,-3.154,-3.1482,-2.7699,-2.7463,-2.7097,-2.6775,-2.6809,-2.6826,-2.6708,-2.6691,-2.6691,-2.6691,-2.6691,-2.6809,-2.708,-2.8817,-2.9636,-2.8829,-3.0159,-3.0085,-2.7774,-2.7884,-2.8099,-2.8233,-2.8724,-2.936,-3.0173,-3.0742,-3.1035,-3.1035,-3.1861,-3.1421,-2.9879,-3.1256,-3.1292,-3.0246,-3.1384,-3.2027,-3.2265,-3.2504,-3.2944,-3.3378,-3.2751,-3.2484,-3.2417,-3.1524,-3.119,-3.119,-3.119,-3.119,-3.119,-3.119,-3.0852,-3.0429,-3.0429,-3.0229,-2.9789,-2.8968,-2.7971,-2.7011,-2.6389,-2.5764,-2.542,-2.5899,-2.4792,-2.3729,-2.4208,-2.3939,-2.3794,-2.4592,-2.4552,-2.4776,-2.5999,-2.6104,-2.5961,-2.5779,-2.5847,-2.548,-2.4343,-2.4383,-2.4717,-2.4971,-2.4956,-2.5315,-2.6288,-2.5914,-2.5719,-2.5989,-2.6183,-2.6093,-2.563,-2.6048,-2.6378,-2.6572,-2.6587,-2.6901,-2.761,-2.7832,-2.7965,-2.798,-2.8492,-2.9053,-2.9609,-2.9912,-3.0337,-3.0821,-3.1106,-3.1591,-3.2361,-3.3014,-3.3316,-3.3329,-3.3811,-3.3457,-3.2571,-3.2369,-3.1936,-3.1482,-2.774,-2.7449,-2.7046,-2.6759,-2.6691,-2.6691,-2.6691,-2.6691,-2.6691,-2.6691,-2.6691,-2.6792,-2.7046,-2.8578,-2.9258,-2.8461,-2.9062,-2.8858,-2.7401,-2.7681,-2.7919,-2.7915,-2.8601,-2.9549,-3.065,-3.0834,-3.1237,-3.1861,-3.2045,-3.1641,-3.0705,-3.2008,-3.21,-3.1201,-3.2173,-3.2797,-3.3073,-3.3073,-3.3268,-3.3494,-3.2777,-3.2384,-3.2144,-3.1449,-3.119,-3.119,-3.119,-3.119,-3.119,-3.119,-3.0903,-3.0548,-3.0548,-3.0268,-2.9811,-2.9026,-2.8365,-2.7736,-2.6946,-2.6547,-2.658,-2.7487,-2.5819,-2.4044,-2.4193,-2.3894,-2.3837,-2.4712,-2.4776,-2.5051,-2.621,-2.6332,-2.6239,-2.608,-2.5938,-2.5496,-2.4587,-2.4564,-2.4731,-2.5181,-2.5091,-2.548,-2.6677,-2.6318,-2.6273,-2.6931,-2.6976,-2.6797,-2.6408,-2.6767,-2.6976,-2.6976,-2.6976,-2.7305,-2.7979,-2.8652,-2.8861,-2.8622,-2.9381,-2.9835,-2.9983,-3.0542,-3.0807,-3.0926,-3.1615,-3.2327,-3.3039,-3.3735,-3.4137,-3.4447,-3.4847,-3.435,-3.3339,-3.3093,-3.2532,-3.1838,-2.793,-2.7827,-2.7589,-2.6826,-2.6691,-2.6691,-2.6691,-2.674,-2.6738,-2.6774,-2.6758,-2.6775,-2.6809,-2.7822,-2.8171,-2.737,-2.7258,-2.7266,-2.7299,-2.7652,-2.7862,-2.7954,-2.8656,-2.9764,-3.1256,-3.0577,-3.0999,-3.2614,-3.1861,-3.1494,-3.1513,-3.2339,-3.2687,-3.2614,-3.2687,-3.3109,-3.3807,-3.3807,-3.3578,-3.3154,-3.2681,-3.2196,-3.1752,-3.1351,-3.119,-3.119,-3.119,-3.119,-3.119,-3.119,-3.119,-3.119,-3.119,-3.0435,-2.9496,-2.9496,-2.9042,-2.8606,-2.8606,-2.8093,-2.7859,-2.8942,-2.7053,-2.4717,-2.4086,-2.3891,-2.4018,-2.4534,-2.5084,-2.5643,-2.6158,-2.6552,-2.6668,-2.6317,-2.571,-2.5147,-2.4745,-2.4672,-2.4686,-2.4746,-2.533,-2.5719,-2.5779,-2.6318,-2.6916,-2.7565,-2.7625,-2.7625,-2.7625,-2.7685,-2.7634,-2.7625,-2.7685,-2.7964,-2.8592,-2.925,-2.931,-2.8786,-3.0013,-3.0597,-3.0612,-3.118,-3.1377,-3.1435,-3.218,-3.2908,-3.3553,-3.4301,-3.5005,-3.5622,-3.5622,-3.5144,-3.4431,-3.3836,-3.3077,-3.2185,-2.8664,-2.8219,-2.7589,-2.6826,-2.6691,-2.6691,-2.6691,-2.6988,-2.7174,-2.7181,-2.7184,-2.73,-2.7623,-2.814,-2.8195,-2.7373,-2.701,-2.6954,-2.7285,-2.7373,-2.7698,-2.8272,-2.9042,-2.9799,-3.0448,-3.0283,-3.0999,-3.2614,-3.243,-3.2339,-3.2375,-3.3164,-3.3201,-3.2632,-3.3256,-3.3642,-3.3807,-3.3807,-3.3578,-3.3154,-3.2681,-3.2196,-3.1752,-3.1351,-3.119,-3.119,-3.119,-3.119,-3.119,-3.119,-3.119,-3.119,-3.119,-3.0699,-3.0107,-3.0107,-2.9673,-2.918,-2.918,-2.8747,-2.8233,-2.7952,-2.7395,-2.6841,-2.6702,-2.624,-2.6029,-2.654,-2.7154,-2.7696,-2.825,-2.7923,-2.741,-2.6994,-2.638,-2.5812,-2.5299,-2.5319,-2.5585,-2.6093,-2.6288,-2.6572,-2.7096,-2.7275,-2.746,-2.761,-2.7625,-2.7625,-2.7625,-2.8083,-2.8128,-2.764,-2.8098,-2.8442,-2.8607,-2.925,-2.9744,-3.0103,-3.0926,-3.13,-3.13,-3.0911,-3.0731,-3.0788,-3.1474,-3.2186,-3.2914,-3.4104,-3.5005,-3.5622,-3.5622,-3.4847,-3.3786,-3.3633,-3.2439,-3.0659,-2.8426,-2.8082,-2.7589,-2.6826,-2.6691,-2.6753,-2.6947,-2.7014,-2.7077,-2.7271,-2.7126,-2.7029,-2.6978,-2.7182,-2.7131,-2.6708,-2.6691,-2.6867,-2.7278,-2.7483,-2.778,-2.8139,-2.8913,-2.9507,-2.9897,-3.01,-3.0999,-3.2614,-3.2614,-3.2816,-3.3183,-3.3605,-3.3587,-3.3201,-3.3605,-3.3807,-3.3807,-3.3807,-3.3447,-3.284,-3.2583,-3.2109,-3.1507,-3.1291,-3.119,-3.119,-3.119,-3.119,-3.119,-3.119,-3.119,-3.119,-3.119,-3.0797,-3.0293,-3.0293,-3.0081,-2.9805,-2.9805,-2.9585,-2.9355,-2.9275,-2.883,-2.818,-2.7252,-2.6992,-2.7068,-2.7624,-2.7683,-2.7815,-2.8345,-2.8095,-2.7748,-2.7602,-2.7326,-2.7001,-2.6489,-2.6443,-2.6547,-2.6591,-2.6871,-2.7186,-2.7595,-2.7625,-2.7625,-2.7625,-2.7625,-2.7625,-2.7625,-2.8233,-2.8278,-2.764,-2.8547,-2.9071,-2.9071,-2.9699,-3.0357,-3.1001,-3.1302,-3.1302,-3.1046,-3.1001,-3.0806,-3.0578,-3.1942,-3.2558,-3.2739,-3.4391,-3.5299,-3.5543,-3.4913,-3.4223,-3.3469,-3.2426,-3.0787,-2.9066,-2.8217,-2.8034,-2.7793,-2.7029,-2.6911,-2.696,-2.7171,-2.697,-2.6919,-2.7262,-2.6996,-2.6654,-2.6267,-2.6168,-2.613,-2.6118,-2.6488,-2.6884,-2.7366,-2.7709,-2.7933,-2.7992,-2.8626,-2.9107,-2.9403,-2.991,-3.0999,-3.2614,-3.2614,-3.3018,-3.3807,-3.3734,-3.3707,-3.3707,-3.3707,-3.3707,-3.3707,-3.3762,-3.3284,-3.2484,-3.2484,-3.1986,-3.119,-3.119,-3.119,-3.119,-3.119,-3.119,-3.119,-3.119,-3.119,-3.119,-3.119,-3.0838,-3.0435,-3.0435,-3.0435,-3.0435,-3.0435,-3.0393,-3.0435,-3.0918,-3.0293,-2.9131,-2.7529,-2.7546,-2.8005,-2.8497,-2.8152,-2.7944,-2.8328,-2.8262,-2.8255,-2.8406,-2.8295,-2.8086,-2.7711,-2.7549,-2.7334,-2.6834,-2.7245,-2.7625,-2.7625,-2.7625,-2.767,-2.7739,-2.7634,-2.7619,-2.7739,-2.8293,-2.8338,-2.7769,-2.8831,-2.952,-2.9729,-3.0148,-3.0687,-3.1302,-3.1422,-3.124,-3.0702,-3.115,-3.1046,-3.0578,-3.2583,-3.312,-3.2739,-3.4768,-3.5515,-3.5278,-3.3955,-3.3334,-3.2918,-3.0694,-2.8942,-2.7802,-2.9065,-2.9013,-2.8715,-2.781,-2.764,-2.7468,-2.6869,-2.7028,-2.7237,-2.7289,-2.7252,-2.72,-2.7121,-2.6805,-2.6598,-2.6623,-2.6657,-2.7002,-2.777,-2.7879,-2.804,-2.8324,-2.8749,-2.8852,-2.8564,-2.9637,-3.0999,-3.2614,-3.2614,-3.3018,-3.3788,-3.3447,-3.3273,-3.3273,-3.3273,-3.3273,-3.3302,-3.3634,-3.3284,-3.2484,-3.2484,-3.1986,-3.119,-3.119,-3.119,-3.119,-3.119,-3.119,-3.119,-3.119,-3.119,-3.119,-3.119,-3.1151,-3.1072,-3.1072,-3.1072,-3.1072,-3.1072,-3.0699,-3.0293,-3.0393,-3.0293,-3.0117,-2.9878,-2.9871,-2.9913,-2.9996,-3.0373,-3.0656,-3.0734,-3.0226,-2.98,-2.9808,-2.8932,-2.8207,-2.8195,-2.7805,-2.7503,-2.7465,-2.7515,-2.7625,-2.7625,-2.7625,-2.7814,-2.8412,-2.7904,-2.7829,-2.8427,-2.8547,-2.8562,-2.8472,-2.8637,-2.9265,-3.0372,-2.9924,-3.0028,-3.0657,-3.124,-3.1422,-3.1375,-3.0866,-3.0597,-3.0563,-3.208,-3.2672,-3.2739,-3.4768,-3.5253,-3.4605,-3.3193,-3.2246,-3.1321,-2.8907,-2.7906,-2.7604,-2.8928,-2.9231,-2.9194,-2.7598,-2.7568,-2.764,-2.7097,-2.6999,-2.6946,-2.6876,-2.6922,-2.6755,-2.6185,-2.6252,-2.6303,-2.632,-2.6539,-2.6959,-2.7514,-2.7577,-2.7717,-2.8102,-2.8464,-2.8565,-2.8402,-2.9582,-3.0558,-3.1274,-3.1715,-3.2339,-3.3128,-3.23,-3.2148,-3.2534,-3.2289,-3.257,-3.3184,-3.3105,-3.284,-3.2484,-3.2196,-3.1733,-3.119,-3.119,-3.119,-3.119,-3.119,-3.119,-3.119,-3.119,-3.119,-3.119,-3.119,-3.119,-3.119,-3.119,-3.119,-3.119,-3.119,-3.1015,-3.0781,-3.0781,-3.0781,-3.0781,-3.0781,-3.0781,-3.0781,-3.0781,-3.0695,-3.0581,-3.0581,-3.0328,-3.0108,-3.0108,-2.9989,-2.9672,-2.9026,-2.8704,-2.8327,-2.768,-2.7625,-2.7775,-2.8113,-2.8143,-2.8427,-2.9101,-2.8861,-2.8831,-2.9131,-2.9146,-2.9146,-2.9146,-2.949,-2.9939,-3.0492,-3.0612,-3.0806,-3.1091,-3.139,-3.133,-3.0956,-3.1046,-3.0866,-3.0578,-3.1989,-3.2363,-3.2167,-3.3811,-3.4301,-3.384,-3.2013,-3.022,-2.858,-2.7517,-2.7064,-2.6973]},{"header":{"parameterUnit":"m.s-1","parameterCategory":1,"la1":30.6,"la2":28.766,"lo1":-90.7593,"lo2":-88.6598,"dy":0.0162,"dx":0.0183,"nx":116,"ny":114,"refTime":"2023-08-15T18:00:00:Z","depth":0,"parameterNumber":3,"parameterNumberName":"V-component_of_WINDS"},"data":[0.0,0.0,0.0,0.0,0.0,0.0,0.0,0.0,0.0,0.0,0.0,0.0,0.0,0.0,0.0,0.0,0.0,0.0,0.0,0.0,0.0,0.0,0.0,0.0,0.0,0.0,0.0,0.0,0.0,0.0,0.0,0.0,0.0,0.0,0.0,0.0,0.0,0.0,0.0,0.0,0.0,0.0,0.0,0.0,0.0,0.0,0.0,0.0,0.0,0.0,0.0,0.0,0.0,0.0,0.0,0.0,0.0,0.0,0.0,0.0,0.0,0.0,0.0,0.0,0.0,0.0,0.0,0.0,0.0,0.0,0.0,0.0,0.0,0.0,0.0,0.0,0.0,0.0,0.0,0.0,0.0,0.0,0.0,0.0,0.0,0.0,0.0,0.0,0.0,0.0,0.0,0.0,0.0,0.0,0.0,0.0,0.0,0.0,0.0,0.0,0.0,0.0,0.0,0.0,0.0,0.0,0.0,0.0,0.0,0.0,0.0,0.0,0.0,0.0,0.0,0.0,0.0,0.0,0.0,0.0,0.0,0.0,0.0,0.0,0.0,0.0,0.0,0.0,0.0,0.0,0.0,0.0,0.0,0.0,0.0,0.0,0.0,0.0,0.0,0.0,0.0,0.0,0.0,0.0,0.0,0.0,0.0,0.0,0.0,0.0,0.0,0.0,0.0,0.0,0.0,0.0,0.0,0.0,0.0,0.0,0.0,0.0,0.0,0.0,0.0,0.0,0.0,0.0,0.0,0.0,0.0,0.0,0.0,0.0,0.0,0.0,0.0,0.0,0.0,0.0,0.0,0.0,0.0,0.0,0.0,0.0,0.0,0.0,0.0,0.0,0.0,0.0,0.0,0.0,0.0,0.0,0.0,0.0,0.0,0.0,0.0,0.0,0.0,0.0,0.0,0.0,0.0,0.0,0.0,0.0,0.0,0.0,0.0,0.0,0.0,0.0,0.0,0.0,0.0,0.0,0.0,0.0,0.0,0.0,0.0,0.0,0.0,0.0,0.0,0.0,0.0,0.0,0.0,0.0,0.0,0.0,0.0,0.0,0.0,0.0,0.0,0.0,0.0,0.0,0.0,0.0,0.0,0.0,0.0,0.0,0.0,0.0,0.0,0.0,0.0,0.0,0.0,0.0,0.0,0.0,0.0,0.0,0.0,0.0,0.0,0.0,0.0,0.0,0.0,0.0,0.0,0.0,0.0,0.0,0.0,0.0,0.0,0.0,0.0,0.0,0.0,0.0,0.0,0.0,0.0,0.0,0.0,0.0,0.0,0.0,0.0,0.0,0.0,0.0,0.0,0.0,0.0,0.0,0.0,0.0,0.0,0.0,0.0,0.0,0.0,0.0,0.0,0.0,0.0,0.0,0.0,0.0,0.0,0.0,0.0,0.0,0.0,0.0,0.0,0.0,0.0,0.0,0.0,0.0,0.0,0.0,0.0,0.0,0.0,0.0,0.0,0.0,0.0,0.0,0.0,0.0,0.0,0.0,0.0,0.0,0.0,0.0,0.0,0.0,0.0,0.0,0.0,0.0,0.0,0.0,0.0,0.0,0.0,0.0,0.0,0.0,0.0,0.0,0.0,0.0,0.0,0.0,0.0,0.0,0.0,0.0,0.0,0.0,0.0,0.0,0.0,0.0,0.0,0.0,0.0,0.0,0.0,0.0,0.0,0.0,0.0,0.0,0.0,0.0,0.0,0.0,0.0,0.0,0.0,0.0,0.0,0.0,0.0,0.0,0.0,0.0,0.0,0.0,0.0,0.0,0.0,0.0,0.0,0.0,0.0,0.0,0.0,0.0,0.0,0.0,0.0,0.0,0.0,0.0,0.0,0.0,0.0,0.0,0.0,0.0,0.0,0.0,0.0,0.0,0.0,0.0,0.0,0.0,0.0,0.0,0.0,0.0,0.0,0.0,0.0,0.0,0.0,0.0,0.0,0.0,0.0,0.0,0.0,0.0,0.0,0.0,0.0,0.0,0.0,0.0,0.0,0.0,0.0,0.0,0.0,0.0,0.0,0.0,0.0,0.0,0.0,0.0,0.0,0.0,0.0,0.0,0.0,0.0,0.0,0.0,0.0,0.0,0.0,0.0,0.0,0.0,0.0,0.0,0.0,0.0,0.0,0.0,0.0,0.0,0.0,0.0,0.0,0.0,0.0,0.0,0.0,0.0,0.0,0.0,0.0,0.0,0.0,0.0,0.0,0.0,0.0,0.0,0.0,0.0,0.0,0.0,0.0,0.0,0.0,0.0,0.0,0.0,0.0,0.0,0.0,0.0,0.0,0.0,0.0,0.0,0.0,0.0,0.0,0.0,0.0,0.0,0.0,0.0,0.0,0.0,0.0,0.0,0.0,0.0,0.0,0.0,0.0,0.0,0.0,0.0,0.0,0.0,0.0,0.0,0.0,0.0,0.0,0.0,0.0,0.0,0.0,0.0,0.0,0.0,0.0,0.0,0.0,0.0,0.0,0.0,0.0,0.0,0.0,0.0,0.0,0.0,0.0,0.0,0.0,0.0,0.0,0.0,0.0,0.0,0.0,0.0,0.0,0.0,0.0,0.0,0.0,0.0,0.0,0.0,0.0,0.0,0.0,0.0,0.0,0.0,0.0,0.0,0.0,0.0,0.0,0.0,0.0,0.0,0.0,0.0,0.0,0.0,0.0,0.0,0.0,0.0,0.0,0.0,0.0,0.0,0.0,0.0,0.0,0.0,0.0,0.0,0.0,0.0,0.0,0.0,0.0,0.0,0.0,0.0,0.0,0.0,0.0,0.0,0.0,0.0,0.0,0.0,0.0,0.0,0.0,0.0,0.0,0.0,0.0,0.0,0.0,0.0,0.0,0.0,0.0,0.0,0.0,0.0,0.0,0.0,0.0,0.0,0.0,0.0,0.0,0.0,0.0,0.0,0.0,0.0,0.0,0.0,0.0,0.0,0.0,0.0,0.0,0.0,0.0,0.0,0.0,0.0,0.0,0.0,0.0,0.0,0.0,0.0,0.0,0.0,0.0,0.0,0.0,0.0,0.0,0.0,0.0,0.0,0.0,0.0,0.0,0.0,0.0,0.0,0.0,0.0,0.0,0.0,0.0,0.0,0.0,0.0,0.0,0.0,0.0,0.0,0.0,0.0,0.0,0.0,0.0,0.0,0.0,0.0,0.0,0.0,0.0,0.0,0.0,0.0,0.0,0.0,0.0,0.0,0.0,0.0,0.0,0.0,0.0,0.0,0.0,0.0,0.0,0.0,0.0,0.0,0.0,0.0,0.0,0.0,0.0,0.0,0.0,0.0,0.0,0.0,0.0,0.0,0.0,0.0,0.0,0.0,0.0,0.0,0.0,0.0,0.0,0.0,0.0,0.0,0.0,0.0,0.0,0.0,0.0,0.0,0.0,0.0,0.0,0.0,0.0,0.0,0.0,0.0,0.0,0.0,0.0,0.0,0.0,0.0,0.0,0.0,0.0,0.0,0.0,0.0,0.0,0.0,0.0,0.0,0.0,0.0,0.0,0.0,0.0,0.0,0.0,0.0,0.0,0.0,0.0,0.0,0.0,0.0,0.0,0.0,0.0,0.0,0.0,0.0,0.0,0.0,0.0,0.0,0.0,0.0,0.0,0.0,0.0,0.0,0.0,0.0,0.0,0.0,0.0,0.0,0.0,0.0,0.0,0.0,0.0,0.0,0.0,0.0,0.0,0.0,0.0,0.0,0.0,0.0,0.0,0.0,0.0,0.0,0.0,0.0,0.0,0.0,0.0,0.0,0.0,0.0,0.0,0.0,0.0,0.0,0.0,0.0,0.0,0.0,0.0,0.0,0.0,0.0,0.0,0.0,0.0,0.0,0.0,0.0,0.0,0.0,0.0,0.0,0.0,0.0,0.0,0.0,0.0,0.0,0.0,0.0,0.0,0.0,0.0,0.0,0.0,0.0,0.0,0.0,0.0,0.0,0.0,0.0,0.0,0.0,0.0,0.0,0.0,0.0,0.0,0.0,0.0,0.0,0.0,0.0,0.0,0.0,0.0,0.0,0.0,0.0,0.0,0.0,0.0,0.0,0.0,0.0,0.0,0.0,0.0,0.0,0.0,0.0,0.0,0.0,0.0,0.0,0.0,0.0,0.0,0.0,0.0,0.0,0.0,0.0,0.0,0.0,0.0,0.0,0.0,0.0,0.0,0.0,0.0,0.0,0.0,0.0,0.0,0.0,0.0,0.0,0.0,0.0,0.0,0.0,0.0,0.0,0.0,0.0,0.0,0.0,0.0,0.0,0.0,0.0,0.0,0.0,0.0,0.0,0.0,0.0,0.0,0.0,0.0,0.0,0.0,0.0,0.0,0.0,0.0,0.0,0.0,0.0,0.0,0.0,0.0,0.0,0.0,0.0,0.0,0.0,0.0,0.0,0.0,0.0,0.0,0.0,0.0,0.0,0.0,0.0,0.0,0.0,0.0,0.0,0.0,0.0,0.0,0.0,0.0,0.0,0.0,0.0,0.0,0.0,0.0,0.0,0.0,0.0,0.0,0.0,0.0,0.0,0.0,0.0,0.0,0.0,0.0,0.0,0.0,0.0,0.0,0.0,0.0,0.0,0.0,0.0,0.0,0.0,0.0,0.0,0.0,0.0,0.0,0.0,0.0,0.0,0.0,0.0,0.0,0.0,0.0,0.0,0.0,0.0,0.0,0.0,0.0,0.0,0.0,0.0,0.0,0.0,0.0,0.0,0.0,0.0,0.0,0.0,0.0,0.0,0.0,0.0,0.0,0.0,0.0,0.0,0.0,0.0,0.0,0.0,0.0,0.0,0.0,0.0,0.0,0.0,0.0,0.0,0.0,0.0,0.0,0.0,0.0,0.0,0.0,0.0,0.0,0.0,0.0,0.0,0.0,0.0,0.0,0.0,0.0,0.0,0.0,0.0,0.0,0.0,0.0,0.0,0.0,0.0,0.0,0.0,0.0,0.0,0.0,0.0,0.0,0.0,0.0,0.0,0.0,0.0,0.0,0.0,0.0,0.0,0.0,0.0,0.0,0.0,0.0,0.0,0.0,0.0,0.0,0.0,0.0,0.0,0.0,0.0,0.0,0.0,0.0,0.0,0.0,0.0,0.0,0.0,0.0,0.0,0.0,0.0,0.0,0.0,0.0,0.0,0.0,0.0,0.0,0.0,0.0,0.0,0.0,0.0,0.0,0.0,0.0,0.0,0.0,0.0,0.0,0.0,0.0,0.0,0.0,0.0,0.0,0.0,0.0,0.0,0.0,0.0,0.0,0.0,0.0,0.0,0.0,0.0,0.0,0.0,0.0,0.0,0.0,0.0,0.0,0.0,0.0,0.0,0.0,0.0,0.0,0.0,0.0,0.0,0.0,0.0,0.0,0.0,0.0,0.0,0.0,0.0,0.0,0.0,0.0,0.0,0.0,0.0,0.0,0.0,0.0,0.0,0.0,0.0,0.0,0.0,0.0,0.0,0.0,0.0,0.0,0.0,0.0,0.0,0.0,0.0,0.0,0.0,0.0,0.0,0.0,0.0,0.0,0.0,0.0,0.0,0.0,0.0,0.0,0.0,0.0,0.0,0.0,0.0,0.0,0.0,0.0,0.0,0.0,0.0,0.0,0.0,0.0,0.0,0.0,0.0,0.0,0.0,0.0,0.0,0.0,0.0,0.0,0.0,0.0,0.0,0.0,0.0,0.0,0.0,0.0,0.0,0.0,0.0,0.0,0.0,0.0,0.0,0.0,0.0,0.0,0.0,0.0,0.0,0.0,0.0,0.0,0.0,0.0,0.0,0.0,0.0,0.0,0.0,0.0,0.0,0.0,0.0,0.0,0.0,0.0,0.0,0.0,0.0,0.0,0.0,0.0,0.0,0.0,0.0,0.0,0.0,0.0,0.0,0.0,0.0,0.0,0.0,0.0,0.0,0.0,0.0,0.0,0.0,0.0,0.0,0.0,0.0,0.0,0.0,0.0,0.0,0.0,0.0,0.0,0.0,0.0,0.0,0.0,0.0,0.0,0.0,0.0,0.0,0.0,0.0,0.0,0.0,0.0,0.0,0.0,0.0,0.0,0.0,0.0,0.0,0.0,0.0,0.0,0.0,0.0,0.0,0.0,0.0,-0.8159,0.0,0.0,0.0,0.0,0.0,0.0,0.0,0.0,0.0,0.0,0.0,0.0,0.0,0.0,0.0,0.0,0.0,0.0,0.0,0.0,0.0,0.0,0.0,0.0,0.0,0.0,0.0,0.0,0.0,0.0,0.0,0.0,0.0,0.0,0.0,0.0,0.0,0.0,0.0,0.0,0.0,0.0,0.0,0.0,0.0,0.0,0.0,0.0,0.0,0.0,0.0,0.0,0.0,0.0,0.0,0.0,0.0,0.0,0.0,0.0,0.0,0.0,0.0,0.0,0.0,0.0,0.0,0.0,0.0,0.0,0.0,0.0,0.0,0.0,0.0,0.0,0.0,0.0,0.0,0.0,0.0,0.0,0.0,0.0,0.0,0.0,0.0,0.0,0.0,0.0,0.0,0.0,0.0,0.0,0.0,0.0,0.0,0.0,0.0,0.0,0.0,0.0,0.0,0.0,0.0,0.0,0.0,0.0,0.0,0.0,0.0,0.0,0.0,0.0,0.0,0.0,-0.8301,0.0,0.0,0.0,0.0,0.0,0.0,0.0,0.0,0.0,0.0,0.0,0.0,0.0,0.0,0.0,0.0,0.0,0.0,0.0,0.0,0.0,0.0,0.0,0.0,0.0,0.0,0.0,0.0,0.0,0.0,0.0,0.0,0.0,0.0,0.0,0.0,0.0,0.0,0.0,0.0,0.0,0.0,0.0,0.0,0.0,0.0,0.0,0.0,0.0,0.0,0.0,0.0,0.0,0.0,0.0,0.0,0.0,0.0,0.0,0.0,0.0,0.0,0.0,0.0,0.0,0.0,0.0,0.0,0.0,0.0,0.0,0.0,0.0,0.0,0.0,0.0,0.0,0.0,0.0,0.0,0.0,0.0,0.0,0.0,0.0,0.0,0.0,0.0,0.0,0.0,0.0,0.0,0.0,0.0,0.0,0.0,0.0,0.0,0.0,0.0,0.0,0.0,0.0,0.0,0.0,0.0,0.0,0.0,-1.6091,-1.6377,-1.6643,-1.6025,-1.5422,-1.4767,-1.1793,-1.1011,-1.1708,-0.9646,0.0,0.0,0.0,0.0,0.0,0.0,0.0,0.0,0.0,0.0,0.0,0.0,0.0,0.0,0.0,0.0,0.0,0.0,0.0,0.0,0.0,0.0,0.0,0.0,0.0,0.0,0.0,0.0,0.0,0.0,0.0,0.0,0.0,0.0,0.0,0.0,0.0,0.0,1.0306,1.0959,1.1336,1.1372,1.0053,0.0,0.0,0.0,0.0,0.0,0.0,0.0,0.0,0.0,0.0,0.0,0.0,0.0,0.0,0.0,0.0,0.0,0.0,0.0,0.0,0.0,0.0,0.0,0.0,0.0,0.0,0.0,0.0,0.0,0.0,0.0,0.0,0.0,0.0,0.0,0.0,0.0,0.0,0.0,0.0,0.0,0.0,0.0,-0.1876,-0.7563,0.0,0.0,0.0,0.0,0.0,0.0,0.0,0.0,0.0,0.0,0.0,0.0,0.0,-1.5844,-1.7259,-1.8321,-1.936,-2.034,-2.0614,-2.0671,-2.0532,-1.9525,-1.8779,-1.8165,-1.6705,0.0,-1.3737,-1.3879,0.0,0.0,0.0,0.0,0.0,0.0,0.0,0.0,0.0,0.0,0.0,0.0,0.0,0.0,0.0,0.0,0.0,0.0,0.0,0.0,0.0,0.0,0.0,0.0,0.0,0.0,0.0,0.0,0.0,0.0,0.0,0.0,0.0,0.0,0.0,0.0,0.9587,1.0823,1.1674,1.185,1.2358,1.307,1.2058,1.0945,0.9826,0.8335,0.0,0.0,0.0,0.0,0.0,0.0,0.0,0.0,0.0,0.0,0.0,0.0,0.0,0.0,0.0,0.0,0.0,0.0,0.0,0.0,0.0,0.0,0.0,0.0,0.0,0.0,0.0,0.0,0.0,0.0,0.0,0.0,0.0,0.0,0.0,0.0,0.0,0.0,0.0,0.3178,0.0621,-0.3645,-0.7645,-1.0062,0.0,0.0,0.0,0.0,0.0,0.0,0.0,0.0,0.0,-1.7697,-1.802,-1.8933,-2.0509,-2.1292,-2.2088,-2.2885,-2.2738,-2.2709,-2.2789,-2.2055,-2.112,-2.0062,-1.9844,-1.8759,-1.71,-1.6108,-1.5498,-1.5173,0.0,0.0,0.0,0.0,-1.3418,-1.3351,0.0,0.0,0.0,0.0,0.0,0.0,0.0,0.0,0.0,0.0,0.0,0.0,0.0,0.0,0.0,0.2768,0.0,0.0,0.0,0.0,0.0,0.0,0.0,0.0,0.0,0.0,0.0,0.0,1.0884,1.2045,1.3108,1.3062,1.3701,1.4901,1.4069,1.2603,1.0596,0.9356,0.8458,0.0,0.0,0.0,0.0,0.0,0.0,0.0,0.0,0.0,0.0,0.0,0.0,0.0,0.0,0.0,0.0,0.0,0.0,0.0,0.0,0.0,0.0,0.0,0.0,0.0,0.0,0.0,0.0,0.0,0.0,0.0,0.0,0.0,0.0,0.0,0.0,0.0,0.0,0.6304,0.4906,0.1086,-0.7654,-1.2802,0.0,0.0,0.0,0.0,0.0,0.0,-1.6666,-1.6985,-1.805,-1.9887,-2.0482,-2.1494,-2.3017,-2.3167,-2.3703,-2.4607,-2.4051,-2.3948,-2.4187,-2.3854,-2.2973,-2.1756,-2.2002,-2.1433,-2.0186,-1.8296,-1.7563,-1.7621,-1.7117,-1.686,-1.6718,-1.6651,-1.6548,-1.6486,0.0,0.0,0.0,0.0,0.0,0.0,0.0,0.0,0.0,0.0,0.0,0.0,0.0,0.0,0.3176,0.3334,0.376,0.3734,0.0,0.0,0.0,0.0,0.0,0.0,0.0,0.0,0.0,1.0071,1.2031,1.3604,1.479,1.5182,1.6003,1.7087,1.5909,1.4715,1.3453,1.1348,1.0361,0.9903,0.0,0.0,0.0,0.0,0.0,0.0,0.0,0.0,0.0,0.0,0.0,0.0,0.0,0.0,0.0,0.0,0.0,0.0,0.0,0.0,0.0,0.0,0.0,0.0,0.0,0.0,0.0,0.0,0.0,0.0,0.0,0.0,0.0,0.0,0.0,0.0,0.0,0.0,0.0,0.4669,-0.8318,0.0,0.0,0.0,0.0,-1.7776,-1.897,-1.9439,-1.8771,-2.0194,-2.122,-2.1664,-2.245,-2.3358,-2.4395,-2.3734,-2.4172,-2.5717,-2.4992,-2.4686,-2.4754,-2.4735,-2.4379,-2.3722,-2.3191,-2.2694,-2.2167,-2.1171,-2.0353,-1.97,-1.9386,-1.8884,-1.8485,-1.9362,-1.9326,-1.8927,0.0,0.0,0.0,0.0,0.0,0.0,0.0,0.0,0.0,0.0,0.0,0.0,0.0,0.3505,0.4061,0.4357,0.4988,0.5054,0.4181,0.0,0.0,0.0,0.0,0.0,0.0,0.0,0.9107,1.0867,1.2736,1.4664,1.6528,1.661,1.7525,1.9073,1.8706,1.8055,1.7082,1.3696,1.1747,1.0671,0.8065,0.6307,0.0,0.0,0.0,0.0,0.0,0.0,0.0,0.0,0.0,0.0,0.0,0.0,0.0,0.0,0.0,0.0,0.0,0.0,0.0,0.0,0.0,0.0,0.0,0.0,0.0,0.0,0.0,0.0,0.0,0.0,0.0,0.0,0.0,0.0,0.0,0.0,0.0,-0.5521,-1.577,0.0,-1.8961,-2.0674,-2.157,-2.0637,-2.2253,-2.2819,-2.181,-2.2295,-2.2697,-2.2949,-2.313,-2.3722,-2.4695,-2.4652,-2.5026,-2.5782,-2.5362,-2.5182,-2.5249,-2.5246,-2.4971,-2.4455,-2.4212,-2.3603,-2.2764,-2.2418,-2.1765,-2.0977,-2.0865,-2.0466,-1.9984,-2.0124,-1.9623,-1.8951,0.0,0.0,0.0,0.0,0.0,0.0,0.0,0.0,0.0,0.0,0.0,0.29,0.3734,0.4299,0.4862,0.545,0.5873,0.5783,0.4946,0.0,0.0,0.0,0.0,0.0,0.0,0.6135,0.8868,1.2256,1.4125,1.636,1.8927,1.9068,2.0156,2.1902,2.1764,2.1459,2.0878,1.8026,1.5226,1.2477,1.0169,0.8283,0.6585,0.0,0.0,0.0,0.0,0.0,0.0,0.0,0.0,0.0,0.0,0.0,0.0,0.0,0.0,0.0,0.0,0.0,0.0,0.0,0.0,0.0,0.0,0.0,0.0,0.0,0.0,0.0,0.0,0.0,0.0,0.0,0.0,0.0,0.0,0.0,-0.9744,-1.3254,-2.1355,-2.5558,-2.2729,-2.4208,-2.4778,-2.3458,-2.4713,-2.4754,-2.2907,-2.3389,-2.3408,-2.2828,-2.3434,-2.4288,-2.5285,-2.4868,-2.5082,-2.5855,-2.5319,-2.5204,-2.5464,-2.5488,-2.5332,-2.5031,-2.489,-2.4359,-2.3566,-2.341,-2.2911,-2.2211,-2.1948,-2.1519,-2.1006,-2.0454,-1.9753,-1.9104,0.0,0.0,0.0,0.0,0.0,0.0,0.0,0.0,0.0,0.0,0.3166,0.3513,0.546,0.54,0.5595,0.6602,0.6364,0.5935,0.5368,0.4938,0.0,0.0,0.0,0.0,-0.0286,0.308,0.7854,1.4094,1.6221,1.8883,2.2036,2.2643,2.3911,2.5605,2.5111,2.4894,2.4848,2.4333,2.0983,1.58,1.3593,1.1543,0.9258,0.0,0.0,0.0,0.0,0.0,0.0,0.0,0.0,0.0,0.0,0.0,0.0,0.0,0.0,0.0,0.0,0.0,0.0,0.0,0.0,0.0,0.0,0.0,0.0,0.0,0.0,0.0,0.0,0.0,0.0,0.0,0.0,0.0,-1.4087,-2.0085,-2.3082,-1.7508,-2.4484,-2.9273,-2.8051,-2.8184,-2.7706,-2.615,-2.6145,-2.5002,-2.2179,-2.3635,-2.358,-2.1424,-2.3475,-2.5101,-2.619,-2.4389,-2.4342,-2.6023,-2.4947,-2.4799,-2.5438,-2.5473,-2.5483,-2.5488,-2.5239,-2.4958,-2.4676,-2.4225,-2.3836,-2.3451,-2.2625,-2.2015,-2.1475,-2.0588,-1.9982,-1.9534,0.0,0.0,0.0,0.0,0.0,0.0,0.0,0.0,0.0,0.0,0.3345,0.4899,0.5164,0.6424,0.7505,0.8057,0.9257,0.8871,0.6199,0.0,0.0,0.0,0.0,0.0,-0.1326,0.2602,0.7597,1.3741,1.8327,2.1989,2.4735,2.5728,2.689,2.8146,2.8682,2.887,2.8813,2.8503,2.7061,2.434,1.8097,1.3839,1.0939,0.0,0.0,0.0,0.0,0.0,0.0,0.0,0.0,0.0,0.0,0.0,0.0,0.0,0.0,0.0,0.0,0.0,0.0,0.0,0.0,0.0,0.0,0.0,0.0,0.0,0.0,0.0,0.0,0.0,0.0,0.0,0.0,-2.3878,-2.2062,-2.5525,-2.785,-2.6748,-2.9293,-3.054,-2.8969,-2.9144,-2.8481,-2.6432,-2.6756,-2.6565,-2.5363,-2.525,-2.5178,-2.5106,-2.4708,-2.5062,-2.619,-2.5793,-2.5935,-2.6634,-2.5913,-2.572,-2.6025,-2.5483,-2.5321,-2.5492,-2.5427,-2.5231,-2.4958,-2.4632,-2.4346,-2.3989,-2.2946,-2.204,-2.1368,-2.1205,-2.0686,-1.9989,0.0,0.0,0.0,0.0,0.0,0.0,0.0,0.0,0.0,0.0,0.2924,0.5042,0.6168,0.7771,0.9091,1.0047,0.9384,0.8224,0.6659,0.0,0.0,0.0,0.0,-0.9863,-0.4401,-0.0632,0.5095,1.2893,1.807,2.2826,2.7131,2.8576,2.9719,3.0546,3.1255,3.1533,3.141,3.0223,2.8436,2.5767,1.8806,1.4952,1.2679,0.6021,0.0243,-0.4803,-0.8767,-1.2436,-1.5309,-1.4939,0.0,0.0,0.0,0.0,0.0,0.0,0.0,0.0,0.0,0.0,0.0,0.0,0.0,0.0,0.0,0.0,0.0,0.0,0.0,0.0,0.0,0.0,0.0,0.0,-2.7155,-2.8635,-2.8681,-2.9892,-3.1052,-3.176,-3.2087,-3.1647,-3.0114,-3.0038,-2.9239,-2.7334,-2.734,-2.7003,-2.5959,-2.5931,-2.5957,-2.6002,-2.5855,-2.6184,-2.7067,-2.6771,-2.6906,-2.741,-2.6786,-2.6427,-2.6247,-2.5898,-2.563,-2.5447,-2.5465,-2.5389,-2.5247,-2.4976,-2.4771,0.0,0.0,0.0,0.0,0.0,-2.0508,-1.9939,0.0,0.0,0.0,0.0,0.0,0.0,0.0,0.0,0.0,0.0,0.0,0.373,0.7309,0.8585,0.9855,1.157,0.7815,0.547,0.0,0.0,0.0,-1.1251,-1.3026,-1.2231,-0.8597,-0.5203,0.1253,1.0933,1.5546,2.108,2.7459,2.9198,3.0285,3.0801,3.1195,3.1356,3.1214,2.8861,2.5926,2.2379,1.6907,1.4625,1.3248,0.1866,-0.3693,-0.6693,-1.6548,-1.9875,-1.9635,-1.9559,0.0,0.0,0.0,0.0,0.0,0.0,0.0,0.0,0.0,0.0,0.0,0.0,0.0,0.0,0.0,0.0,0.0,0.0,0.0,0.0,0.0,0.0,0.0,0.0,-3.1774,-3.3733,-3.4115,-3.3515,-3.3235,-3.3688,-3.3177,-3.2347,-3.1246,-3.0744,-2.991,-2.8566,-2.7989,-2.7046,-2.5486,0.0,0.0,0.0,0.0,-2.7823,-2.8447,-2.7754,-2.7747,-2.8416,-2.7751,-2.7138,-2.6591,-2.6665,-2.6331,-2.5669,-2.5685,-2.5671,-2.5605,-2.5383,-2.5197,-2.4979,-2.3952,-2.3311,-2.2746,-2.0917,-2.0061,-1.9873,0.0,0.0,0.0,0.0,0.0,0.0,0.0,0.0,0.0,-0.5263,-0.375,-0.0721,0.4677,0.6044,0.7327,0.928,0.7143,0.3725,0.0,0.0,-1.0838,-1.3775,-1.4748,-1.414,-1.1737,-0.7437,-0.1855,0.5037,0.9401,1.3847,1.827,1.9181,1.9827,2.0256,2.0542,2.0909,2.1231,2.0096,1.9072,1.7879,1.4409,1.1074,0.7658,0.2288,-0.2103,-0.6234,-1.2643,-1.6276,-1.8086,-1.8339,-2.0023,-2.1952,-2.1305,0.0,0.0,0.0,0.0,0.0,0.0,0.0,0.0,0.0,0.0,0.0,0.0,0.0,0.0,0.0,0.0,0.0,0.0,0.0,0.0,-3.2729,-3.4223,-3.5648,-3.794,-3.6916,-3.5461,-3.4253,-3.2592,-3.1542,-3.1509,-3.083,-3.0078,-2.9431,-2.9228,-2.903,-2.8697,-2.7824,-2.7715,-2.8657,-2.789,-2.8076,-2.9515,-2.9657,-2.9966,-3.0351,0.0,0.0,-2.8902,-2.7875,-2.7405,-2.742,-2.747,-2.7082,-2.6385,-2.6396,-2.5853,-2.4941,-2.4188,-2.3678,-2.3245,-2.2109,-2.1483,-2.118,0.0,0.0,0.0,0.0,0.0,0.0,0.0,0.0,0.0,0.0,-0.6548,-0.3588,-0.1074,0.1703,0.3818,0.486,0.243,0.0,0.0,-1.0596,-1.2694,-1.3739,-1.5417,-1.5667,-1.426,-1.1243,-0.7138,-0.1843,0.2512,0.672,1.0739,1.2178,1.2956,1.3116,1.3604,1.4011,1.4312,1.3382,1.1937,0.9985,0.7344,0.3668,-0.0298,-0.2092,-0.5032,-0.8932,-1.4857,-1.7482,-1.8264,-1.9326,-2.1018,-2.2693,-2.2852,-2.1902,-2.0686,0.0,0.0,0.0,0.0,0.0,0.0,0.0,0.0,0.0,0.0,0.0,0.0,0.0,0.0,-2.7772,0.0,0.0,-3.2187,-3.5941,-3.6624,-3.7111,-3.8276,-3.735,-3.6243,-3.5404,-3.3451,-3.2118,-3.2079,-3.1217,-3.0294,-2.9361,-2.9761,-2.9681,-2.8857,-2.8946,-2.9334,-3.003,-2.9879,-3.0125,-3.0937,-3.1132,-3.1344,-3.1646,-3.1061,-3.0452,-2.9772,-2.9249,-2.8591,-2.789,-2.7967,-2.7721,-2.7292,-2.7344,-2.7019,-2.6443,-2.5985,-2.4965,-2.3676,-2.288,-2.2283,-2.1799,0.0,0.0,0.0,0.0,0.0,0.0,0.0,0.0,0.0,0.0,-0.9088,-0.67,-0.5893,-0.2972,-0.1059,0.0,0.0,0.0,0.0,-1.4004,-1.4437,-1.3804,-1.5831,-1.6795,-1.6436,-1.5047,-1.2512,-0.8765,-0.5198,-0.1383,0.263,0.4412,0.5278,0.5338,0.6103,0.6478,0.659,0.6157,0.4304,0.1417,-0.0328,-0.3273,-0.6662,-0.6761,-0.8652,-1.1903,-1.7114,-1.8558,-1.8237,-1.977,-2.0813,-2.167,-2.3142,-2.2608,-2.1464,-2.1861,-2.022,0.0,0.0,0.0,0.0,0.0,0.0,0.0,0.0,0.0,-2.6516,-2.9015,-3.0288,-3.1745,-3.4339,-3.4429,-3.506,-3.8075,-3.8327,-3.8023,-3.7778,-3.6964,-3.6425,-3.6425,-3.4349,-3.2837,-3.2512,-3.1529,-3.0495,-2.9546,-3.0089,-2.9915,-2.8759,-3.0023,-3.0865,-3.0967,-3.1869,-3.2428,-3.261,-3.2672,-3.2801,-3.2992,-3.2786,-3.1994,-3.0738,-3.0874,-3.0179,-2.8852,-2.8591,-2.8371,-2.8193,-2.8058,-2.7999,-2.7962,-2.7711,-2.6431,-2.4598,-2.3822,-2.3119,-2.2504,0.0,0.0,0.0,0.0,0.0,0.0,0.0,0.0,0.0,0.0,0.0,0.0,0.0,0.0,0.0,0.0,0.0,0.0,-1.4299,-1.6011,-1.6809,-1.6504,-1.6726,-1.7328,-1.8302,-1.7146,-1.5913,-1.4664,-1.4133,-1.2088,-0.8514,-0.8271,-0.7914,-0.7505,-0.646,-0.619,-0.6418,-0.4566,-0.4531,-0.5684,-0.4881,-0.5301,-0.6575,-0.7227,-0.954,-1.2491,-1.3351,-1.4551,-1.5864,-1.6553,-1.7629,-1.8963,-2.0651,-2.1129,-2.1129,-2.1387,0.0,-2.039,-1.9726,-2.0104,-2.173,-2.6135,-2.5748,-2.6069,0.0,0.0,-3.2286,-3.4464,-3.5758,-3.6346,-3.5774,-3.6341,-3.7263,-3.8184,-3.806,-3.7991,-3.8397,-3.739,-3.6578,-3.6578,-3.4053,-3.2353,-3.2512,-3.108,-3.0432,-3.1146,-3.0645,-3.0542,-3.1115,-3.1341,-3.1753,-3.2247,-3.2868,-3.3596,-3.4499,-3.496,-3.5166,-3.5157,-3.4661,-3.4049,-3.335,-3.2979,-3.2634,-3.2256,-3.0763,-2.9699,-2.8923,-2.8275,-2.7968,-2.7898,-2.774,-2.7491,-2.7011,-2.5579,-2.4671,-2.4003,0.0,0.0,0.0,0.0,0.0,0.0,0.0,0.0,0.0,0.0,0.0,0.0,0.0,0.0,0.0,0.0,0.0,0.0,-1.6376,-1.7583,-1.8511,-1.9092,-1.9094,-1.9526,-2.0397,-1.9948,-1.9491,-1.9071,-1.8442,-1.7317,-1.578,-1.5104,-1.4198,-1.3103,-1.2639,-1.2126,-1.1348,-0.9007,-0.8363,-0.8724,-0.6705,-0.6441,-0.7235,-0.722,-0.8949,-1.1276,-1.0622,-1.1316,0.0,0.0,-1.4832,-1.7115,-1.8584,-1.9466,-2.0159,-2.1166,-2.1073,0.0,-2.2049,-2.3285,0.0,0.0,-2.8836,-3.014,-3.4169,-3.4429,-3.4428,-3.6737,-3.73,-3.7415,-3.7414,-3.7529,-3.7557,0.0,-3.7086,-3.6716,-3.5938,-3.4994,-3.4297,-3.4029,-3.2893,-3.2436,-3.3035,-3.1154,-3.0164,-3.0762,-3.0524,-3.045,-3.0777,-3.1703,-3.2473,-3.3115,-3.3862,-3.4614,-3.5437,-3.5814,-3.6159,-3.6423,-3.5732,-3.5172,-3.4779,-3.4057,-3.3442,-3.2852,-3.216,-3.1661,-3.1352,-3.0996,-3.0868,-3.0819,-3.0297,-2.9951,-2.947,-2.709,-2.5956,-2.5516,0.0,0.0,0.0,0.0,0.0,0.0,0.0,0.0,0.0,0.0,0.0,0.0,0.0,0.0,0.0,0.0,0.0,0.0,0.0,-1.8875,-1.9835,-2.0407,-2.0596,-2.1003,-2.167,-2.1542,-2.1561,-2.1856,-2.0636,-1.9855,-1.9516,-1.8506,-1.73,-1.6057,-1.5646,-1.4932,-1.3999,-1.1439,-1.0449,-1.0288,-0.8019,-0.7302,-0.7487,-0.7124,-0.7996,-0.925,-0.8878,-0.9417,0.0,0.0,-1.2378,-1.4523,-1.6044,-1.7185,-1.8336,-2.0278,-2.0818,-2.1347,-2.3621,0.0,0.0,-2.8987,-3.0955,-3.2861,-3.4616,-3.5103,-3.5727,-3.7672,-3.7413,-3.708,-3.767,-3.6937,-3.604,-3.5583,-3.5271,-3.4728,-3.3622,-3.2815,-3.2305,-3.2119,-3.168,-3.1751,-3.2602,-3.1185,-3.0291,-3.0628,-3.0609,-3.0635,-3.0906,-3.2163,-3.3161,-3.387,-3.4745,-3.5558,-3.6251,-3.6717,-3.7072,-3.7295,-3.6597,-3.6084,-3.5691,-3.4903,-3.4083,-3.3256,-3.3256,-3.3154,-3.2974,-3.2948,-3.2951,-3.2922,-3.2383,-3.2006,-3.1482,-2.9298,-2.7848,-2.6866,0.0,0.0,0.0,0.0,0.0,0.0,0.0,0.0,0.0,0.0,0.0,0.0,0.0,0.0,0.0,0.0,0.0,0.0,0.0,-1.9897,-2.0773,-1.9765,-2.0341,-2.1013,-2.171,-2.107,-2.1306,-2.2572,-2.1173,-2.0017,-1.9074,-1.8384,-1.7789,-1.73,-1.5731,-1.5242,-1.5372,-1.2622,-1.1198,-1.0645,-0.9132,-0.7856,-0.6971,-0.7207,-0.6899,-0.6577,-0.8492,0.0,0.0,0.0,-1.025,-1.0461,-1.2652,-1.4023,0.0,-1.8316,-2.0344,-2.207,0.0,0.0,-2.6606,-3.0303,-3.1966,-3.3307,-3.5626,-3.6416,-3.6886,-3.7639,-3.6595,-3.5568,-3.5696,-3.3832,-3.2469,-3.3085,-3.2503,-3.2125,-3.2581,-3.1709,-3.1359,-3.2012,-3.056,-2.9798,0.0,-3.0953,-3.1238,-3.1453,-3.1258,-3.1533,-3.2422,-3.3093,-3.3779,-3.4553,-3.5532,-3.6439,-3.7137,-3.8147,-3.8372,-3.7862,-3.7389,-3.6844,-3.625,-3.5714,-3.4988,-3.416,-3.416,-3.368,-3.291,-3.2974,-3.2956,-3.2921,-3.3088,-3.3034,-3.2811,-3.2604,-3.062,-2.7864,0.0,0.0,0.0,0.0,0.0,0.0,0.0,0.0,0.0,0.0,0.0,0.0,0.0,0.0,0.0,0.0,0.0,0.0,0.0,-1.9481,-2.0246,-2.0732,-2.0307,-2.0557,-2.168,-2.1111,-2.0795,-2.0751,-1.9397,-1.8293,-1.7499,-1.665,-1.5597,-1.4461,-1.412,-1.3423,-1.2459,-1.0879,-1.0213,-1.0078,-0.828,-0.7199,-0.6587,-0.674,-0.6687,-0.6611,0.0,0.0,0.0,0.0,0.0,-1.174,-1.2541,-1.4525,-1.7091,-2.0104,-2.1798,-2.3283,0.0,0.0,-2.9386,-3.2579,-3.4008,-3.5075,-3.686,-3.6943,-3.6557,-3.6397,-3.4499,-3.2645,-3.1687,-3.0557,-2.9568,-2.9012,-2.9684,-3.021,-3.0181,-2.9848,-2.9812,-3.0432,-2.9973,0.0,0.0,0.0,0.0,-3.081,-3.1085,-3.1562,-3.2452,-3.2719,-3.3352,-3.4585,-3.4805,-3.5477,-3.6643,-3.7667,-3.8196,-3.8224,-3.8237,-3.7982,-3.7402,-3.6637,-3.6142,-3.5834,-3.5295,-3.4911,-3.4641,-3.4647,-3.4655,-3.4596,-3.4206,-3.3965,-3.375,-3.3122,-3.2149,-3.1058,0.0,0.0,0.0,0.0,0.0,0.0,0.0,0.0,0.0,0.0,0.0,0.0,0.0,0.0,0.0,0.0,0.0,0.0,0.0,0.0,-2.019,-2.1239,-2.0258,-2.0348,-2.1654,-2.0937,-2.0257,-1.9785,-1.8115,-1.68,-1.5828,-1.472,-1.3533,-1.2355,-1.2368,-1.1806,-1.0794,-0.9951,-0.9703,-0.9826,-0.8527,-0.7742,-0.7335,-0.7249,-0.7202,0.0,0.0,0.0,0.0,0.0,0.0,-1.2309,-1.2975,-1.588,-1.9361,-2.1083,-2.3122,-2.5284,-2.7267,-2.9381,-3.1502,-3.383,-3.4976,-3.5814,-3.6747,-3.6383,-3.5585,-3.4681,-3.209,-2.9667,-2.8641,-2.701,-2.5937,-2.6154,-2.6762,-2.752,-2.8484,-2.8109,-2.8299,-2.9833,-2.9714,-2.9834,0.0,0.0,0.0,-3.0839,-3.178,-3.2547,-3.2811,-3.308,-3.3648,-3.4518,-3.4401,-3.4864,-3.6011,-3.7029,-3.7805,-3.8377,-3.8994,-3.8818,-3.7988,-3.7469,-3.7199,-3.7142,-3.6661,-3.6257,-3.593,-3.593,-3.593,-3.5892,-3.5532,-3.5514,-3.5623,-3.5126,-3.4822,-3.4436,0.0,0.0,0.0,0.0,0.0,0.0,0.0,0.0,0.0,0.0,0.0,0.0,0.0,0.0,0.0,0.0,0.0,0.0,0.0,0.0,0.0,-2.1208,-2.0197,-2.0209,-2.147,-2.0267,-1.9555,-1.9433,-1.7311,-1.5582,-1.428,-1.2742,-1.1742,-1.1233,-1.0735,-1.047,-1.0438,-0.9945,-0.9846,-1.0087,-0.9766,-0.9387,-0.8962,-0.86,0.0,0.0,0.0,0.0,0.0,0.0,0.0,0.0,0.0,-1.8031,-2.1988,-2.1478,-2.4369,-2.7844,-2.8592,-3.0672,-3.2916,-3.4203,-3.5026,-3.5489,-3.5415,-3.4846,-3.3948,-3.2572,-2.9458,-2.685,0.0,0.0,-2.2019,-2.4381,-2.3928,-2.4431,-2.7645,-2.6779,-2.7031,0.0,0.0,0.0,0.0,0.0,0.0,-3.1631,0.0,-3.4203,-3.3589,-3.4128,-3.453,-3.4574,-3.4407,-3.4706,-3.5459,-3.6527,-3.753,-3.8467,-3.9677,-3.9524,-3.82,-3.833,-3.8291,-3.8137,-3.8214,-3.7695,-3.6776,-3.6776,-3.6776,-3.6796,-3.6997,-3.7549,-3.8233,-3.8361,-3.8326,-3.7684,0.0,0.0,0.0,0.0,0.0,0.0,0.0,0.0,0.0,0.0,0.0,0.0,0.0,0.0,0.0,0.0,0.0,0.0,0.0,0.0,0.0,0.0,0.0,0.0,0.0,0.0,0.0,0.0,0.0,-1.4039,-1.3273,-1.228,-1.1774,-1.1633,-1.0735,-1.0361,-1.0329,-0.9888,-0.9846,-1.0053,0.0,-0.886,-0.8581,0.0,0.0,0.0,0.0,0.0,0.0,0.0,0.0,0.0,0.0,-2.1494,-2.3693,-2.5423,-2.7434,-2.943,-3.1076,-3.2721,-3.4188,-3.5026,-3.537,-3.525,-3.4233,-3.311,-3.1781,-2.9971,-2.6917,-2.4096,0.0,0.0,0.0,-2.1883,-2.3998,0.0,-2.7871,-2.8461,0.0,0.0,0.0,-3.0433,-3.1786,-3.2527,0.0,0.0,-3.3918,-3.4412,-3.4233,-3.4382,-3.4742,-3.5241,-3.4747,-3.5084,-3.6357,-3.8269,-3.9669,-4.0553,-4.151,-4.1608,-4.0981,-4.0908,-4.0554,-3.9975,-3.9306,-3.8507,-3.768,-3.7791,-3.781,-3.7829,-3.7987,-3.8164,-3.8384,-3.8496,-3.8433,-3.8131,0.0,0.0,0.0,0.0,0.0,0.0,0.0,0.0,0.0,0.0,0.0,0.0,0.0,0.0,0.0,0.0,0.0,0.0,0.0,0.0,0.0,0.0,0.0,0.0,0.0,0.0,0.0,0.0,0.0,0.0,0.0,-1.1453,-1.0946,-1.0684,-1.0294,-0.9961,-0.9672,-0.9456,0.0,0.0,0.0,0.0,0.0,0.0,0.0,0.0,0.0,0.0,0.0,0.0,0.0,-1.9999,-2.2744,-2.4882,-2.6686,-2.839,0.0,-3.1539,-3.2647,-3.3918,-3.5026,-3.5415,-3.528,-3.4622,-3.3006,-3.1629,-2.9878,-2.7074,-2.4488,0.0,0.0,0.0,0.0,0.0,0.0,0.0,-2.7055,-2.827,-2.9535,0.0,-3.1602,0.0,-3.3506,-3.3958,-3.4242,0.0,-3.4726,-3.4801,-3.4487,-3.4756,-3.4961,-3.5064,-3.4668,-3.5288,-3.6953,-3.9335,-4.0813,-4.1439,-4.2588,-4.2814,-4.2235,-4.2425,-4.2235,-4.1712,0.0,-4.0023,-3.9181,-3.9196,-3.927,-3.9428,-3.9846,-4.0055,-4.0127,-4.0219,-3.993,-3.9488,0.0,0.0,0.0,0.0,0.0,0.0,0.0,0.0,0.0,0.0,0.0,0.0,0.0,0.0,0.0,0.0,0.0,0.0,0.0,0.0,0.0,0.0,0.0,0.0,0.0,0.0,0.0,0.0,0.0,0.0,0.0,0.0,0.0,0.0,0.0,0.0,0.0,0.0,0.0,0.0,0.0,0.0,0.0,0.0,0.0,0.0,0.0,0.0,0.0,0.0,-2.2085,-2.272,-2.5357,-2.795,-3.0103,-3.0717,-3.2198,-3.3649,-3.3739,-3.4622,-3.5504,-3.5504,-3.4921,-3.3799,-3.1749,-3.0118,-2.7988,-2.4305,0.0,-2.0544,-1.8248,0.0,-1.8431,-1.9297,0.0,-2.2546,-2.6118,-2.7533,-2.9282,-3.2047,-3.3241,-3.4177,-3.5213,-3.5294,-3.5359,-3.5504,-3.5504,-3.525,-3.4637,-3.5175,-3.5235,-3.4637,-3.4844,-3.5776,-3.755,-4.0063,-4.1478,-4.1715,-4.3213,-4.345,-4.2675,-4.3318,-4.3472,-4.3188,-4.2621,0.0,-4.1004,-4.093,-4.1021,-4.1307,-4.2026,-4.2382,-4.2473,-4.2415,-4.1875,-4.1155,0.0,0.0,0.0,0.0,0.0,0.0,0.0,0.0,0.0,0.0,-1.7096,-1.7975,0.0,0.0,0.0,0.0,0.0,0.0,0.0,0.0,0.0,0.0,0.0,0.0,0.0,0.0,0.0,0.0,0.0,0.0,0.0,0.0,0.0,0.0,0.0,0.0,0.0,0.0,0.0,0.0,0.0,0.0,0.0,0.0,0.0,0.0,0.0,0.0,0.0,0.0,-2.2958,-2.4713,-2.7284,-2.9913,-3.2138,-3.2781,-3.3604,-3.4427,-3.4996,-3.5325,-3.5504,-3.5504,-3.4577,-3.3006,-3.0492,-2.8038,0.0,0.0,0.0,-1.907,-1.8059,-1.8747,0.0,-2.0118,0.0,0.0,0.0,0.0,-3.0473,0.0,0.0,0.0,0.0,0.0,0.0,0.0,0.0,-3.5444,-3.5325,-3.5444,-3.5444,-3.5325,-3.6537,-3.7776,-3.8854,-4.1014,-4.2156,-4.2273,-4.3759,-4.4056,-4.3368,-4.4343,-4.4439,-4.3857,-4.3903,0.0,-4.2694,-4.2834,-4.292,-4.2999,-4.3305,-4.3449,-4.3364,-4.2655,-4.2265,-4.1972,0.0,0.0,0.0,0.0,0.0,0.0,0.0,-1.3496,-1.3721,-1.5835,-1.7427,-1.8208,-1.7856,-1.7811,0.0,0.0,0.0,0.0,0.0,0.0,0.0,0.0,0.0,0.0,0.0,0.0,0.0,0.0,0.0,0.0,0.0,0.0,0.0,0.0,0.0,0.0,0.0,0.0,0.0,0.0,0.0,0.0,0.0,0.0,0.0,0.0,0.0,0.0,0.0,0.0,-2.3128,-2.4737,-2.8092,-3.0193,-3.1674,-3.2677,-3.344,-3.4113,-3.4786,-3.5235,-3.5415,-3.5055,-3.3709,-3.1689,-2.8712,0.0,0.0,0.0,0.0,-1.8838,-1.7244,0.0,0.0,0.0,0.0,0.0,0.0,0.0,0.0,0.0,0.0,0.0,0.0,0.0,0.0,0.0,0.0,-3.5504,-3.5504,-3.5504,-3.5504,-3.5504,-3.7011,-3.814,-3.8887,-4.0694,-4.1757,-4.2105,-4.3282,-4.3703,-4.339,-4.4414,-4.4787,-4.4557,-4.4265,0.0,-4.3816,-4.3858,-4.3937,-4.4129,-4.46,-4.4557,-4.4114,-4.324,-4.2616,-4.2071,0.0,0.0,0.0,0.0,0.0,0.0,0.0,-1.3559,-1.3816,-1.6045,-1.7347,-1.8007,-1.7893,-1.7969,-1.798,0.0,0.0,0.0,0.0,0.0,0.0,0.0,0.0,0.0,0.0,0.0,0.0,0.0,0.0,0.0,0.0,0.0,0.0,0.0,0.0,0.0,0.0,0.0,0.0,0.0,0.0,0.0,0.0,0.0,0.0,0.0,0.0,0.0,0.0,0.0,-2.2525,-2.3706,-2.6988,-2.9049,-3.0493,-3.1847,-3.281,-3.3592,-3.4316,-3.4988,-3.534,-3.4651,-3.2781,-3.0313,-2.729,-2.4822,0.0,0.0,-1.8573,-1.857,-1.6478,0.0,0.0,0.0,0.0,0.0,0.0,0.0,0.0,0.0,0.0,0.0,0.0,0.0,0.0,0.0,0.0,0.0,-3.5504,-3.5504,-3.5504,-3.5504,-3.6829,-3.7767,-3.8154,-3.9833,-4.0897,-4.1394,-4.242,-4.2923,-4.2923,-4.3929,-4.4487,-4.4687,-4.4368,0.0,0.0,-4.4626,-4.4737,-4.4985,-4.5583,-4.5355,-4.4588,-4.3714,-4.286,-4.1966,0.0,0.0,0.0,0.0,0.0,0.0,0.0,-1.312,-1.3165,-1.6091,-1.6543,-1.699,-1.8052,-1.8546,-1.8538,0.0,0.0,0.0,0.0,0.0,0.0,0.0,0.0,0.0,0.0,0.0,0.0,0.0,0.0,0.0,0.0,0.0,0.0,0.0,0.0,0.0,0.0,0.0,0.0,0.0,0.0,0.0,0.0,0.0,0.0,0.0,0.0,0.0,0.0,0.0,0.0,-2.1676,-2.257,-2.5877,-2.9715,-3.1089,0.0,0.0,-3.4232,-3.491,-3.534,-3.4651,-3.2093,-2.9205,-2.7081,0.0,0.0,-1.8291,-1.7605,-1.7218,-1.6281,-1.6504,0.0,0.0,0.0,0.0,0.0,0.0,0.0,0.0,0.0,0.0,0.0,0.0,0.0,0.0,0.0,0.0,-3.5504,-3.5504,-3.5504,-3.5504,-3.629,-3.6722,-3.6751,-3.8851,-3.9917,-4.0016,-4.1314,-4.1943,-4.1943,-4.2923,-4.3358,-4.3453,-4.4531,0.0,0.0,-4.5476,-4.5678,-4.5712,-4.583,-4.5384,-4.4588,-4.3724,-4.2838,-4.1981,0.0,0.0,0.0,0.0,0.0,0.0,-1.3684,-1.3268,-1.3489,-1.5085,-1.5915,-1.6684,-1.7625,-1.7628,-1.7642,0.0,0.0,0.0,0.0,0.0,0.0,0.0,0.0,0.0,0.0,0.0,0.0,0.0,0.0,0.0,0.0,0.0,0.0,0.0,0.0,0.0,0.0,0.0,0.0,0.0,0.0,0.0,0.0,0.0,0.0,0.0,0.0,0.0,0.0,0.0,0.0,0.0,-2.0434,-2.2213,0.0,0.0,-2.941,-3.1167,-3.2711,-3.4015,-3.4637,-3.3559,-3.112,-2.8368,-2.5959,0.0,0.0,-1.7563,-1.699,-1.6632,-1.5628,-1.619,-1.7162,0.0,0.0,0.0,0.0,0.0,0.0,0.0,0.0,0.0,0.0,0.0,0.0,0.0,0.0,0.0,-3.5504,-3.5504,-3.5504,-3.5504,-3.6228,-3.6615,-3.6615,-3.7955,-3.8826,-3.9268,-4.018,-4.0834,-4.1313,-4.2411,-4.2996,-4.3272,-4.4071,0.0,0.0,-4.53,-4.5496,-4.568,-4.5719,-4.5199,-4.4352,-4.3528,-4.2678,-4.1793,0.0,0.0,0.0,0.0,0.0,-1.3424,-1.3611,-1.3383,-1.3579,-1.4706,-1.54,-1.6091,-1.6976,-1.6661,-1.6542,-1.6992,0.0,0.0,0.0,0.0,0.0,0.0,0.0,0.0,0.0,0.0,0.0,0.0,0.0,0.0,0.0,0.0,0.0,0.0,0.0,0.0,0.0,0.0,0.0,0.0,0.0,0.0,0.0,0.0,0.0,0.0,0.0,0.0,0.0,0.0,0.0,0.0,0.0,0.0,0.0,0.0,-2.6756,-2.9105,-3.0618,-3.2435,-3.3502,-3.2032,-2.9669,-2.7066,0.0,0.0,-1.8538,-1.6547,-1.6025,-1.5683,-1.4873,-1.5694,-1.688,0.0,0.0,-1.9819,0.0,0.0,0.0,0.0,0.0,0.0,0.0,0.0,0.0,0.0,0.0,0.0,-3.5504,-3.5504,-3.5504,-3.5504,-3.6006,-3.6275,-3.6275,-3.7279,-3.8035,-3.858,-3.9493,-4.0167,-4.0703,-4.1895,-4.2546,-4.2814,-4.3661,0.0,0.0,-4.5052,-4.5302,-4.5566,-4.5316,-4.4701,-4.3855,-4.3028,-4.2162,-4.1296,0.0,0.0,0.0,0.0,0.0,0.0,0.0,-1.3309,-1.3192,-1.5398,-1.5002,-1.4989,-1.6175,-1.5886,-1.5511,-1.5234,0.0,0.0,0.0,0.0,0.0,0.0,0.0,0.0,0.0,0.0,-1.3496,-1.4084,-1.4368,0.0,0.0,0.0,0.0,0.0,0.0,0.0,0.0,0.0,0.0,0.0,0.0,0.0,0.0,0.0,0.0,0.0,0.0,0.0,0.0,0.0,0.0,0.0,0.0,0.0,0.0,0.0,-2.5089,-2.7859,-2.8017,-3.0183,-3.1949,-3.0087,-2.7604,-2.5121,0.0,0.0,-1.716,-1.5216,-1.4451,-1.4113,-1.4013,-1.4739,-1.6094,-1.8495,-1.9472,0.0,0.0,0.0,0.0,0.0,0.0,0.0,0.0,0.0,0.0,0.0,0.0,0.0,-3.5504,-3.5504,-3.5504,-3.5504,-3.5504,-3.5504,-3.5504,-3.7011,-3.7806,-3.7822,-3.9332,-4.0121,-4.0171,-4.1286,-4.1793,0.0,0.0,0.0,0.0,-4.4966,-4.5302,-4.5509,-4.4643,-4.3816,-4.3008,-4.2143,-4.1258,-4.0392,0.0,0.0,0.0,0.0,0.0,0.0,0.0,-1.3379,-1.3639,-1.328,-1.4064,-1.4787,-1.5172,-1.4786,-1.4417,-1.4193,0.0,0.0,0.0,0.0,0.0,0.0,0.0,0.0,0.0,0.0,-1.3705,-1.3897,-1.4451,-1.4892,-1.5242,-1.5359,0.0,0.0,0.0,0.0,0.0,0.0,0.0,0.0,0.0,0.0,0.0,0.0,0.0,0.0,0.0,0.0,0.0,0.0,0.0,0.0,0.0,0.0,0.0,-1.9727,0.0,0.0,-2.5041,-2.6299,-2.7101,-2.5845,-2.3864,-2.1859,-2.0318,0.0,-1.5411,-1.4348,-1.3619,-1.3351,-1.3771,-1.417,-1.523,-1.774,-1.8393,0.0,0.0,0.0,0.0,0.0,0.0,0.0,0.0,0.0,0.0,0.0,0.0,0.0,-3.5504,-3.5504,-3.5504,-3.5504,-3.5504,-3.5718,-3.6228,-3.6737,-3.7483,-3.858,-3.9032,-3.9766,-4.0655,-4.1446,-4.2038,0.0,0.0,0.0,0.0,-4.4299,-4.4587,-4.4848,-4.4204,-4.3445,-4.2623,-4.2019,-4.1121,-4.0117,0.0,0.0,0.0,0.0,0.0,0.0,0.0,-1.3363,-1.355,-1.2876,-1.344,-1.4001,-1.4258,-1.3898,-1.3538,-1.3288,0.0,0.0,0.0,0.0,0.0,0.0,0.0,0.0,0.0,-1.3077,-1.347,-1.3567,-1.4515,-1.5217,-1.566,-1.601,-1.5838,-1.5228,-1.5018,0.0,0.0,0.0,0.0,0.0,0.0,0.0,-1.286,0.0,0.0,0.0,0.0,0.0,0.0,0.0,0.0,0.0,0.0,0.0,0.0,0.0,-1.9726,0.0,0.0,-2.3638,-2.439,-2.3176,-2.1493,0.0,0.0,0.0,-1.4356,-1.4046,-1.3236,-1.2947,-1.4146,-1.4415,-1.5169,-1.7403,-1.8249,0.0,0.0,0.0,0.0,0.0,0.0,0.0,0.0,0.0,0.0,0.0,0.0,0.0,-3.5504,-3.5504,-3.5504,-3.5504,-3.5782,-3.6117,-3.6615,-3.7188,-3.793,-3.8908,-3.9193,-3.9902,-4.0903,-4.1534,-4.2121,0.0,0.0,0.0,0.0,-4.4016,-4.4318,-4.473,-4.4056,-4.3264,-4.2466,-4.1837,-4.0692,-3.9333,0.0,0.0,0.0,0.0,0.0,0.0,0.0,0.0,-1.3063,-1.3676,-1.3152,-1.2898,-1.3484,-1.326,-1.2936,-1.2591,0.0,0.0,0.0,0.0,0.0,0.0,0.0,0.0,0.0,-1.2449,-1.2947,-1.331,-1.4559,-1.5402,-1.5839,-1.6422,-1.6365,-1.5719,-1.5634,-1.4364,-1.2246,-1.0755,-1.0154,-1.0249,-1.1076,-1.1781,0.0,0.0,0.0,0.0,0.0,0.0,0.0,0.0,0.0,0.0,0.0,0.0,0.0,0.0,0.0,0.0,0.0,0.0,0.0,0.0,0.0,0.0,0.0,0.0,0.0,-1.4194,-1.3199,-1.2907,-1.4993,-1.5284,-1.5756,-1.7432,0.0,0.0,0.0,0.0,0.0,0.0,0.0,0.0,0.0,0.0,0.0,0.0,0.0,0.0,-3.5504,-3.5504,-3.5504,-3.5504,-3.6228,-3.66,-3.6661,-3.8157,-3.8908,-3.8962,-3.9731,-4.0417,-4.0995,-4.1534,-4.2162,0.0,0.0,0.0,0.0,-4.3955,-4.4317,-4.4817,-4.3961,-4.3145,-4.233,-4.1491,-3.9975,-3.826,0.0,0.0,0.0,0.0,0.0,0.0,0.0,0.0,0.0,0.0,-1.3109,-1.3456,-1.309,-1.3495,-1.3358,0.0,0.0,0.0,0.0,0.0,0.0,0.0,0.0,0.0,0.0,-1.2276,-1.2997,-1.4352,-1.4107,-1.5005,-1.6913,-1.6273,-1.6296,-1.6862,-1.5998,-1.4513,-1.26,-1.1101,-1.0587,-1.09,-1.1992,-1.2521,0.0,0.0,0.0,0.0,-1.6776,-1.7316,0.0,0.0,0.0,0.0,0.0,0.0,0.0,0.0,-1.7866,-1.8116,-1.7594,0.0,-1.7229,-1.6463,-1.558,0.0,0.0,0.0,0.0,0.0,0.0,0.0,0.0,0.0,0.0,0.0,0.0,0.0,0.0,0.0,0.0,0.0,0.0,0.0,0.0,0.0,0.0,0.0,0.0,-3.5504,-3.5504,-3.5504,-3.5504,-3.5504,-3.6228,-3.6919,-3.7515,-3.8469,-3.9193,-3.9833,-4.002,-4.0642,-4.1578,-4.1768,-4.2346,0.0,0.0,0.0,-4.3631,-4.3631,-4.3375,-4.2897,-4.2333,-4.16,-4.0765,-4.0207,-3.9171,-3.7885,0.0,0.0,0.0,0.0,0.0,0.0,0.0,0.0,0.0,0.0,0.0,0.0,0.0,0.0,0.0,0.0,0.0,0.0,0.0,0.0,0.0,0.0,0.0,0.0,-1.2205,-1.2645,-1.3393,-1.4416,-1.4697,-1.5589,-1.7009,-1.6776,-1.6894,-1.7239,-1.5511,-1.3932,-1.2484,-1.1371,-1.1005,-1.1212,-1.213,0.0,0.0,0.0,0.0,0.0,-1.7177,-1.7728,0.0,-1.8457,-1.8484,-1.8458,0.0,0.0,0.0,0.0,-1.7987,-1.7647,-1.6777,-1.6496,-1.6336,-1.5833,-1.5102,-1.4476,0.0,0.0,0.0,0.0,0.0,0.0,0.0,0.0,0.0,0.0,0.0,0.0,0.0,0.0,0.0,0.0,0.0,0.0,0.0,0.0,0.0,0.0,0.0,-3.5193,-3.5522,-3.5202,-3.5202,-3.5567,-3.6573,-3.7339,-3.7822,-3.8525,-3.9315,-4.007,-4.007,-4.0689,-4.181,-4.181,-4.2426,0.0,0.0,0.0,-4.3497,-4.3497,-4.3118,-4.2501,-4.2251,-4.1408,-4.0318,-4.0064,-3.901,-3.759,0.0,0.0,0.0,0.0,0.0,0.0,0.0,0.0,0.0,0.0,0.0,0.0,0.0,0.0,0.0,0.0,0.0,0.0,0.0,0.0,0.0,0.0,0.0,-1.2298,-1.2427,-1.3302,-1.4007,-1.4496,-1.5645,-1.6419,-1.6885,-1.7388,-1.7405,-1.6889,-1.4612,-1.3104,-1.2274,-1.1572,-1.1343,-1.1476,-1.2041,0.0,0.0,0.0,0.0,0.0,0.0,0.0,0.0,-1.8657,-1.8786,-1.8937,-1.8952,0.0,0.0,0.0,0.0,0.0,-1.6779,-1.7279,-1.7746,-1.6882,-1.6154,-1.559,-1.5321,0.0,0.0,0.0,0.0,0.0,0.0,0.0,0.0,0.0,0.0,0.0,0.0,0.0,0.0,0.0,0.0,0.0,0.0,0.0,0.0,0.0,0.0,-3.476,-3.5427,-3.4857,-3.48,-3.5379,-3.6778,-3.7552,-3.7817,-3.8641,-3.9437,-4.007,-4.007,-4.0689,-4.181,-4.181,-4.2426,-4.3497,0.0,0.0,-4.3497,-4.3497,-4.318,-4.2709,-4.2597,-4.163,-4.0309,-4.0179,-3.8987,-3.7162,0.0,0.0,0.0,0.0,0.0,0.0,0.0,0.0,0.0,0.0,0.0,0.0,0.0,0.0,0.0,0.0,0.0,0.0,0.0,0.0,0.0,0.0,-1.1964,-1.284,-1.3467,-1.3844,-1.4781,-1.6298,-1.591,-1.6366,-1.7625,-1.7101,-1.6408,-1.5524,-1.3503,-1.2497,-1.2274,-1.1572,-1.1578,-1.2133,-1.2824,0.0,0.0,0.0,0.0,0.0,0.0,0.0,0.0,-1.7144,-1.7247,-1.7284,-1.7398,0.0,0.0,0.0,0.0,0.0,-1.71,-1.7925,-1.8424,-1.5783,-1.554,-1.5865,-1.5598,0.0,0.0,0.0,0.0,0.0,0.0,0.0,0.0,0.0,0.0,0.0,0.0,0.0,0.0,0.0,0.0,0.0,0.0,0.0,0.0,0.0,0.0,-3.4576,-3.4659,-3.4554,-3.4554,-3.4685,-3.5475,-3.6551,-3.7806,-3.9189,-3.9952,-4.007,-4.007,-4.0689,-4.181,-4.181,-4.2426,-4.3497,0.0,-4.3497,-4.3497,-4.3497,-4.3054,-4.2312,-4.1632,-4.0785,-3.9884,-3.9203,-3.8026,-3.6522,0.0,0.0,0.0,0.0,0.0,0.0,0.0,0.0,0.0,0.0,0.0,0.0,0.0,0.0,0.0,0.0,0.0,0.0,0.0,0.0,0.0,-1.0657,-1.1902,-1.2947,-1.3673,-1.4503,-1.5496,-1.6699,-1.6762,-1.7047,-1.7509,-1.6436,-1.5415,-1.4427,-1.3178,-1.23,-1.1759,-1.177,-1.2035,-1.2475,0.0,0.0,0.0,0.0,0.0,0.0,0.0,0.0,0.0,0.0,-1.755,-1.7638,-1.8126,0.0,0.0,0.0,0.0,0.0,-1.7486,-1.7863,-1.8183,-1.7082,-1.7431,-1.803,-1.7936,0.0,0.0,0.0,0.0,0.0,0.0,0.0,0.0,0.0,0.0,0.0,0.0,0.0,0.0,0.0,0.0,0.0,0.0,0.0,0.0,0.0,0.0,0.0,-3.5094,-3.4736,-3.4736,-3.5096,-3.5841,-3.6589,-3.7235,-3.8368,-3.9292,-4.007,-4.007,-4.0514,-4.1313,-4.1664,-4.2266,-4.3087,0.0,-4.324,-4.2837,-4.2837,-4.2121,-4.0965,-4.0598,-3.9955,-3.9171,-3.851,-3.727,-3.5788,0.0,0.0,0.0,0.0,0.0,0.0,0.0,0.0,0.0,0.0,0.0,0.0,0.0,0.0,0.0,0.0,0.0,0.0,0.0,0.0,-1.1219,-1.0596,-1.1823,-1.2967,-1.3934,-1.4916,-1.5875,-1.6845,-1.7327,-1.7356,-1.6921,-1.5573,-1.4427,-1.343,-1.2606,-1.1853,-1.1242,-1.176,-1.2195,-1.2553,0.0,0.0,0.0,0.0,0.0,0.0,0.0,0.0,0.0,0.0,0.0,0.0,0.0,0.0,0.0,-1.8948,-1.8529,-1.8099,-1.7959,-1.8053,-1.8288,-1.8691,0.0,-1.9803,-2.0218,0.0,0.0,0.0,0.0,0.0,0.0,0.0,0.0,0.0,0.0,0.0,0.0,0.0,0.0,0.0,0.0,0.0,0.0,0.0,0.0,0.0,0.0,0.0,-3.535,-3.4894,-3.4847,-3.5362,-3.6134,-3.6586,-3.6772,-3.7347,-3.8379,-3.9817,-3.9648,-4.0044,-4.0886,-4.1165,-4.1675,-4.2443,-4.2775,-4.2598,-4.2029,-4.2213,-4.146,-4.0175,-4.0042,-3.9323,-3.8285,-3.7773,-3.6584,-3.5272,0.0,0.0,0.0,0.0,0.0,0.0,0.0,0.0,0.0,0.0,0.0,0.0,0.0,0.0,0.0,0.0,0.0,0.0,0.0,0.0,-1.0842,-1.0778,-1.1714,-1.3005,-1.4686,-1.476,-1.559,-1.7261,-1.701,-1.6538,-1.5871,-1.455,-1.34,-1.2448,-1.1135,-1.0718,-1.0944,-1.1244,-1.1702,-1.2271,-1.275,0.0,0.0,0.0,0.0,0.0,0.0,0.0,0.0,0.0,0.0,0.0,0.0,0.0,-1.8948,-1.8698,-1.8587,-1.8553,-1.8534,-1.9085,-1.9655,-1.9688,-1.9517,0.0,-2.1243,-2.1378,0.0,-2.2617,0.0,0.0,0.0,0.0,0.0,0.0,0.0,0.0,0.0,0.0,0.0,0.0,0.0,0.0,0.0,0.0,0.0,0.0,0.0,0.0,-3.4673,-3.4624,-3.4624,-3.4688,-3.5304,-3.6045,-3.6772,-3.6823,-3.7601,-3.9056,-3.8396,-3.9054,-4.0851,-4.0056,-4.0321,-4.1484,-4.135,-4.1258,-4.1258,-4.1992,-4.1791,-4.0969,-4.0471,-3.9067,-3.7248,-3.6724,-3.6012,-3.5232,0.0,0.0,0.0,0.0,0.0,0.0,0.0,0.0,0.0,0.0,0.0,0.0,0.0,0.0,0.0,0.0,0.0,0.0,0.0,0.0,-1.095,-1.0617,-1.1473,-1.2559,-1.3848,-1.4397,-1.5461,-1.6977,-1.6659,-1.6046,-1.517,-1.4015,-1.2987,-1.2067,-1.13,-1.102,-1.1173,-1.1475,-1.1839,-1.2231,-1.2524,-1.2914,0.0,0.0,0.0,0.0,0.0,0.0,0.0,0.0,-1.6862,-1.7527,-1.8261,-1.8521,-1.8489,-1.8391,-1.8351,-1.8351,-1.8351,-1.8892,-1.9489,-1.9489,-1.9993,0.0,0.0,-2.3511,-2.4171,-2.3702,0.0,0.0,0.0,0.0,0.0,0.0,0.0,0.0,0.0,0.0,0.0,0.0,0.0,0.0,0.0,0.0,0.0,0.0,0.0,0.0,-3.5224,-3.5207,-3.5207,-3.5207,-3.547,-3.5757,-3.6062,-3.6062,-3.6586,-3.7618,-3.7804,-3.8457,-3.9482,-3.9511,-3.9911,-4.069,-4.0985,-4.0836,-4.0377,-4.0671,-4.0123,-3.9039,-3.8582,-3.7686,-3.6684,-3.6457,-3.5993,-3.5471,0.0,0.0,0.0,0.0,0.0,0.0,0.0,0.0,0.0,0.0,0.0,0.0,0.0,0.0,0.0,0.0,0.0,0.0,-1.0383,-1.1066,-1.13,-1.0925,-1.1487,-1.2221,-1.312,-1.3758,-1.4774,-1.6156,-1.5686,-1.4932,-1.3879,-1.3182,-1.2408,-1.1565,-1.1301,-1.1219,-1.1318,-1.1534,-1.1854,-1.219,-1.2265,-1.26,0.0,0.0,0.0,0.0,0.0,0.0,0.0,0.0,-1.7197,-1.775,-1.861,-1.8566,-1.8187,-1.8082,-1.8061,-1.8061,-1.8061,-1.8439,-1.8846,-1.8956,0.0,0.0,-2.2669,-2.4747,-2.6172,-2.5754,0.0,0.0,0.0,0.0,0.0,0.0,0.0,0.0,0.0,0.0,0.0,0.0,0.0,0.0,0.0,0.0,0.0,0.0,0.0,0.0,0.0,-3.5622,-3.5622,-3.5622,-3.5622,-3.5622,-3.5622,-3.5622,-3.5893,-3.6417,-3.6941,-3.7585,-3.8356,-3.8465,-3.8929,-3.9621,-3.9926,-3.978,-3.9287,-3.9542,-3.8916,-3.7754,-3.7185,-3.6603,-3.6139,-3.6139,-3.5898,-3.5588,0.0,0.0,0.0,0.0,0.0,0.0,0.0,0.0,0.0,0.0,0.0,0.0,0.0,0.0,0.0,0.0,0.0,0.0,-1.1296,-1.1615,-1.1805,-1.1805,-1.1805,-1.2104,-1.2786,-1.2777,-1.3406,-1.4677,-1.4027,-1.3095,-1.1897,-1.1897,-1.1552,-1.0897,-1.0897,-1.1071,-1.1296,-1.1296,-1.1652,-1.2169,-1.1897,-1.2133,-1.263,0.0,0.0,0.0,0.0,0.0,0.0,0.0,-1.7124,-1.7541,-1.8338,-1.841,-1.8146,-1.7883,-1.7811,-1.7789,-1.7789,-1.7789,-1.7883,0.0,0.0,0.0,-2.2188,-2.4762,-2.7233,0.0,0.0,0.0,0.0,0.0,0.0,0.0,0.0,0.0,0.0,0.0,0.0,0.0,0.0,0.0,0.0,0.0,0.0,0.0,0.0,0.0,0.0,-3.5605,-3.5605,-3.5605,-3.5605,-3.5605,-3.5605,-3.5605,-3.5605,-3.5605,-3.5605,-3.6417,-3.7838,-3.6844,-3.7103,-3.8249,-3.799,-3.7893,-3.7966,-3.8741,-3.848,-3.7523,-3.671,-3.6054,-3.5622,-3.5605,-3.5605,-3.5531,0.0,0.0,0.0,0.0,0.0,0.0,0.0,0.0,0.0,0.0,0.0,0.0,0.0,0.0,0.0,0.0,0.0,0.0,-1.1894,-1.1854,-1.1805,-1.1805,-1.1557,-1.1533,-1.1745,-1.1707,-1.2336,-1.3718,-1.3288,-1.2676,-1.1897,-1.2085,-1.1817,-1.1196,-1.1623,-1.1861,-1.1946,-1.2138,-1.232,-1.2475,-1.2396,-1.2572,-1.2887,0.0,0.0,0.0,0.0,0.0,0.0,0.0,0.0,0.0,-1.7805,-1.7835,-1.7905,-1.7833,-1.7618,-1.7439,-1.7439,-1.8012,0.0,0.0,0.0,0.0,0.0,-2.4671,0.0,0.0,0.0,0.0,0.0,0.0,0.0,0.0,0.0,0.0,0.0,0.0,0.0,0.0,0.0,0.0,0.0,0.0,0.0,0.0,0.0,0.0,0.0,-3.4336,-3.4066,-3.4066,-3.4066,-3.4066,-3.4066,-3.4573,-3.4827,-3.4827,-3.4827,-3.5538,-3.6853,-3.6558,-3.6806,-3.7509,-3.7429,-3.7396,-3.7414,-3.7267,-3.7015,-3.6686,-3.607,-3.5739,-3.5554,-3.503,-3.4827,-3.4726,0.0,0.0,0.0,0.0,0.0,0.0,0.0,0.0,0.0,0.0,0.0,0.0,0.0,0.0,0.0,0.0,0.0,0.0,0.0,-1.1768,-1.1601,-1.1601,-1.131,-1.1127,-1.1127,-1.0967,-1.1292,-1.2139,-1.2047,-1.1737,-1.1321,-1.1619,-1.1589,-1.1318,-1.1924,-1.2205,-1.2226,-1.2475,-1.2649,-1.2759,-1.2649,-1.2759,-1.303,0.0,0.0,0.0,0.0,0.0,0.0,0.0,0.0,0.0,-1.7357,0.0,-1.7817,-1.7947,-1.7671,-1.7387,-1.7785,0.0,0.0,0.0,0.0,0.0,0.0,0.0,0.0,0.0,0.0,0.0,0.0,0.0,0.0,0.0,0.0,0.0,0.0,0.0,0.0,0.0,0.0,0.0,0.0,0.0,0.0,0.0,0.0,0.0,0.0,-3.3161,-3.3031,-3.3031,-3.3262,-3.3406,-3.3406,-3.3846,-3.4201,-3.4489,-3.4201,-3.461,-3.565,-3.565,-3.5948,-3.6464,-3.6742,-3.6882,-3.6843,-3.6291,-3.6097,-3.6054,-3.5739,-3.5622,-3.552,-3.4776,-3.4489,-3.438,0.0,0.0,0.0,0.0,0.0,0.0,0.0,0.0,0.0,0.0,0.0,0.0,0.0,0.0,0.0,0.0,0.0,0.0,0.0,0.0,-1.1205,-1.1205,-1.0916,-1.0763,-1.0787,-1.0483,-1.0347,-1.0458,-1.0597,-1.0584,-1.0458,-1.0811,-1.1127,-1.1408,-1.2009,-1.2271,-1.2291,-1.2553,-1.2815,-1.3031,-1.2778,-1.2848,-1.3214,-1.3878,0.0,0.0,0.0,0.0,0.0,0.0,0.0,0.0,-1.692,-1.7329,-1.7815,-1.8137,-1.7781,-1.7501,-1.8406,0.0,0.0,0.0,0.0,0.0,0.0,0.0,0.0,0.0,0.0,0.0,0.0,0.0,0.0,0.0,0.0,0.0,0.0,0.0,0.0,0.0,0.0,0.0,0.0,0.0,0.0,0.0,0.0,0.0,0.0,-3.1952,-3.2208,-3.2208,-3.2813,-3.3119,-3.3119,-3.3229,-3.3643,-3.4286,-3.3626,-3.3643,-3.4286,-3.4438,-3.4806,-3.5371,-3.597,-3.6281,-3.6291,-3.5674,-3.5504,-3.556,-3.5537,-3.552,-3.5419,-3.4675,-3.4353,-3.4168,0.0,0.0,0.0,0.0,0.0,0.0,0.0,0.0,0.0,0.0,0.0,0.0,0.0,0.0,0.0,0.0,0.0,0.0,0.0,0.0,-1.0527,-1.0527,-0.997,-0.9766,-1.002,-0.9765,-1.0008,-1.0801,-1.0553,-1.0578,-1.0787,-1.1312,-1.1687,-1.203,-1.2588,-1.2832,-1.285,-1.3104,-1.326,-1.3311,-1.3243,-1.3613,-1.4185,-1.4336,-1.4675,0.0,0.0,0.0,0.0,0.0,0.0,0.0,-1.6259,-1.6737,-1.7425,-1.7502,-1.74,-1.7336,0.0,-1.8053,0.0,0.0,0.0,0.0,0.0,0.0,0.0,0.0,0.0,0.0,0.0,0.0,0.0,0.0,0.0,0.0,0.0,0.0,0.0,0.0,0.0,0.0,0.0,0.0,0.0,0.0,0.0,0.0,-3.0715,-3.0325,-3.008,-3.008,-3.0668,-3.0983,-3.0983,-3.2001,-3.2594,0.0,-3.2594,-3.2611,-3.2797,-3.3964,-3.4897,-3.5511,-3.5069,-3.5239,-3.5681,-3.4397,-3.4573,-3.5554,-3.4962,-3.4742,-3.4641,-3.3914,-3.3271,-3.2669,0.0,0.0,0.0,0.0,0.0,0.0,0.0,0.0,0.0,0.0,0.0,0.0,0.0,0.0,0.0,0.0,0.0,0.0,0.0,0.0,-0.9561,-0.9572,-0.923,-0.915,-0.931,-0.9384,-0.9725,-1.0383,-1.0556,-1.0855,-1.1304,-1.1571,-1.1948,-1.2412,-1.2832,-1.3013,-1.3031,-1.3294,-1.3684,-1.4109,-1.399,-1.445,-1.524,-1.5467,-1.5561,-1.5697,-1.6407,0.0,0.0,0.0,0.0,0.0,0.0,0.0,-1.6846,-1.7207,-1.7058,-1.6914,0.0,0.0,0.0,0.0,0.0,0.0,0.0,0.0,0.0,0.0,0.0,0.0,0.0,0.0,0.0,0.0,0.0,0.0,0.0,0.0,0.0,0.0,0.0,0.0,0.0,0.0,0.0,0.0,0.0,-2.8249,-2.8591,-2.8543,-2.8649,-2.895,-2.954,-3.0038,-3.0293,-3.0983,-3.1657,-3.2313,-3.1918,-3.1935,-3.2307,-3.3085,-3.3846,-3.4539,-3.415,-3.4201,-3.4506,-3.3728,-3.3863,-3.4523,-3.4117,-3.3964,-3.388,-3.3152,-3.2611,-3.2171,0.0,0.0,0.0,0.0,0.0,0.0,0.0,0.0,0.0,0.0,0.0,0.0,0.0,0.0,0.0,0.0,0.0,0.0,0.0,0.0,0.0,-0.8501,-0.8536,-0.8601,-0.8666,-0.9095,-0.9488,-0.9817,-1.0644,-1.1327,0.0,-1.1849,-1.2215,-1.2864,-1.3141,-1.3332,-1.3484,-1.3734,-1.4298,-1.5003,-1.4828,-1.5308,-1.6143,-1.6543,-1.6353,-1.6041,-1.7197,-1.6315,-1.4691,-1.5182,0.0,0.0,0.0,0.0,-1.6152,-1.6792,-1.6679,-1.6542,0.0,0.0,0.0,0.0,0.0,0.0,0.0,0.0,0.0,0.0,0.0,0.0,0.0,0.0,0.0,0.0,0.0,0.0,0.0,0.0,0.0,0.0,0.0,0.0,0.0,0.0,0.0,0.0,0.0,-2.6542,-2.6422,-2.6901,-2.7427,-2.7965,-2.8714,-2.9299,-2.9789,-3.0004,-3.0717,-3.1901,-3.1292,-3.1326,-3.1901,-3.1901,-3.2459,-3.3406,-3.3271,-3.3288,-3.3389,-3.3136,-3.3169,-3.3389,-3.3271,-3.322,-3.3136,-3.251,-3.2205,-3.2002,0.0,0.0,0.0,0.0,0.0,0.0,0.0,0.0,0.0,0.0,0.0,0.0,0.0,0.0,0.0,0.0,0.0,0.0,-0.8844,0.0,0.0,-0.7345,-0.749,-0.7739,-0.8101,-0.8742,-0.9349,-0.9966,-1.1067,0.0,0.0,0.0,0.0,-1.3919,-1.418,-1.4643,-1.5271,-1.5536,-1.5605,-1.552,-1.5709,-1.6119,-1.6605,-1.6686,-1.6847,-1.7044,-1.6896,-1.6076,-1.4945,-1.446,-1.4228,0.0,0.0,0.0,-1.5436,-1.5547,-1.6083,-1.6591,0.0,0.0,0.0,0.0,0.0,0.0,0.0,0.0,0.0,0.0,0.0,0.0,0.0,0.0,0.0,0.0,0.0,0.0,0.0,0.0,0.0,0.0,0.0,0.0,0.0,0.0,0.0,0.0,-2.6484,-2.6348,-2.5764,-2.5828,-2.5905,-2.5995,-2.7119,-2.7753,-2.7708,-2.878,-2.9703,-3.0395,-3.0294,-3.0311,-3.0395,-3.0395,-3.1495,-3.3372,-3.2713,-3.2797,-3.3305,-3.2019,-3.2256,-3.3339,-3.2679,-3.2425,-3.2408,-3.2364,-3.1884,-3.1326,0.0,0.0,0.0,0.0,0.0,0.0,0.0,0.0,0.0,0.0,0.0,0.0,0.0,0.0,0.0,-0.9121,-0.8056,-0.7338,-0.7125,-0.6827,-0.6669,-0.6773,-0.6949,-0.7199,-0.7495,-0.8489,-0.9367,-1.0109,0.0,0.0,0.0,-1.344,-1.3754,0.0,0.0,0.0,-1.5615,-1.5731,-1.603,-1.6446,-1.6407,-1.6734,-1.7202,-1.6685,-1.6475,-1.6385,-1.5841,-1.5075,-1.4319,-1.44,-1.3917,-1.3403,-1.4268,0.0,0.0,0.0,0.0,0.0,0.0,0.0,0.0,0.0,0.0,0.0,0.0,0.0,0.0,0.0,0.0,0.0,0.0,0.0,0.0,0.0,0.0,0.0,0.0,0.0,0.0,0.0,0.0,0.0,0.0,0.0,0.0,0.0,-2.5228,-2.536,-2.5076,-2.5061,-2.5226,-2.56,-2.6136,-2.658,-2.6871,-2.7413,-2.8135,-2.9037,-2.9353,-2.9482,-2.9499,-2.9922,-3.0869,-3.2154,-3.1816,-3.1867,-3.2121,-3.1461,-3.1579,-3.2138,-3.1799,-3.1664,-3.1664,-3.1664,-3.1461,-3.119,0.0,0.0,0.0,0.0,0.0,0.0,0.0,0.0,0.0,0.0,0.0,0.0,0.0,0.0,0.0,0.0,-0.6614,-0.5807,-0.5439,-0.5574,-0.5815,-0.6146,-0.6674,-0.7062,-0.727,-0.8642,-0.9695,0.0,0.0,0.0,-1.4106,-1.4347,-1.4699,0.0,-1.5629,-1.5984,0.0,0.0,-1.637,-1.7004,-1.6948,-1.7091,-1.7272,-1.6842,-1.6378,-1.5871,-1.497,-1.4424,-1.4139,-1.4169,-1.3557,-1.3004,-1.4399,-1.45,0.0,0.0,0.0,0.0,0.0,0.0,0.0,0.0,0.0,0.0,0.0,0.0,0.0,0.0,0.0,0.0,0.0,0.0,0.0,0.0,0.0,0.0,0.0,0.0,0.0,0.0,0.0,0.0,0.0,0.0,0.0,0.0,-2.4343,-2.4507,-2.4328,-2.4373,-2.4597,-2.5091,-2.527,-2.5606,-2.6166,-2.6593,-2.7171,-2.7819,-2.8424,-2.8789,-2.8991,-2.9364,-3.0142,-3.119,-3.119,-3.119,-3.119,-3.119,-3.119,-3.119,-3.119,-3.119,-3.119,-3.119,-3.119,-3.119,0.0,0.0,0.0,0.0,0.0,0.0,0.0,0.0,0.0,0.0,0.0,0.0,-0.8436,-0.7548,-0.6879,-0.6529,-0.5384,-0.4515,-0.4118,-0.4801,-0.5249,-0.5261,-0.661,0.0,-0.775,-0.9446,-1.0514,0.0,0.0,0.0,-1.4123,-1.5073,-1.59,-1.6597,-1.6631,-1.7016,-1.7664,0.0,0.0,-1.677,-1.7322,-1.7025,-1.6377,-1.7352,-1.7195,-1.6278,-1.476,-1.4704,-1.5049,-1.3366,-1.2978,-1.3243,-1.3714,-1.3865,-1.397,0.0,0.0,0.0,0.0,0.0,0.0,0.0,0.0,0.0,0.0,0.0,0.0,0.0,0.0,0.0,0.0,0.0,0.0,0.0,0.0,0.0,0.0,0.0,0.0,0.0,0.0,0.0,0.0,0.0,0.0,0.0,-2.4567,-2.4343,-2.3684,-2.3655,-2.367,-2.3699,-2.4343,-2.4854,-2.5256,-2.6899,-2.7398,-2.6776,-2.7502,-2.8264,-2.8958,-2.8264,-2.9127,-3.119,-3.119,-3.119,-3.119,-3.119,-3.119,-3.119,-3.119,-3.119,-3.119,-3.119,-3.119,-3.119,0.0,0.0,0.0,0.0,0.0,0.0,0.0,0.0,0.0,0.0,0.0,0.0,0.0,-0.6828,-0.605,-0.5669,-0.4757,-0.4145,-0.3993,-0.4274,-0.4545,-0.4807,-0.6233,-0.7209,-0.7606,-0.9437,-1.078,0.0,0.0,-1.3701,-1.4675,-1.4951,-1.5721,-1.6921,-1.725,-1.7557,-1.7794,-1.7616,0.0,0.0,0.0,0.0,0.0,0.0,0.0,0.0,0.0,0.0,0.0,-1.4644,-1.4031,-1.3424,-1.4695,-1.4782,-1.4451,-1.4587,0.0,0.0,0.0,0.0,0.0,0.0,0.0,0.0,0.0,0.0,0.0,0.0,0.0,0.0,0.0,0.0,0.0,0.0,0.0,0.0,0.0,0.0,0.0,0.0,0.0,0.0,0.0,0.0,0.0,0.0,0.0,-2.3864,-2.361,-2.3595,-2.3595,-2.3595,-2.3834,-2.4207,-2.4672,-2.5971,-2.6528,-2.6262,-2.6825,-2.7486,-2.8247,-2.8467,-2.9262,-3.0531,-3.0987,-3.119,-3.119,-3.119,-3.119,-3.119,-3.119,-3.119,-3.119,-3.119,-3.119,-3.119,0.0,0.0,0.0,0.0,0.0,0.0,0.0,0.0,0.0,0.0,0.0,0.0,0.0,0.0,-0.496,-0.4407,-0.3881,-0.3565,-0.3565,-0.3831,-0.4183,-0.4577,-0.6296,-0.75,-0.8027,-0.9956,-1.1385,0.0,0.0,0.0,0.0,-1.491,-1.5488,-1.6661,-1.6997,-1.7337,0.0,0.0,0.0,-1.6954,0.0,0.0,-1.6123,0.0,0.0,0.0,0.0,0.0,0.0,0.0,-1.5008,-1.4371,-1.5698,0.0,0.0,0.0,0.0,0.0,0.0,0.0,0.0,0.0,0.0,0.0,0.0,0.0,0.0,0.0,0.0,0.0,0.0,0.0,0.0,0.0,0.0,0.0,0.0,0.0,0.0,0.0,0.0,0.0,0.0,0.0,0.0,0.0,0.0,0.0,-2.3595,-2.3595,-2.3595,-2.3595,-2.3752,-2.4116,-2.4657,-2.5561,-2.6085,-2.6227,-2.6539,-2.7232,-2.8213,-2.8484,-2.9279,-3.048,-3.0734,-3.097,-3.119,-3.119,-3.119,-3.119,-3.119,-3.1055,-3.0852,-3.1106,-3.1038,-3.0869,0.0,0.0,0.0,0.0,0.0,0.0,0.0,0.0,0.0,-0.829,0.0,0.0,0.0,0.0,0.0,-0.2746,-0.2679,-0.2712,-0.2712,-0.3499,-0.4192,-0.4594,-0.685,-0.8413,-0.91,-1.1072,-1.236,0.0,0.0,0.0,0.0,0.0,-1.5292,-1.5868,-1.5867,-1.6363,-1.7205,0.0,-1.6072,-1.5266,0.0,-1.6417,-1.4885,0.0,0.0,0.0,-1.492,-1.5229,0.0,-1.5682,0.0,0.0,0.0,0.0,0.0,0.0,0.0,0.0,0.0,0.0,0.0,0.0,0.0,0.0,0.0,0.0,0.0,0.0,0.0,0.0,0.0,0.0,0.0,0.0,0.0,0.0,0.0,0.0,0.0,0.0,0.0,0.0,0.0,0.0,0.0,0.0,-2.3565,-2.358,-2.3595,-2.3595,-2.3595,-2.3595,-2.4116,-2.4672,-2.5182,-2.5726,-2.6227,-2.6691,-2.6691,-2.7503,-2.8958,-2.8197,-2.9076,-3.1157,-3.0446,-3.0548,-3.119,-3.119,-3.119,-3.119,-3.119,-3.0768,-3.0226,-3.0937,-3.0751,-3.0243,0.0,0.0,0.0,0.0,0.0,0.0,0.0,0.0,0.0,0.0,0.0,0.0,-0.4368,-0.3224,-0.2461,-0.2211,-0.2507,-0.2706,-0.2712,-0.3499,-0.43,-0.4941,-0.6971,-0.8544,-0.9515,-1.1207,-1.236,0.0,0.0,0.0,0.0,0.0,0.0,0.0,-1.5002,-1.5074,-1.5424,-1.5555,0.0,0.0,-1.6986,-1.6822,0.0,0.0,0.0,0.0,0.0,-1.6376,-1.6407,0.0,-1.5702,-1.4487,0.0,0.0,0.0,0.0,0.0,0.0,-1.3232,0.0,0.0,0.0,0.0,0.0,0.0,0.0,0.0,0.0,0.0,0.0,0.0,0.0,0.0,0.0,0.0,0.0,0.0,0.0,0.0,0.0,0.0,0.0,0.0,0.0,0.0,0.0,-2.2936,-2.3131,-2.358,-2.3595,-2.3595,-2.3595,-2.4116,-2.4672,-2.5182,-2.5726,-2.6227,-2.6691,-2.6691,-2.7503,-2.8975,-2.8755,-2.9583,-3.119,-3.097,-3.1004,-3.119,-3.119,-3.119,-3.119,-3.119,-3.1072,-3.092,-3.1123,-3.1072,-3.092,0.0,0.0,0.0,0.0,0.0,0.0,0.0,0.0,0.0,0.0,0.0,0.0,-0.322,-0.2279,-0.17,-0.1709,-0.1971,-0.2103,-0.2109,-0.2966,-0.3945,-0.5058,-0.6971,-0.867,-1.0099,-1.1448,-1.2466,0.0,0.0,0.0,0.0,0.0,0.0,0.0,0.0,0.0,0.0,0.0,0.0,0.0,-1.678,0.0,0.0,-1.7421,-1.7374,0.0,0.0,0.0,-1.6481,-1.6995,-1.6018,0.0,0.0,0.0,0.0,0.0,0.0,0.0,0.0,0.0,0.0,0.0,0.0,0.0,-1.7809,-1.848,0.0,0.0,0.0,0.0,0.0,0.0,0.0,0.0,0.0,0.0,0.0,0.0,0.0,0.0,0.0,0.0,0.0,-2.1291,-2.168,-2.2649,-2.2724,-2.2936,-2.3565,-2.3595,-2.3595,-2.3595,-2.3906,-2.443,-2.5182,-2.5486,-2.6016,-2.6691,-2.6691,-2.7334,-2.8518,-2.8839,-2.9634,-3.0768,-3.1072,-3.119,-3.119,-3.119,-3.119,-3.119,-3.119,-3.1004,-3.0784,-3.1089,-3.1004,-3.0784,0.0,0.0,0.0,0.0,0.0,0.0,0.0,0.0,0.0,0.0,-0.4598,-0.3292,-0.1999,-0.1434,-0.1174,-0.1217,-0.1276,-0.1308,-0.1384,-0.2242,-0.3506,-0.5158,-0.6952,-0.8783,-1.0694,-1.1736,0.0,0.0,0.0,0.0,0.0,0.0,0.0,0.0,0.0,0.0,0.0,0.0,0.0,-1.4421,-1.6237,-1.6367,0.0,0.0,-1.7088,0.0,-1.6284,-1.6322,-1.6414,-1.6874,-1.6313,0.0,0.0,0.0,0.0,0.0,-1.2875,0.0,0.0,0.0,0.0,0.0,0.0,0.0,-1.7943,-1.8504,-1.8777,0.0,0.0,0.0,0.0,0.0,0.0,0.0,0.0,0.0,0.0,0.0,0.0,0.0,0.0,0.0,-2.0543,-2.0602,-2.1156,-2.2473,-2.2739,-2.3011,-2.3565,-2.3595,-2.3595,-2.3595,-2.3595,-2.4116,-2.5182,-2.5221,-2.5709,-2.6691,-2.6776,-2.7215,-2.7977,-2.8755,-2.9516,-3.026,-3.092,-3.119,-3.119,-3.119,-3.119,-3.119,-3.1106,-3.0734,-3.0294,-3.0869,-3.0717,-3.0328,-0.8189,0.0,0.0,0.0,0.0,0.0,0.0,0.0,0.0,0.0,-0.2819,-0.1613,-0.1005,-0.0536,-0.041,-0.0786,-0.1101,-0.1465,-0.1848,-0.2693,-0.4045,-0.5972,-0.7252,-0.8818,-1.0831,-1.1942,-1.2591,0.0,0.0,0.0,0.0,0.0,0.0,0.0,0.0,0.0,0.0,0.0,0.0,-1.4698,-1.4726,0.0,-1.6034,-1.658,-1.6626,-1.6446,-1.6435,-1.6473,-1.6359,-1.5602,-1.5197,-1.4864,0.0,0.0,0.0,0.0,0.0,0.0,0.0,0.0,0.0,0.0,0.0,0.0,-1.6304,-1.7294,-1.8104,0.0,0.0,0.0,0.0,0.0,0.0,0.0,0.0,0.0,0.0,0.0,0.0,0.0,0.0,0.0,-1.9869,-1.9884,-2.0438,-2.1784,-2.2832,-2.3475,-2.3595,-2.3595,-2.3595,-2.3595,-2.3595,-2.4116,-2.5182,-2.5221,-2.5709,-2.6708,-2.73,-2.801,-2.8789,-2.955,-3.0294,-3.0987,-3.114,-3.119,-3.119,-3.119,-3.119,-3.114,-3.0548,-3.0598,-3.092,-3.048,-3.0598,-3.1004,-0.8016,0.0,0.0,0.0,0.0,0.0,0.0,0.0,0.0,0.0,0.0,-0.101,0.0,-0.0419,-0.0536,-0.079,-0.1187,-0.1552,-0.1773,-0.2543,-0.3961,-0.612,-0.7306,-0.904,-1.1454,-1.2082,-1.2591,0.0,0.0,0.0,0.0,0.0,0.0,0.0,0.0,0.0,0.0,0.0,-1.3204,-1.4337,-1.4471,0.0,-1.6637,-1.681,-1.6747,-1.6522,-1.6522,-1.6522,-1.6434,-1.5881,-1.5116,0.0,0.0,-1.3838,-1.3134,0.0,-1.3423,-1.3496,0.0,0.0,0.0,-1.4019,0.0,0.0,0.0,-1.7077,-1.7787,0.0,0.0,0.0,0.0,0.0,0.0,0.0,0.0,0.0,0.0,0.0,0.0,0.0,0.0,0.0,-1.969,-1.969,-2.0243,-2.159,-2.2592,-2.3266,-2.358,-2.3595,-2.3595,-2.3595,-2.3879,-2.4389,-2.5182,-2.5465,-2.598,-2.6691,-2.708,-2.7469,-2.7875,-2.9025,-2.9736,-3.0125,-3.0869,-3.119,-3.1157,-3.0801,-3.0869,-3.1123,-3.0395,-3.0548,-3.1106,-3.0378,-3.0565,-3.119,-0.8015,0.0,0.0,0.0,0.0,0.0,0.0,0.0,0.0,0.0,0.0,0.0,0.0,0.0,0.0,0.0,-0.1903,-0.2219,0.0,0.0,-0.4291,-0.6626,-0.756,-0.9404,-1.2341,-1.2319,-1.2562,0.0,0.0,0.0,0.0,0.0,0.0,0.0,0.0,0.0,0.0,0.0,0.0,-1.4266,0.0,-1.5789,-1.6896,-1.6837,-1.6687,-1.6522,-1.6522,-1.6522,-1.6466,-1.638,-1.5447,-1.4422,-1.5118,-1.4397,0.0,0.0,0.0,0.0,0.0,0.0,0.0,0.0,0.0,-1.4889,0.0,0.0,0.0,0.0,0.0,0.0,0.0,0.0,0.0,0.0,0.0,0.0,0.0,0.0,0.0,0.0,0.0,0.0,0.0,-1.9735,-2.0333,-2.1425,-2.2233,-2.2892,-2.3385,-2.3535,-2.3595,-2.3595,-2.4116,-2.4672,-2.5182,-2.5726,-2.6227,-2.6691,-2.6843,-2.6911,-2.6962,-2.8501,-2.9194,-2.9262,-3.0463,-3.1072,-3.114,-3.0412,-3.0531,-3.1089,-3.0074,-3.0294,-3.1089,-3.0209,-3.0446,-3.119,-1.0274,-1.0233,0.0,0.0,0.0,0.0,0.0,0.0,0.0,0.0,0.0,0.0,0.0,0.0,0.0,0.0,0.0,0.0,-0.3955,0.0,0.0,-0.8921,-0.8637,-1.0033,-1.3436,-1.289,-1.2399,-1.2075,0.0,0.0,0.0,0.0,0.0,0.0,-1.2904,0.0,0.0,0.0,-1.4094,0.0,-1.5346,-1.5606,0.0,-1.544,-1.5749,-1.6522,-1.6522,-1.6522,-1.6423,0.0,-1.556,-1.5251,0.0,-1.3916,-1.3568,0.0,0.0,0.0,0.0,0.0,0.0,0.0,-1.4246,0.0,0.0,0.0,0.0,-1.7578,0.0,0.0,0.0,0.0,0.0,0.0,0.0,0.0,0.0,0.0,0.0,0.0,0.0,0.0,0.0,-1.9899,-2.0662,-2.0812,-2.1979,-2.2753,-2.2787,-2.3295,-2.3595,-2.3595,-2.4116,-2.4672,-2.5182,-2.5726,-2.6227,-2.6708,-2.7368,-2.7689,-2.774,-2.9279,-2.9989,-2.9989,-3.0159,-3.0598,-3.114,-3.0412,-3.0531,-3.0987,-2.889,-2.9364,-3.1021,-2.9634,-3.0006,-3.119,-0.977,-0.986,0.0,0.0,0.0,0.0,0.0,0.0,0.0,0.0,0.0,0.0,0.0,0.0,0.0,0.0,0.0,-0.568,0.0,0.0,0.0,0.0,-0.8966,0.0,-1.2712,-1.2515,-1.2425,-1.2552,-1.2971,0.0,0.0,0.0,0.0,0.0,-1.3589,0.0,-1.4,0.0,0.0,0.0,0.0,0.0,0.0,-1.5809,-1.612,-1.6522,-1.6522,-1.6522,-1.6423,0.0,-1.5365,0.0,0.0,0.0,0.0,0.0,0.0,0.0,0.0,0.0,0.0,0.0,0.0,0.0,-1.5561,0.0,-1.6455,0.0,0.0,0.0,0.0,0.0,0.0,0.0,-1.6705,0.0,0.0,0.0,0.0,0.0,0.0,0.0,0.0,0.0,0.0,0.0,-2.1231,-2.1874,-2.2679,-2.2921,-2.3236,-2.3595,-2.4116,-2.4672,-2.5182,-2.5726,-2.6227,-2.6691,-2.7012,-2.7402,-2.7806,-2.8448,-2.9025,-2.9448,-2.9448,-2.9871,-3.0497,-2.977,-3.0142,-3.1021,-2.9194,-2.96,-3.1072,-3.0023,-3.0294,-3.119,-0.9313,0.0,0.0,0.0,0.0,0.0,0.0,0.0,0.0,0.0,0.0,0.0,-0.2409,-0.3585,0.0,0.0,-0.6562,-0.7258,0.0,0.0,-0.8558,0.0,0.0,0.0,0.0,-1.2344,-1.2187,-1.2452,0.0,0.0,0.0,0.0,0.0,0.0,0.0,-1.4249,-1.4537,0.0,0.0,-1.5416,-1.5465,-1.5479,-1.5592,-1.6237,-1.6522,-1.6522,-1.6522,-1.638,-1.6151,-1.5555,-1.496,0.0,-1.4247,0.0,0.0,0.0,0.0,0.0,-1.4177,0.0,0.0,0.0,0.0,0.0,0.0,0.0,0.0,0.0,0.0,0.0,0.0,0.0,0.0,0.0,0.0,0.0,0.0,0.0,0.0,0.0,0.0,0.0,0.0,0.0,0.0,-2.0124,-2.0595,-2.1227,-2.2124,-2.258,-2.3028,-2.3325,-2.4024,-2.4672,-2.5182,-2.5726,-2.6227,-2.6691,-2.6894,-2.7283,-2.7789,-2.8044,-2.8569,-2.9279,-2.9076,-2.9516,-3.0345,-2.96,-3.004,-3.1089,-3.0006,-3.0243,-3.1106,-3.0378,-3.0565,-3.119,-0.9768,-0.9478,0.0,0.0,0.0,0.0,0.0,0.0,0.0,0.0,0.0,0.0,0.0,0.0,0.0,0.0,0.0,-0.9719,-0.9831,0.0,-1.0498,0.0,0.0,-1.1049,0.0,0.0,0.0,0.0,0.0,0.0,0.0,0.0,0.0,0.0,0.0,-1.3439,-1.4451,-1.5002,-1.5641,-1.6219,-1.5623,-1.5477,-1.5672,0.0,-1.6522,-1.6522,-1.6522,0.0,0.0,-1.4926,-1.4329,0.0,0.0,0.0,0.0,0.0,0.0,0.0,0.0,0.0,0.0,-1.407,0.0,0.0,0.0,0.0,-1.5524,0.0,0.0,0.0,0.0,0.0,0.0,0.0,0.0,0.0,0.0,0.0,0.0,0.0,0.0,0.0,0.0,0.0,0.0,-1.8762,-2.0329,-2.113,-2.0767,-2.2369,-2.3111,-2.2753,-2.3836,-2.4672,-2.5182,-2.5726,-2.6227,-2.6708,-2.7435,-2.7772,-2.7806,-2.8602,-2.9364,-3.0023,-2.9296,-2.9803,-3.1106,-3.0378,-3.0514,-3.119,-3.114,-3.1157,-3.1106,-3.0378,-3.0565,-3.119,0.0,0.0,0.0,0.0,0.0,0.0,0.0,-0.1779,0.0,0.0,0.0,0.0,0.0,-0.7615,-0.847,0.0,0.0,-1.026,-1.0372,-1.0611,0.0,0.0,0.0,-1.1618,0.0,0.0,0.0,0.0,0.0,0.0,0.0,0.0,0.0,0.0,0.0,-1.4123,0.0,0.0,0.0,0.0,0.0,-1.4635,-1.5107,0.0,0.0,-1.6466,-1.6051,-1.5764,0.0,-1.4457,-1.3956,-1.3684,-1.3104,-1.3342,-1.3947,-1.4279,-1.5048,0.0,0.0,0.0,-1.63,-1.5324,0.0,0.0,0.0,0.0,0.0,0.0,0.0,0.0,0.0,0.0,0.0,0.0,0.0,0.0,0.0,0.0,0.0,0.0,0.0,0.0,0.0,0.0,0.0,-1.8702,-1.9886,-2.0676,-2.0692,-2.1927,-2.2653,-2.2709,-2.3477,-2.4307,-2.5182,-2.5373,-2.5855,-2.6708,-2.7469,-2.8095,-2.8602,-2.8873,-2.9397,-3.0074,-2.9313,-2.955,-3.0446,-3.0209,-3.0531,-3.119,-3.119,-3.119,-3.1157,-3.092,-3.0987,-3.119,-0.9058,0.0,0.0,0.0,0.0,0.0,0.0,0.0,0.0,0.0,-0.5572,0.0,-0.8055,0.0,-0.9045,0.0,-1.0426,-1.0711,-1.1131,-1.141,0.0,-1.2569,-1.1908,0.0,0.0,0.0,0.0,0.0,0.0,-1.3073,0.0,0.0,0.0,0.0,0.0,0.0,0.0,0.0,-1.5608,0.0,0.0,-1.4283,0.0,0.0,-1.5876,-1.5788,0.0,-1.5141,-1.4858,-1.4039,-1.3637,-1.342,-1.3017,-1.3342,-1.3988,-1.4608,-1.5559,-1.6477,-1.7086,-1.7433,0.0,-1.6271,-1.6258,0.0,-1.4966,0.0,0.0,0.0,0.0,0.0,0.0,0.0,0.0,0.0,0.0,0.0,0.0,-1.5604,0.0,0.0,0.0,0.0,0.0,0.0,-1.826,-1.8894,-1.9725,-2.0369,0.0,0.0,-2.257,-2.2576,-2.323,-2.4116,-2.5182,-2.5477,-2.6101,-2.7114,-2.8146,-2.8907,-2.9381,-2.916,-2.9602,-3.0446,-2.9479,-2.9487,-3.0191,-3.0403,-3.0634,-3.0878,-3.1112,-3.119,-3.119,-3.119,-3.119,-3.119,0.0,0.0,0.0,0.0,-0.4635,0.0,0.0,0.0,-0.4173,0.0,-0.6685,-0.7902,-0.8591,-0.8833,-0.9416,-1.0464,-1.078,-1.1268,-1.2229,-1.1881,0.0,0.0,-1.2665,-1.2831,-1.4851,0.0,0.0,0.0,0.0,0.0,0.0,0.0,0.0,0.0,-1.2225,0.0,-1.3718,-1.397,-1.46,-1.5454,-1.4835,-1.4283,-1.3815,-1.4422,-1.4652,-1.4606,-1.4652,-1.4283,-1.3815,-1.3779,-1.3372,-1.2881,-1.2881,-1.29,-1.3204,-1.4747,-1.5811,-1.6535,-1.7057,-1.7739,-1.8016,-1.6886,0.0,0.0,0.0,0.0,-1.6371,0.0,0.0,0.0,0.0,0.0,0.0,0.0,0.0,0.0,0.0,0.0,0.0,0.0,0.0,0.0,0.0,-1.6726,-1.7453,-1.9214,-1.975,0.0,0.0,0.0,-2.2765,-2.2353,-2.3197,-2.4158,-2.5221,-2.5894,-2.6771,-2.7806,-2.9347,-3.0036,-3.0032,-2.9513,-2.9935,-3.1021,-2.9772,-2.9609,-3.0293,-3.0878,-3.0797,-3.0351,-3.0918,-3.119,-3.119,-3.119,-3.119,-3.119,-0.7472,-0.6435,-0.5544,0.0,-0.5047,-0.4137,0.0,0.0,0.0,0.0,-0.9091,-1.0629,-1.2134,-1.1837,-1.1886,-1.2613,-1.2429,0.0,0.0,0.0,0.0,-1.4496,-1.3443,-1.3466,-1.4802,-1.4037,0.0,-1.3644,0.0,0.0,-1.2922,0.0,0.0,0.0,0.0,0.0,-1.4006,-1.441,-1.4488,-1.4226,-1.361,-1.3296,0.0,0.0,-1.3742,-1.343,-1.3873,-1.3909,-1.3732,-1.3286,-1.3017,-1.2881,-1.2881,-1.3096,-1.3631,-1.5012,-1.6093,-1.71,-1.8239,-1.8933,-1.9133,-1.8041,-1.7777,-1.7513,0.0,0.0,0.0,0.0,0.0,0.0,0.0,0.0,0.0,0.0,0.0,0.0,0.0,0.0,0.0,-1.5049,0.0,0.0,-1.6009,-1.6907,-1.777,-1.861,-1.9435,0.0,0.0,0.0,0.0,-2.2873,-2.3732,-2.4697,-2.5762,-2.5605,-2.6265,-2.7806,-2.8805,-2.9345,-2.944,-2.9865,-2.9943,-2.9848,-2.9479,-2.9452,-2.9629,-2.9805,-3.0038,-3.0309,-3.0477,-3.0797,-3.119,-3.119,-3.119,-3.119,-0.6841,0.0,0.0,-0.5164,0.0,0.0,-0.4043,0.0,0.0,-0.8301,-0.9735,0.0,-1.2152,-1.226,-1.2492,-1.3123,-1.3039,0.0,-1.3752,0.0,0.0,-1.4294,-1.3911,-1.4161,-1.5128,-1.4411,0.0,-1.4493,0.0,0.0,-1.3363,0.0,0.0,0.0,0.0,-1.3208,0.0,-1.4553,-1.4225,-1.3372,-1.3065,0.0,0.0,-1.3286,-1.32,-1.2929,-1.3286,-1.342,-1.3324,-1.3017,-1.2881,-1.2881,-1.2881,-1.3047,-1.3462,-1.4644,-1.5631,-1.6672,-1.8099,-1.8957,-1.9321,-1.8719,-1.8744,-1.8555,-1.72,-1.7275,-1.7551,0.0,-1.7282,-1.7372,0.0,0.0,0.0,0.0,0.0,0.0,0.0,0.0,0.0,0.0,-1.5319,0.0,-1.5769,-1.7136,-1.8129,-1.8377,-1.91,0.0,0.0,0.0,0.0,-2.2518,-2.3756,-2.4776,-2.5652,-2.5986,-2.6891,-2.8332,-2.9173,-2.9603,-2.97,-2.9567,-2.9319,-2.8942,-2.9007,-2.8823,-2.86,-2.9188,-2.9585,-2.9935,-3.0477,-3.0878,-3.119,-3.119,-3.119,-3.119,0.0,0.0,0.0,0.0,0.0,0.0,0.0,-0.646,0.0,-0.8911,0.0,-1.0665,-1.1031,-1.1688,-1.2361,-1.2969,0.0,-1.357,-1.4095,-1.4216,-1.4152,-1.3999,-1.4286,-1.4849,-1.556,-1.492,-1.4865,0.0,0.0,0.0,0.0,0.0,0.0,0.0,0.0,0.0,0.0,-1.452,-1.4025,-1.2881,-1.2881,-1.2881,-1.2929,-1.2968,-1.2978,-1.2929,-1.2968,-1.2978,-1.2881,-1.2881,-1.2881,-1.2881,-1.2881,-1.2881,-1.3086,-1.4153,-1.4936,-1.5882,-1.7523,-1.8485,-1.8995,-1.912,-1.9472,-1.9434,-1.8016,-1.8442,-1.8995,-1.8518,-1.8041,-1.8287,0.0,0.0,0.0,0.0,0.0,0.0,0.0,0.0,0.0,0.0,0.0,0.0,-1.5769,-1.7227,-1.8207,0.0,0.0,0.0,0.0,0.0,0.0,-2.2143,-2.3755,-2.4878,-2.5426,0.0,-2.7914,-2.8925,-2.9772,-3.011,-3.0038,-2.8966,-2.8451,-2.8319,-2.8373,-2.8076,-2.7597,-2.879,-2.9361,-2.9629,-3.0757,-3.1151,-3.1095,-3.1095,-3.1015,-3.0975,0.0,0.0,0.0,0.0,0.0,-0.7147,-0.8126,-0.9589,-1.0987,-1.2015,-1.2299,-1.269,-1.3402,-1.3356,-1.3525,-1.4247,-1.4594,0.0,0.0,0.0,0.0,-1.4892,-1.4966,-1.5081,-1.535,-1.5268,-1.5163,0.0,0.0,0.0,0.0,0.0,0.0,0.0,0.0,0.0,-1.397,-1.4463,0.0,-1.2881,-1.2881,-1.2881,-1.2978,-1.3467,-1.3324,-1.2978,-1.3457,-1.3324,-1.2881,-1.2881,-1.2881,-1.2881,-1.2881,-1.2881,-1.3123,-1.4298,-1.5065,-1.5898,-1.7665,-1.8571,-1.9133,-1.956,-1.9736,-1.9723,-1.9447,-1.9522,-1.9635,-1.9547,-1.9447,-1.9144,-1.8448,0.0,0.0,0.0,0.0,0.0,0.0,0.0,0.0,0.0,0.0,-1.6832,0.0,0.0,0.0,0.0,0.0,0.0,0.0,0.0,0.0,0.0,-2.5222,0.0,0.0,0.0,-2.7708,-2.8414,-2.9091,-2.9178,-2.8826,-2.8606,-2.8209,-2.7713,-2.775,-2.7685,-2.7644,-2.8369,-2.9225,-3.0208,-3.0918,-3.0878,-3.0477,-3.0477,-3.0123,-2.9858,0.0,0.0,0.0,0.0,0.0,0.0,0.0,-1.2053,0.0,-1.2851,-1.2887,-1.3058,-1.3435,-1.3691,-1.4133,-1.4974,-1.5174,-1.561,-1.6465,-1.5741,-1.5139,-1.4972,-1.4952,0.0,-1.5193,-1.4671,-1.4674,-1.5168,0.0,0.0,0.0,0.0,0.0,0.0,0.0,-1.3564,0.0,0.0,0.0,-1.2881,-1.2881,-1.2881,-1.2929,-1.3238,-1.3152,-1.2929,-1.3238,-1.3152,-1.2881,-1.2881,-1.2881,-1.2881,-1.2881,-1.3104,-1.3552,-1.4422,-1.5097,-1.5857,-1.7371,-1.8179,-1.8656,-1.8907,-1.9397,-1.9736,-1.9459,-1.961,-1.9798,-1.9798,-1.9798,-1.9472,-1.8487,-1.761,0.0,0.0,0.0,0.0,0.0,0.0,0.0,0.0,0.0,0.0,0.0,0.0,0.0,0.0,0.0,0.0,0.0,0.0,0.0,0.0,0.0,0.0,0.0,0.0,0.0,-2.8199,-2.8629,-2.8726,-2.8511,-2.8189,-2.7663,-2.7081,-2.7475,-2.743,-2.718,-2.8451,-2.9496,-3.0351,-3.0617,-3.0576,-3.0251,-2.9951,-2.9629,-2.9499,0.0,-0.75,0.0,0.0,-1.0292,0.0,-1.3548,-1.3804,-1.3638,-1.3467,-1.3375,-1.3281,-1.3281,-1.3877,-1.4599,-1.5527,-1.5464,-1.577,-1.6656,-1.5879,-1.5264,-1.4932,-1.4922,-1.5039,-1.5237,-1.4417,-1.4492,0.0,0.0,0.0,0.0,0.0,0.0,0.0,0.0,0.0,0.0,0.0,-1.36,-1.3018,-1.3105,-1.3154,-1.3135,-1.3047,-1.3018,-1.2998,-1.291,-1.2881,-1.2881,-1.2881,-1.2881,-1.2881,-1.2881,-1.3334,-1.3909,-1.4514,-1.5222,-1.6008,-1.7252,-1.7953,-1.8405,-1.8518,-1.9183,-1.9698,-1.9284,-1.951,-1.9798,-1.9798,-1.9798,-1.9522,-1.866,-1.8093,0.0,0.0,0.0,0.0,0.0,0.0,0.0,0.0,0.0,0.0,0.0,0.0,0.0,0.0,0.0,0.0,0.0,0.0,0.0,0.0,0.0,-2.5416,-2.588,0.0,-2.7154,-2.7985,-2.8355,-2.8415,-2.8286,-2.781,-2.729,-2.6826,-2.735,-2.7375,-2.7119,-2.8591,-2.9585,-3.0123,-3.0123,-3.0038,-2.9848,-2.9361,-2.9134,-2.9012,0.0,0.0,0.0,0.0,0.0,0.0,-1.3901,-1.4354,-1.4698,-1.5119,-1.4836,-1.4609,-1.4609,-1.4678,-1.5019,-1.5817,-1.5608,-1.5728,-1.6476,-1.5843,-1.5391,-1.5352,-1.5352,-1.5432,-1.5641,-1.5546,-1.5706,0.0,0.0,-1.4576,0.0,0.0,0.0,0.0,0.0,0.0,0.0,-1.4129,-1.4012,-1.3486,-1.3857,-1.4014,-1.3975,-1.3594,-1.3447,-1.3398,-1.3018,-1.2881,-1.2881,-1.2881,-1.2881,-1.2881,-1.2881,-1.3334,-1.3909,-1.4514,-1.5476,-1.6606,-1.7812,-1.853,-1.907,-1.9535,-1.9723,-1.9798,-1.9748,-1.9761,-1.9798,-1.9798,-1.9798,-1.9321,-1.7831,-1.8616,-1.9277,0.0,0.0,0.0,0.0,0.0,0.0,0.0,0.0,0.0,0.0,-1.7924,0.0,0.0,0.0,0.0,0.0,0.0,0.0,-2.2681,0.0,-2.5227,-2.5461,-2.6772,-2.7503,-2.7663,-2.8225,-2.8222,-2.766,-2.7625,-2.7595,-2.7535,-2.7595,-2.7864,-2.8338,-2.8528,-2.8966,-2.9496,-2.9496,-2.9134,-2.8654,-2.8606,-2.8222,-2.7851,0.0,0.0,0.0,0.0,0.0,0.0,0.0,-1.4685,-1.4478,-1.5303,-1.5049,-1.4785,-1.4785,-1.4785,-1.5099,-1.5836,-1.5592,-1.569,-1.6436,-1.5806,-1.541,-1.541,-1.541,-1.5448,-1.5499,-1.5295,-1.5409,0.0,0.0,0.0,0.0,0.0,0.0,0.0,0.0,-1.4041,-1.3996,-1.4134,-1.4076,-1.3844,-1.4009,-1.4077,-1.4058,-1.3945,-1.373,-1.3486,-1.332,-1.3096,-1.2881,-1.2881,-1.2881,-1.2881,-1.2881,-1.3563,-1.443,-1.5009,-1.6044,-1.7189,-1.7994,-1.8606,-1.9033,-1.9284,-1.9572,-1.9798,-1.9798,-1.9798,-1.9798,-1.9798,-1.9798,-1.9597,-1.8957,-1.8844,-1.8929,-1.9134,0.0,0.0,0.0,0.0,0.0,0.0,0.0,0.0,0.0,0.0,0.0,0.0,0.0,0.0,0.0,0.0,0.0,-2.2297,0.0,-2.5456,-2.5863,-2.6581,-2.7111,-2.7481,-2.7811,-2.781,-2.7625,-2.7625,-2.7625,-2.7625,-2.7625,-2.7944,-2.8511,-2.8511,-2.8873,-2.9361,-2.9012,-2.8685,-2.851,-2.8564,-2.8429,-2.8293,-1.3608,0.0,-1.4447,0.0,-1.4541,-1.4142,-1.6107,-1.5198,-1.4523,-1.5284,-1.5156,-1.4971,-1.4971,-1.4971,-1.5186,-1.5714,-1.5568,-1.5642,-1.6151,-1.57,-1.541,-1.541,-1.541,0.0,-1.541,-1.5117,-1.5299,-1.5956,-1.5038,0.0,0.0,0.0,0.0,0.0,-1.4622,-1.4287,-1.4346,-1.435,-1.4326,-1.4336,-1.4408,-1.4457,-1.4492,-1.4375,-1.4141,-1.3867,-1.374,-1.3496,-1.3232,-1.3105,-1.3154,-1.3232,-1.3105,-1.4045,-1.5202,-1.5598,-1.6741,-1.7953,-1.8342,-1.8844,-1.9258,-1.9258,-1.9522,-1.9798,-1.9798,-1.9798,-1.9798,-1.9798,-1.9798,-1.9798,-1.9798,-1.9183,-1.892,-1.9673,0.0,0.0,0.0,0.0,0.0,0.0,-1.9991,-1.96,-2.0439,0.0,0.0,0.0,0.0,0.0,0.0,0.0,0.0,0.0,0.0,0.0,0.0,-2.6321,-2.6871,-2.7469,-2.7534,-2.7625,-2.7625,-2.7625,-2.7625,-2.7625,-2.7625,-2.786,-2.8238,-2.8238,-2.8511,-2.881,-2.8415,-2.836,-2.8556,-2.8568,-2.8727,-2.8981,-1.452,-1.4987,-1.5718,-1.6868,-1.6862,-1.6634,-1.6668,-1.594,-1.541,-1.541,-1.541,-1.54,-1.54,-1.54,-1.54,-1.541,-1.541,-1.541,-1.541,-1.541,-1.541,0.0,0.0,-1.541,-1.541,-1.541,-1.5748,-1.6482,0.0,0.0,-1.5981,0.0,-1.4906,-1.593,-1.4721,-1.4427,-1.4766,-1.4775,-1.4775,-1.4814,-1.5225,-1.5391,-1.5352,-1.4932,-1.4775,-1.4717,-1.4277,-1.4068,-1.4,-1.3643,-1.3779,-1.4,-1.3633,-1.4736,-1.6165,-1.6165,-1.7499,-1.8958,-1.897,-1.9397,-1.9798,-1.9798,-1.9798,-1.9798,-1.9798,-1.9798,-1.9798,-1.9798,-1.9798,-1.9798,-1.9798,-1.9798,-1.9786,-1.9798,0.0,0.0,0.0,0.0,0.0,0.0,-1.8533,-1.8647,-1.9986,0.0,0.0,0.0,0.0,0.0,0.0,0.0,0.0,-2.23,-2.3603,0.0,-2.4627,-2.5944,-2.6916,-2.761,-2.761,-2.7625,-2.7625,-2.7625,-2.7625,-2.7625,-2.7625,-2.761,-2.7625,-2.7625,-2.7625,-2.7625,-2.761,-2.8045,-2.8592,-2.8592,-2.9011,-2.9654,-1.6967,-1.6412,-1.5846,-1.5318,-1.5557,-1.5788,-1.579,-1.5596,-1.541,-1.541,-1.541,-1.541,-1.541,-1.541,-1.541,0.0,-1.5684,-1.5859,0.0,-1.5859,-1.5986,-1.6299,-1.5732,-1.5557,-1.585,-1.5566,-1.5526,-1.5748,0.0,0.0,0.0,-1.6577,-1.6192,-1.5462,-1.458,-1.3953,-1.3551,-1.3551,-1.3906,-1.4394,-1.4514,-1.4923,-1.54,-1.5264,-1.5039,-1.4766,-1.4629,-1.4385,-1.4058,-1.3922,-1.4219,-1.4551,-1.4424,-1.5195,-1.6244,-1.6643,-1.7847,-1.9058,-1.9459,-1.9673,-1.9798,-1.9798,-1.9798,-1.9798,-1.9798,-1.9798,-1.9798,-1.9798,-1.9798,-1.9798,-1.9798,-1.9798,-1.9798,-1.9798,-2.0003,0.0,0.0,0.0,0.0,0.0,-1.9698,-1.9774,0.0,-2.0196,0.0,0.0,0.0,0.0,0.0,0.0,0.0,0.0,-2.4458,0.0,-2.53,-2.6602,-2.7415,-2.7625,-2.7625,-2.7625,-2.7625,-2.7625,-2.7625,-2.7625,-2.7625,-2.7625,-2.7625,-2.7625,-2.7625,-2.767,-2.8083,-2.8412,-2.8712,-2.9579,-3.0028,-3.0238,-1.7486,-1.71,-1.6475,-1.4949,-1.41,-1.4001,-1.5219,-1.541,-1.541,-1.541,-1.541,-1.541,-1.541,-1.541,0.0,-1.5644,-1.5752,-1.6138,-1.6759,-1.6678,-1.6789,-1.7191,-1.6668,-1.6387,-1.6309,-1.5879,0.0,-1.5654,-1.5615,-1.5821,-1.6221,-1.6294,-1.5783,-1.4828,-1.4058,-1.3485,-1.3009,-1.3009,-1.3312,-1.3786,-1.4085,-1.451,-1.4991,-1.5294,-1.5244,-1.5019,-1.5019,-1.4844,-1.459,-1.4434,-1.4668,-1.499,-1.4834,-1.5664,-1.6782,-1.7148,-1.8199,-1.9384,-1.971,-1.9798,-1.9798,-1.9798,-1.9798,-1.9798,-1.9798,-1.9798,-1.9798,-1.9798,-1.9798,-1.9798,-1.9798,-1.9798,-1.9798,-1.9798,-1.9798,-1.9798,-1.9798,0.0,0.0,0.0,0.0,0.0,0.0,-2.0027,-2.0232,0.0,0.0,0.0,0.0,0.0,0.0,-2.2817,-2.527,0.0,-2.5974,-2.7036,-2.7625,-2.7625,-2.7625,-2.7625,-2.7625,-2.7625,-2.7625,-2.7625,-2.7625,-2.7625,-2.7625,-2.7625,-2.7625,-2.7685,-2.8323,-2.8742,-2.9101,-3.0118,-3.0672,-3.0896,-1.6631,-1.7139,-1.7324,0.0,-1.2931,0.0,-1.4934,-1.541,-1.541,-1.541,-1.541,-1.541,-1.541,-1.541,-1.5596,-1.6125,0.0,0.0,0.0,-1.7634,-1.7613,-1.807,-1.7996,-1.7544,-1.6728,-1.626,-1.6076,-1.6076,-1.5635,-1.5342,-1.5197,-1.456,-1.4136,-1.3936,-1.3218,-1.2887,-1.2826,-1.2826,-1.2887,-1.3009,-1.3786,-1.4145,-1.4273,-1.5108,-1.541,-1.541,-1.541,-1.541,-1.5352,-1.4961,-1.5088,-1.5342,-1.4951,-1.6137,-1.7578,-1.7578,-1.8661,-1.9798,-1.9798,-1.9798,-1.9798,-1.9798,-1.9798,-1.9798,-1.9798,-1.9798,-1.9798,-1.9798,-1.9836,-1.9861,-1.9861,-1.9861,-1.9861,-1.9861,-1.9823,-1.9798,-1.9798,0.0,0.0,0.0,0.0,0.0,0.0,-1.9146,-2.0089,0.0,0.0,0.0,0.0,0.0,-2.3924,-2.4567,-2.5899,-2.6587,-2.6587,-2.7245,-2.7625,-2.7625,-2.7625,-2.7625,-2.7625,-2.767,-2.767,-2.7625,-2.767,-2.767,-2.7625,-2.7625,-2.7625,-2.7685,-2.8382,-2.9041,-2.9669,-3.0328,-3.0986,-3.1482,0.0,0.0,-1.5898,-1.5482,-1.4757,-1.4526,-1.5248,-1.541,-1.541,-1.541,-1.541,-1.541,-1.541,-1.541,-1.5723,-1.6504,-1.6162,-1.6487,-1.7892,-1.788,-1.8185,-1.8942,-1.8078,-1.7265,-1.6719,-1.5967,-1.5566,-1.5566,-1.5792,-1.5417,-1.4492,-1.4638,-1.3874,-1.2358,-1.2128,-1.1717,-1.1178,-1.1178,-1.1538,-1.2143,-1.294,-1.3666,-1.4273,-1.5108,-1.541,-1.541,-1.541,-1.541,-1.54,-1.5293,-1.5332,-1.5391,-1.5293,-1.6331,-1.7578,-1.7578,-1.8661,-1.9798,-1.9798,-1.9798,-1.9798,-1.9798,-1.9798,-1.9798,-1.9798,-1.9798,-1.9798,-1.9798,-2.0162,-2.0517,-2.0517,-2.0517,-2.0517,-2.0517,-2.0087,-1.9798,-1.9798,-1.9798,0.0,0.0,-1.9422,-1.9472,-1.9598,-1.9648,-1.9868,0.0,0.0,0.0,0.0,-2.3067,-2.3924,-2.4567,-2.5899,-2.6587,-2.6587,-2.7245,-2.7625,-2.7625,-2.7625,-2.7625,-2.764,-2.8113,-2.8068,-2.7655,-2.8128,-2.8053,-2.7625,-2.7625,-2.7625,-2.7745,-2.8891,-2.9445,-2.9729,-3.0866,-3.1332,-3.1482,-1.6435,-1.4567,-1.3219,-1.3223,-1.3182,-1.3726,-1.5162,-1.5407,-1.5381,-1.542,-1.541,-1.541,-1.541,-1.541,-1.5684,-1.6367,-1.6618,-1.7417,-1.9057,-1.8833,-1.892,-1.9522,-1.8358,-1.7175,-1.6182,-1.5487,-1.4883,-1.4332,-1.4934,-1.4496,-1.3114,-1.3333,-1.2709,-1.1226,-1.1226,-1.0989,-1.0624,-1.0624,-1.0863,-1.1351,-1.2151,-1.294,-1.3726,-1.4569,-1.505,-1.541,-1.541,-1.541,-1.541,-1.541,-1.5537,-1.5703,-1.5703,-1.6506,-1.7416,-1.7416,-1.8297,-1.9371,-1.9695,-1.9319,-1.8874,-1.9202,-1.9527,-1.9798,-1.9798,-1.9798,-1.9798,-1.9798,-2.0263,-2.0643,-2.0326,-2.0489,-2.063,-2.0313,-1.9811,-1.9522,-1.9773,-1.9597,0.0,-1.9773,-1.9798,-1.9798,-1.9798,-1.9798,-1.9927,-2.0214,-2.0609,0.0,-2.1654,-2.2374,-2.3478,-2.5,-2.6063,-2.6737,-2.7036,-2.7445,-2.7625,-2.7625,-2.7625,-2.779,-2.8038,-2.8098,-2.8098,-2.8038,-2.8113,-2.775,-2.7137,-2.7458,-2.7408,-2.724,-2.8621,-2.931,-2.9699,-3.0702,-3.127,-3.1482,-1.5708,-1.283,-1.0581,-1.0613,-1.0601,-1.1606,-1.4605,-1.5217,-1.539,-1.5391,-1.5391,-1.54,-1.5429,-1.5381,-1.5605,-1.6113,-1.7059,-1.844,-2.0389,-1.9749,-1.9467,-1.9879,-1.8513,-1.6999,-1.5423,-1.4917,-1.4057,-1.3009,-1.3545,-1.3114,-1.1834,-1.171,-1.1226,-1.0624,-1.0624,-1.0651,-1.0685,-1.0645,-1.0651,-1.0749,-1.149,-1.2205,-1.2948,-1.3846,-1.4628,-1.5225,-1.5352,-1.541,-1.542,-1.5488,-1.5752,-1.6135,-1.6143,-1.6658,-1.7183,-1.7183,-1.7743,-1.8555,-1.9423,-1.8821,-1.8058,-1.8715,-1.9319,-1.9798,-1.9798,-1.9798,-1.9798,-1.9798,-2.0263,-2.0514,-2.0024,-2.0338,-2.0555,-2.0012,-1.9497,-1.9296,-1.9748,0.0,-1.9334,-1.9874,-1.9861,-1.9836,-1.9924,-1.9849,-2.0055,-2.0597,-2.0746,-2.1028,-2.152,-2.1649,-2.2762,-2.5062,-2.5886,-2.6747,-2.761,-2.7625,-2.7625,-2.7625,-2.7625,-2.7874,-2.8427,-2.7949,-2.7993,-2.8427,-2.7831,-2.7174,-2.6563,-2.7034,-2.6982,-2.6621,-2.7942,-2.8889,-2.9654,-3.0283,-3.0941,-3.1482,-1.5937,-1.283,-1.0595,-1.0581,-1.0615,-1.1209,-1.3092,-1.4557,-1.5381,-1.5414,-1.5418,-1.54,-1.5405,-1.537,-1.5651,-1.6254,-1.7729,-1.9026,-1.9929,-1.9558,-1.9467,-1.9879,-1.7653,-1.5943,-1.5023,-1.3891,-1.3189,-1.3009,-1.2443,-1.2012,-1.1772,-1.1108,-1.0744,-1.0624,-1.0624,-1.0759,-1.0909,-1.0732,-1.0701,-1.0967,-1.1578,-1.1896,-1.2143,-1.3657,-1.4273,-1.451,-1.5167,-1.541,-1.5469,-1.584,-1.6066,-1.6133,-1.6514,-1.6849,-1.7183,-1.7183,-1.7022,-1.7146,-1.8489,-1.915,-1.9475,-1.9579,-1.9695,-1.9798,-1.9798,-1.9798,-1.9798,-1.9798,-2.0263,-2.0693,-2.0605,-2.0655,-2.0693,-2.0605,-2.0049,-1.971,-1.9798,0.0,-1.9899,-2.0464,-2.01,-1.9987,-2.0489,-2.0087,-1.985,-1.9952,-2.0497,-2.0845,-2.093,-2.1424,-2.2138,-2.3119,-2.4345,-2.5815,-2.756,-2.7625,-2.7625,-2.7625,-2.7625,-2.7619,-2.779,-2.8218,-2.8173,-2.7754,-2.7612,-2.7108,-2.6457,-2.5946,-2.6054,-2.6568,-2.7364,-2.8468,-2.9654,-3.0283,-3.0941,-3.1482,-1.5977,-1.283,-1.0602,-1.0609,-1.2035,-1.3133,-1.3033,-1.2906,-1.3464,-1.5164,-1.6754,-1.7143,-1.5575,-1.542,-1.572,-1.6429,-1.7236,-1.8467,-2.0161,-1.989,-1.9227,-1.829,-1.6432,-1.4787,-1.324,-1.2653,-1.2151,-1.1725,-1.1772,-1.1593,-1.117,-1.0744,-1.0624,-1.0624,-1.0624,-1.0698,-1.0762,-1.0782,-1.0782,-1.0904,-1.1977,-1.2519,-1.2931,-1.4382,-1.5026,-1.5302,-1.5914,-1.5967,-1.583,-1.6279,-1.6582,-1.6807,-1.7021,-1.703,-1.691,-1.691,-1.727,-1.7688,-1.7523,-1.8608,-1.9695,-1.9319,-1.9527,-1.9798,-1.9798,-1.9798,-1.9798,-1.9798,-2.0263,-2.0618,-2.0263,-2.0451,-2.0618,-2.025,-1.9748,0.0,0.0,-1.956,-1.9585,-2.0137,-1.9962,-1.9911,-2.0175,-1.9962,-1.9798,-1.9798,-2.0105,-2.0245,-2.0245,-2.0521,-2.112,-2.2187,-2.3844,-2.5438,-2.7036,-2.7036,-2.7215,-2.7625,-2.7625,-2.8,-2.8637,-2.8233,-2.8442,-2.9101,-2.7584,-2.6754,-2.637,-2.5702,-2.5342,-2.537,-2.6091,-2.7186,-2.8354,-2.8642,-2.936,-3.0133,-1.5848,-1.2813,-1.0602,-1.0602,-1.3273,-1.471,-1.2736,-1.2059,-1.2619,-1.5088,-1.7983,-1.8666,-1.5729,-1.5391,-1.5692,-1.6345,-1.6387,-1.7423,-1.9836,-1.9626,-1.8889,-1.7718,-1.5489,-1.3414,-1.1538,-1.1597,-1.1297,-1.0624,-1.1297,-1.1297,-1.0624,-1.0624,-1.0624,-1.0624,-1.0624,-1.0658,-1.0739,-1.0902,-1.0902,-1.0931,-1.2306,-1.3146,-1.3566,-1.4947,-1.5713,-1.6004,-1.6539,-1.6514,-1.6289,-1.6728,-1.7109,-1.7402,-1.75,-1.7236,-1.6865,-1.6758,-1.7547,-1.8255,-1.7231,-1.846,-1.9895,-1.9291,-1.947,-1.9798,-1.9798,-1.9798,-1.9798,-1.9798,-2.0162,-2.0273,-1.9666,-1.994,-2.0101,-1.9602,0.0,0.0,0.0,-1.9572,-1.956,-1.9962,-2.0112,-2.0137,-2.0012,-1.9999,-1.9949,-1.9811,-1.9798,-1.9798,-1.9798,-1.9798,-2.0399,-2.1691,-2.3621,-2.5191,-2.6362,-2.654,-2.6867,-2.7357,-2.7357,-2.7861,-2.8777,-2.76,-2.8042,-2.9574,-2.7183,-2.6162,-2.6051,-2.5493,-2.4945,-2.4548,-2.5111,-2.6178,-2.7387,-2.7248,-2.7967,-2.9002,-1.5417,-1.2793,-1.0609,-1.0622,-1.3287,-1.4342,-1.1261,-1.32,-1.5129,-1.5355,-1.7983,-1.8666,-1.5729,-1.5396,-1.5439,-1.5476,-1.5523,-1.6233,-1.8077,-1.8001,-1.857,-2.022,-1.5258,-1.1839,-1.0681,-1.0951,-1.0893,-1.0624,-1.0893,-1.0887,-1.0624,-1.0624,-1.0624,-1.0624,-1.0624,-1.0708,-1.0962,-1.0982,-1.1136,-1.1431,-1.2489,-1.29,-1.3138,-1.4859,-1.5496,-1.5679,-1.6446,-1.6709,-1.6748,-1.7187,-1.7363,-1.7451,-1.7842,-1.7676,-1.7256,-1.6855,-1.7155,-1.7789,-1.8215,-1.9464,-2.0602,-2.0548,-2.02,-1.9798,-1.9798,-1.9798,-1.9798,-1.9798,-1.9836,-1.9629,-1.8939,-1.8804,-1.8815,-1.878,0.0,0.0,-1.9683,-2.0238,-2.0618,-2.0655,-2.1054,-2.1167,-2.0706,-2.0655,-2.0376,-1.9849,-1.9798,-1.9798,-1.9798,-1.9798,-2.036,-2.1588,-2.3521,-2.4878,-2.5684,-2.624,-2.652,-2.6563,-2.6563,-2.6531,-2.6408,-2.58,-2.6174,-2.7179,-2.5827,-2.523,-2.5189,-2.4911,-2.4921,-2.5037,-2.5084,-2.627,-2.7905,-2.74,-2.7967,-2.9002,-1.5398,-1.4409,-1.2953,-1.0974,-1.3253,-1.4995,-1.374,-1.4613,-1.54,-1.5375,-1.6352,-1.6649,-1.5509,-1.5384,-1.4586,-1.2601,-1.2402,-1.2971,-1.4347,-1.5602,-1.6158,-1.5897,-1.2869,-1.1087,-1.0822,-1.0935,-1.0942,-1.0828,-1.0942,-1.0842,-1.0624,-1.0742,-1.0735,-1.0631,-1.0748,-1.0889,-1.1002,-1.1182,-1.1323,-1.1594,-1.3546,-1.4215,-1.4242,-1.6245,-1.6873,-1.6758,-1.729,-1.7353,-1.7197,-1.7627,-1.7598,-1.7461,-1.7881,-1.7539,-1.6958,-1.6991,-1.7739,-1.8644,-1.9043,-1.9667,-2.0213,-2.063,-2.0238,-1.9798,-1.9798,-1.9798,-1.9695,-1.9202,-1.9475,-1.9423,-1.8232,-1.8382,-1.8555,-1.8112,0.0,-1.8821,-1.9097,-1.9713,-2.0263,-2.068,-2.0539,-2.0639,-2.1129,-2.0539,-2.0188,-2.0326,-1.9999,-1.9962,-2.0326,-2.0338,-2.0585,-2.1013,-2.2068,-2.3339,-2.4815,-2.5068,-2.539,-2.5851,-2.6683,-2.6818,-2.6367,-2.6905,-2.7381,-2.7644,-2.6209,-2.5814,-2.608,-2.4536,-2.4258,-2.4848,-2.4227,-2.4999,-2.6518,-2.6296,-2.6726,-2.7484,-1.5415,-1.5422,-1.4713,-1.2519,-1.3914,-1.5393,-1.54,-1.539,-1.5381,-1.5407,-1.538,-1.5419,-1.5387,-1.5428,-1.4257,-1.1374,-1.1108,-1.1308,-1.1723,-1.3067,-1.357,-1.2767,-1.1354,-1.0759,-1.0982,-1.0995,-1.0995,-1.0995,-1.1082,-1.0935,-1.0631,-1.0855,-1.0889,-1.0701,-1.0902,-1.1042,-1.1149,-1.1443,-1.1563,-1.1742,-1.4214,-1.5085,-1.5093,-1.7182,-1.7832,-1.7617,-1.791,-1.7822,-1.7627,-1.791,-1.7822,-1.7627,-1.792,-1.7708,-1.7446,-1.8068,-1.8862,-1.9703,-2.0502,-2.0372,-2.0162,-2.0618,-2.0238,-1.9798,-1.9798,-1.9798,-1.9643,-1.915,-1.9254,-1.9097,-1.7841,-1.7852,-1.7907,-1.7633,-1.8004,-1.8501,-1.8992,-1.9624,-2.0162,-2.0376,-2.0363,-2.0489,-2.0916,-2.0577,-2.0426,-2.0706,-2.0464,-2.0501,-2.0903,-2.097,-2.1004,-2.1179,-2.1543,-2.2493,-2.3968,-2.4258,-2.4585,-2.5077,-2.6175,-2.6464,-2.5907,-2.6777,-2.7393,-2.7601,-2.6382,-2.591,-2.5932,-2.4456,-2.3963,-2.4099,-2.3391,-2.405,-2.5419,-2.5246,-2.5747,-2.6533,-1.5415,-1.5425,-1.5378,-1.5381,-1.538,-1.5379,-1.5381,-1.541,-1.541,-1.541,-1.541,-1.541,-1.541,-1.5425,-1.4585,-1.2464,-1.2291,-1.1805,-1.0733,-1.0616,-1.1107,-1.2153,-1.1199,-1.0759,-1.0982,-1.0995,-1.0995,-1.0995,-1.1289,-1.1136,-1.0631,-1.0862,-1.0995,-1.0995,-1.0995,-1.1156,-1.145,-1.1744,-1.187,-1.2104,-1.4316,-1.5234,-1.5376,-1.7295,-1.8008,-1.8008,-1.8008,-1.8008,-1.8008,-1.8008,-1.8008,-1.8008,-1.8008,-1.8284,-1.8882,-2.0189,-2.0511,-2.0779,-2.2573,-2.192,-2.0731,-2.0731,-2.0238,-1.9798,-1.9811,-1.9798,-1.9798,-1.9798,-1.9202,-1.8447,-1.7743,-1.6978,-1.6765,-1.7468,-1.7578,-1.8124,-1.9592,-2.03,-2.0451,-1.9874,-2.0803,-2.1041,-1.9936,-2.084,-2.1267,-2.0769,-2.1192,-2.1493,-2.1493,-2.1493,-2.1744,-2.2297,-2.2309,-2.2573,-2.3065,-2.3897,-2.4305,-2.4305,-2.4827,-2.4991,-2.482,-2.4833,-2.5423,-2.6496,-2.585,-2.505,-2.4279,-2.479,-2.4118,-2.2726,-2.2715,-2.3672,-2.4945,-2.4422,-2.52,-2.6533,-1.7224,-1.6258,-1.5409,-1.5381,-1.54,-1.541,-1.542,-1.541,-1.541,-1.541,-1.541,-1.54,-1.5399,-1.5403,-1.4534,-1.246,-1.1577,-1.1927,-1.3848,-1.3978,-1.3629,-1.2792,-1.1387,-1.0759,-1.0982,-1.1189,-1.1296,-1.1296,-1.1597,-1.1436,-1.0875,-1.1376,-1.139,-1.1009,-1.1423,-1.1657,-1.1744,-1.183,-1.1991,-1.2396,-1.4411,-1.5234,-1.5376,-1.7295,-1.8008,-1.8008,-1.8008,-1.8008,-1.8008,-1.8008,-1.7812,-1.7568,-1.7568,-1.8253,-1.9253,-1.9816,-2.0415,-2.1008,-2.1753,-2.1619,-2.133,-2.1732,-2.0803,-1.9911,-2.0313,-2.0087,-1.9527,-1.8447,-1.8501,-1.8167,-1.6404,-1.6312,-1.6539,-1.6821,-1.7599,-1.8428,-1.8934,-2.0011,-2.074,-2.0953,-2.0941,-2.1242,-2.2058,-2.1744,-2.1581,-2.1807,-2.197,-2.1895,-2.1506,-2.1857,-2.2133,-2.2297,-2.2309,-2.2573,-2.3065,-2.3771,-2.4096,-2.4109,-2.5654,-2.5818,-2.4845,-2.6232,-2.6488,-2.5862,-2.6101,-2.5697,-2.472,-2.4207,-2.3654,-2.3229,-2.2485,-2.3318,-2.4992,-2.4838,-2.5517,-2.6533,-1.7083,-1.6088,-1.538,-1.5371,-1.541,-1.541,-1.541,-1.541,-1.541,-1.541,-1.541,-1.5391,-1.538,-1.4249,-1.318,-1.2375,-1.2411,-1.3304,-1.5267,-1.4796,-1.3996,-1.3017,-1.1483,-1.0755,-1.1156,-1.1223,-1.1369,-1.1597,-1.1663,-1.1516,-1.1176,-1.165,-1.1683,-1.1356,-1.171,-1.1937,-1.2037,-1.2037,-1.2356,-1.3025,-1.4593,-1.5446,-1.5939,-1.7432,-1.8008,-1.8008,-1.8008,-1.8008,-1.8008,-1.8008,-1.7842,-1.7637,-1.7637,-1.8639,-1.9825,-2.0042,-2.0703,-2.1379,-2.1626,-2.1498,-2.1333,-2.1572,-2.0908,-2.0175,-2.03,-2.0049,-1.9475,-1.8286,-1.8167,-1.7786,-1.614,-1.5979,-1.6316,-1.718,-1.7743,-1.8439,-1.9383,-2.0159,-2.0844,-2.1129,-2.1054,-2.138,-2.2385,-2.2083,-2.2046,-2.2598,-2.2636,-2.2485,-2.2159,-2.246,-2.2636,-2.2636,-2.2636,-2.2912,-2.3477,-2.4042,-2.4217,-2.4017,-2.5653,-2.5935,-2.5159,-2.655,-2.678,-2.595,-2.5946,-2.537,-2.4337,-2.3294,-2.2702,-2.2264,-2.1669,-2.2414,-2.3891,-2.4264,-2.5075,-2.6013,-1.5722,-1.5425,-1.5371,-1.541,-1.541,-1.541,-1.541,-1.5129,-1.5051,-1.5148,-1.5294,-1.5381,-1.54,-1.2753,-1.1453,-1.2473,-1.4341,-1.5348,-1.521,-1.3787,-1.2992,-1.2887,-1.1505,-1.0907,-1.1376,-1.1129,-1.1283,-1.187,-1.1597,-1.1463,-1.147,-1.177,-1.1897,-1.187,-1.1897,-1.2051,-1.2305,-1.2305,-1.2806,-1.3818,-1.4807,-1.579,-1.6706,-1.7647,-1.8008,-1.8008,-1.8008,-1.8008,-1.8008,-1.8008,-1.8008,-1.8008,-1.8008,-1.911,-2.0462,-2.0462,-2.1101,-2.1753,-2.1753,-2.1459,-2.0993,-2.0739,-2.0665,-2.0557,-2.0032,-1.987,-1.9624,-1.8911,-1.8141,-1.7378,-1.6665,-1.5954,-1.6103,-1.8087,-1.8003,-1.8354,-2.0308,-2.0702,-2.0806,-2.0857,-2.1255,-2.1581,-2.1631,-2.2083,-2.2585,-2.3027,-2.3078,-2.3078,-2.3078,-2.3128,-2.3188,-2.3078,-2.3128,-2.3464,-2.3991,-2.4544,-2.4594,-2.4155,-2.5184,-2.5674,-2.5686,-2.6163,-2.6445,-2.6377,-2.5368,-2.435,-2.3385,-2.2382,-2.1451,-2.0566,-2.0566,-2.1221,-2.2253,-2.3147,-2.4253,-2.5487,-1.5482,-1.5401,-1.5371,-1.541,-1.541,-1.541,-1.541,-1.3236,-1.2099,-1.333,-1.4606,-1.5367,-1.539,-1.4805,-1.4444,-1.4708,-1.5126,-1.4864,-1.3604,-1.3203,-1.2696,-1.2074,-1.1955,-1.1588,-1.1082,-1.1022,-1.1283,-1.187,-1.1804,-1.177,-1.1784,-1.2071,-1.2084,-1.1877,-1.2104,-1.2245,-1.2305,-1.2305,-1.2806,-1.3818,-1.4807,-1.579,-1.6706,-1.7647,-1.8008,-1.8008,-1.8008,-1.8008,-1.8008,-1.8008,-1.8008,-1.8008,-1.8008,-1.8721,-1.9552,-1.9552,-2.0204,-2.091,-2.091,-2.1272,-2.1566,-2.1063,-2.0926,-2.0876,-2.0768,-2.0409,-1.9883,-1.9194,-1.8316,-1.7559,-1.6807,-1.6284,-1.6307,-1.728,-1.7961,-1.8668,-1.9677,-2.0686,-2.1468,-2.1895,-2.2058,-2.2297,-2.2736,-2.2887,-2.294,-2.3065,-2.3078,-2.3078,-2.3078,-2.3565,-2.3602,-2.309,-2.3577,-2.3866,-2.4004,-2.4544,-2.4958,-2.5259,-2.595,-2.6264,-2.6264,-2.5937,-2.5787,-2.572,-2.4812,-2.3816,-2.2833,-2.2254,-2.1451,-2.0566,-2.0566,-2.1669,-2.322,-2.3441,-2.5004,-2.7245,-1.6661,-1.5969,-1.5371,-1.541,-1.541,-1.4906,-1.3362,-1.2957,-1.2915,-1.3008,-1.3747,-1.4523,-1.5341,-1.5379,-1.5428,-1.542,-1.541,-1.474,-1.3084,-1.2742,-1.2514,-1.2381,-1.1755,-1.1475,-1.1551,-1.1179,-1.1283,-1.187,-1.187,-1.1944,-1.2078,-1.2231,-1.2225,-1.2084,-1.2231,-1.2305,-1.2305,-1.2305,-1.3091,-1.445,-1.5021,-1.6009,-1.7285,-1.7794,-1.8008,-1.8008,-1.8008,-1.8008,-1.8008,-1.8008,-1.8008,-1.8008,-1.8008,-1.8596,-1.9299,-1.9299,-1.9628,-2.0009,-2.0009,-2.0333,-2.0459,-1.9746,-2.0187,-2.0757,-2.0629,-2.0064,-1.9397,-1.8632,-1.7977,-1.7296,-1.653,-1.6221,-1.6427,-1.7415,-1.7916,-1.8644,-2.0052,-2.0846,-2.1498,-2.2214,-2.2548,-2.2811,-2.3053,-2.3078,-2.3078,-2.3078,-2.3078,-2.3078,-2.3078,-2.369,-2.3728,-2.309,-2.3954,-2.4393,-2.4393,-2.4921,-2.5473,-2.6013,-2.6382,-2.6382,-2.605,-2.6013,-2.585,-2.5544,-2.44,-2.3438,-2.2606,-2.1699,-2.1001,-2.0624,-2.0771,-2.1489,-2.2575,-2.3885,-2.6295,-2.8939,-1.7976,-1.6596,-1.5406,-1.537,-1.5381,-1.4486,-1.1814,-1.3227,-1.4313,-1.3518,-1.2949,-1.3072,-1.4411,-1.5491,-1.5934,-1.5462,-1.537,-1.4749,-1.3126,-1.2482,-1.2364,-1.2757,-1.1421,-1.11,-1.2104,-1.1407,-1.1283,-1.187,-1.187,-1.2017,-1.2305,-1.2445,-1.2519,-1.2519,-1.2519,-1.2519,-1.2519,-1.2372,-1.3448,-1.5234,-1.5234,-1.6298,-1.8008,-1.8008,-1.8008,-1.8008,-1.8008,-1.8008,-1.8008,-1.8008,-1.8008,-1.8008,-1.8008,-1.8529,-1.911,-1.911,-1.911,-1.911,-1.911,-1.9177,-1.911,-1.8395,-1.9299,-2.0303,-2.0093,-1.9467,-1.8801,-1.8155,-1.7677,-1.7124,-1.652,-1.64,-1.6644,-1.775,-1.7853,-1.8502,-2.0505,-2.0949,-2.1356,-2.2318,-2.2862,-2.3078,-2.3078,-2.3078,-2.3115,-2.3276,-2.3188,-2.3175,-2.3276,-2.374,-2.3778,-2.3301,-2.4192,-2.477,-2.4946,-2.5297,-2.5749,-2.6382,-2.6483,-2.6214,-2.5762,-2.6138,-2.605,-2.5544,-2.4001,-2.3084,-2.2606,-2.1202,-2.0712,-2.0884,-2.1217,-2.1647,-2.2413,-2.519,-2.7949,-3.0208,-1.7986,-1.6583,-1.5429,-1.5415,-1.54,-1.5226,-1.4817,-1.2747,-1.2198,-1.474,-1.2636,-1.0989,-1.1234,-1.6026,-1.8195,-1.5604,-1.5391,-1.4737,-1.3097,-1.2485,-1.2119,-1.195,-1.1108,-1.1003,-1.1832,-1.1302,-1.1283,-1.187,-1.187,-1.2017,-1.2298,-1.3091,-1.3528,-1.3528,-1.3528,-1.3528,-1.3455,-1.2659,-1.3448,-1.5234,-1.5234,-1.6298,-1.8008,-1.8008,-1.8008,-1.8008,-1.8008,-1.8008,-1.8008,-1.8008,-1.8008,-1.8008,-1.8008,-1.8076,-1.8212,-1.8212,-1.8212,-1.8212,-1.8212,-1.8721,-1.9299,-1.9177,-1.9299,-1.9465,-1.9403,-1.9306,-1.924,-1.911,-1.8431,-1.7878,-1.7744,-1.7451,-1.7292,-1.7471,-1.7643,-1.8318,-1.9834,-2.0575,-2.1488,-2.2842,-2.3088,-2.3078,-2.3078,-2.3078,-2.3339,-2.3841,-2.3414,-2.3351,-2.3853,-2.3954,-2.3966,-2.3891,-2.4029,-2.4556,-2.5485,-2.5109,-2.5197,-2.5724,-2.6214,-2.6483,-2.6327,-2.59,-2.5674,-2.5532,-2.363,-2.2771,-2.2606,-2.1202,-2.1078,-2.1834,-2.2074,-2.3536,-2.5934,-2.8656,-2.9925,-3.0389,-2.0825,-1.8712,-1.6855,-1.6829,-1.6077,-1.54,-1.5409,-1.4205,-1.3143,-1.2747,-1.3058,-1.3267,-1.327,-1.5696,-1.6838,-1.5504,-1.54,-1.5098,-1.4399,-1.3674,-1.3072,-1.2512,-1.1717,-1.1469,-1.1764,-1.1281,-1.1122,-1.1383,-1.1543,-1.177,-1.2058,-1.2805,-1.3234,-1.3476,-1.3956,-1.3993,-1.3745,-1.3882,-1.445,-1.5234,-1.579,-1.6784,-1.8008,-1.8008,-1.8008,-1.8008,-1.8008,-1.8008,-1.8008,-1.8008,-1.8008,-1.8008,-1.8008,-1.8008,-1.8008,-1.8008,-1.8008,-1.8008,-1.8008,-1.8269,-1.8586,-1.8586,-1.8586,-1.8586,-1.8586,-1.8586,-1.8586,-1.8586,-1.8081,-1.7656,-1.7656,-1.751,-1.7383,-1.7383,-1.7665,-1.8451,-2.0042,-2.0569,-2.1346,-2.2919,-2.3078,-2.3203,-2.359,-2.3615,-2.3853,-2.4418,-2.4217,-2.4192,-2.4443,-2.4456,-2.4456,-2.4456,-2.4745,-2.5121,-2.5586,-2.5686,-2.585,-2.6088,-2.6339,-2.6289,-2.5975,-2.605,-2.59,-2.5544,-2.4435,-2.3838,-2.3478,-2.2592,-2.2489,-2.2933,-2.3688,-2.5696,-2.8208,-2.938,-3.0323,-3.1029]}]]